[[{"header":{"parameterUnit":"m.s-1","parameterCategory":1,"la1":30.6,"la2":29.2853,"lo1":-89.7004,"lo2":-87.6739,"dy":0.0162,"dx":0.0183,"nx":112,"ny":82,"refTime":"2024-09-11T06:00:00:Z","depth":0,"parameterNumber":2,"parameterNumberName":"U-component_of_WINDS"},"data":[0.0,0.0,0.0,0.0,0.0,0.0,0.0,0.0,0.0,0.0,0.0,0.0,0.0,0.0,0.0,0.0,0.0,0.0,0.0,0.0,0.0,0.0,0.0,0.0,0.0,0.0,0.0,0.0,0.0,0.0,0.0,0.0,0.0,0.0,0.0,0.0,0.0,0.0,0.0,0.0,0.0,0.0,0.0,0.0,0.0,0.0,0.0,0.0,0.0,0.0,0.0,0.0,0.0,0.0,0.0,0.0,0.0,0.0,0.0,0.0,0.0,0.0,0.0,0.0,0.0,0.0,0.0,0.0,0.0,0.0,0.0,0.0,0.0,0.0,0.0,0.0,0.0,0.0,0.0,0.0,0.0,0.0,0.0,0.0,0.0,0.0,0.0,0.0,0.0,0.0,1.1254,1.3367,1.4666,1.5264,1.4912,1.4756,1.3848,1.193,0.0,0.0,0.0,0.0,0.0,0.0,0.0,0.0,0.0,0.0,0.0,0.0,0.0,0.0,0.0,0.0,0.0,0.0,0.0,0.0,0.0,0.0,0.0,0.0,0.0,0.0,0.0,0.0,0.0,0.0,0.0,0.0,0.0,0.0,0.0,0.0,0.0,0.0,0.0,0.0,0.0,0.0,0.0,0.0,0.0,0.0,0.0,0.0,0.0,0.0,0.0,0.0,0.0,0.0,0.0,0.0,0.0,0.0,0.0,0.0,0.0,0.0,0.0,0.0,0.0,0.0,0.0,0.0,0.0,0.0,0.0,0.0,0.0,0.0,0.0,0.0,0.0,0.0,0.0,0.0,0.0,0.0,0.0,0.0,0.0,0.0,0.0,0.0,0.0,0.0,0.0,0.0,0.0,0.0,0.0,0.0,0.0,0.0,0.0,0.0,0.0,0.0,0.0,0.0,1.1985,1.435,1.5039,1.5381,1.5322,1.4648,1.3789,1.2754,0.0,0.0,0.0,0.0,0.0,0.0,0.0,0.0,0.0,0.0,0.0,0.0,0.0,0.0,0.0,0.0,0.0,0.0,0.0,0.0,0.0,0.0,0.0,0.0,0.0,0.0,0.0,0.0,0.0,0.0,0.0,0.0,0.0,0.0,0.0,0.0,0.0,0.0,0.0,0.0,0.0,0.0,0.0,0.0,0.0,0.0,0.0,0.0,0.0,0.0,0.0,0.0,0.0,0.0,0.0,0.0,0.0,0.0,0.0,0.0,0.0,0.0,0.0,0.0,0.0,0.0,0.0,0.0,0.0,0.0,0.0,0.0,0.0,0.0,0.0,0.0,0.0,0.0,0.0,0.0,0.0,0.0,0.0,0.0,0.0,0.0,0.0,0.0,0.0,0.0,0.0,0.0,0.0,0.0,0.0,0.0,0.0,0.0,0.0,0.0,0.0,0.0,0.0,1.1943,1.3022,1.4615,1.5156,1.541,1.541,1.4629,1.3779,1.293,1.0811,0.0,0.0,0.0,0.0,0.0,0.0,0.0,0.0,0.0,0.0,0.0,0.0,0.0,0.0,0.0,0.0,0.0,0.0,0.0,0.0,0.0,0.0,0.0,0.0,0.0,0.0,0.0,0.0,0.0,0.0,0.0,0.0,0.0,0.0,0.0,0.0,0.0,0.0,0.0,0.0,0.0,0.0,0.0,0.0,0.0,0.0,0.0,0.0,0.0,0.0,0.0,0.0,0.0,0.0,0.0,0.0,0.0,0.0,0.0,0.0,0.0,0.0,0.0,0.0,0.0,0.0,0.0,0.0,0.0,0.0,0.0,0.0,0.0,0.0,0.0,0.0,0.0,0.0,0.0,0.0,0.0,0.0,0.0,0.0,0.0,0.0,0.0,0.0,0.0,0.0,0.0,0.0,0.0,0.0,0.0,0.0,0.0,0.0,0.0,0.0,0.0,0.0,1.3172,1.3911,1.4861,1.5215,1.541,1.541,1.4443,1.3525,1.2773,1.0195,0.0,0.0,0.0,0.0,0.0,0.0,0.0,0.0,0.0,0.0,0.0,0.0,0.0,0.0,0.0,0.0,0.0,0.0,0.0,0.0,0.0,0.0,0.0,0.0,0.0,0.0,0.0,0.0,0.0,0.0,0.0,0.0,0.0,0.0,0.0,0.0,0.0,0.0,0.0,0.0,0.0,0.0,0.0,0.0,0.0,0.0,0.0,0.0,0.0,0.0,0.0,0.0,0.0,0.0,0.0,0.0,0.0,0.0,0.0,0.0,0.0,0.0,0.0,0.0,0.0,0.0,0.0,0.0,0.0,0.0,0.0,0.0,0.0,0.0,0.0,0.0,0.0,0.0,0.0,0.0,0.0,0.0,0.0,0.0,0.0,0.0,0.0,0.0,0.0,0.0,0.0,0.0,0.0,0.0,0.0,0.0,0.0,0.0,0.0,0.0,0.0,0.0,1.3273,1.4385,1.5273,1.5391,1.541,1.541,1.3916,1.2773,1.2258,0.9437,0.0,0.0,0.0,0.0,0.0,0.0,0.0,0.0,0.0,0.0,0.0,0.0,0.0,0.0,0.0,0.0,0.0,0.0,0.0,0.0,0.0,0.0,0.0,0.0,0.0,0.0,0.0,0.0,0.0,0.0,0.0,0.0,0.0,0.0,0.0,0.0,0.0,0.0,0.0,0.0,0.0,0.0,0.0,0.0,0.0,0.0,0.0,0.0,0.0,0.0,0.0,0.0,0.0,0.0,0.0,0.0,0.0,0.0,0.0,0.0,0.0,0.0,0.0,0.0,0.0,0.0,0.0,0.0,0.0,0.0,0.0,0.0,0.0,0.0,0.0,0.0,0.0,0.0,0.0,0.0,0.0,0.0,0.0,0.0,0.0,0.0,0.0,0.0,0.0,0.0,0.0,0.0,0.0,0.0,0.0,0.0,0.0,0.0,0.0,0.0,0.0,0.0,1.3024,1.4118,0.0,1.541,1.541,1.541,1.4336,1.3252,1.2239,0.0,0.0,0.0,0.0,0.0,0.0,0.0,0.0,0.0,0.0,0.0,0.0,0.0,0.0,0.0,0.0,0.0,0.0,0.0,0.0,0.0,0.0,0.0,0.0,0.0,0.0,0.0,0.0,0.0,0.0,0.0,0.0,0.0,0.0,0.0,0.0,0.0,0.0,0.0,0.0,0.0,0.0,0.0,0.0,0.0,0.0,0.0,0.0,0.0,0.0,0.0,0.0,0.0,0.0,0.0,0.0,0.0,0.0,0.0,0.0,0.0,0.0,0.0,0.0,0.0,0.0,0.0,0.0,0.0,0.0,0.0,0.0,0.0,0.0,0.0,0.0,0.0,0.0,0.0,0.0,0.0,0.0,0.0,0.0,0.0,0.0,0.0,0.0,0.0,0.0,0.0,0.0,0.0,0.0,0.0,0.0,0.0,0.0,0.0,0.0,0.0,0.0,1.164,1.2926,1.4069,0.0,1.541,1.5361,1.5225,1.4307,1.3184,1.1895,0.0,0.0,0.0,0.0,0.0,0.0,0.0,0.0,0.0,0.0,0.0,0.0,0.0,0.0,0.0,0.0,0.0,0.0,0.0,0.0,0.0,0.0,0.0,0.0,0.0,0.0,0.0,0.0,0.0,0.0,0.0,0.0,0.0,0.0,0.0,0.0,0.0,0.0,0.0,0.0,0.0,0.0,0.0,0.0,0.0,0.0,0.0,0.0,0.0,0.0,0.0,0.0,0.0,0.0,0.0,0.0,0.0,0.0,0.0,0.0,0.0,0.0,0.0,0.0,0.0,0.0,0.0,0.0,0.0,0.0,0.0,0.0,0.0,0.0,0.0,0.0,0.0,0.0,0.0,0.0,0.0,0.0,0.0,0.0,0.0,0.0,0.0,0.0,0.0,0.0,0.0,0.0,0.0,0.0,0.0,0.0,0.0,0.0,0.0,0.0,0.0,0.0,1.139,1.3066,1.4408,1.5322,1.541,1.5244,1.4814,1.3623,1.2334,0.0,0.0,0.0,0.0,0.0,0.0,0.0,0.0,0.0,0.0,0.0,0.0,0.0,0.0,0.0,0.0,0.0,0.0,0.0,0.0,0.0,0.0,0.0,0.0,0.0,0.0,0.0,0.0,0.0,0.0,0.0,0.0,0.0,0.0,0.0,0.0,0.0,0.0,0.0,0.0,0.0,0.0,0.0,0.0,0.0,0.0,0.0,0.0,0.0,0.0,0.0,0.0,0.0,0.0,0.0,0.0,0.0,0.0,0.0,0.0,0.0,0.0,0.0,0.0,0.0,0.0,0.0,0.0,0.0,0.0,0.0,0.0,0.0,0.0,0.0,0.0,0.0,0.0,0.0,0.0,0.0,0.0,0.0,0.0,0.0,0.0,0.0,0.0,0.0,0.0,0.0,0.0,0.0,0.0,0.0,0.0,0.0,0.0,0.0,0.0,0.0,0.0,0.0,1.1768,1.3262,1.4408,1.5322,1.541,1.5244,1.4814,1.416,1.2949,1.1025,0.0,0.0,0.0,0.0,0.0,0.0,0.0,0.0,0.0,0.0,0.0,0.0,0.0,0.0,0.0,0.0,0.0,0.0,0.0,0.0,0.0,0.0,0.0,0.0,0.0,0.0,0.0,0.0,0.0,0.0,0.0,0.0,0.0,0.0,0.0,0.0,0.0,0.0,0.0,0.0,0.0,0.0,0.0,0.0,0.0,0.0,0.0,0.0,0.0,0.0,0.0,0.0,0.0,0.0,0.0,0.0,0.0,0.0,0.0,0.0,0.0,0.0,0.0,0.0,0.0,0.0,0.0,0.0,0.0,0.0,0.0,0.0,0.0,0.0,0.0,0.0,0.0,0.0,0.0,0.0,0.0,0.0,0.0,0.0,0.0,0.0,0.0,0.0,0.0,0.0,0.0,0.0,0.0,0.0,0.0,0.0,0.0,0.0,0.0,0.0,0.0,0.0,1.1908,1.3289,1.4408,1.5322,1.541,1.5166,1.458,1.4277,1.3163,1.1045,0.0,0.0,0.0,0.0,0.0,0.0,0.0,0.0,0.0,0.0,0.0,0.0,0.0,0.0,0.0,0.0,0.0,0.0,0.0,0.0,0.0,0.0,0.0,0.0,0.0,0.0,0.0,0.0,0.0,0.0,0.0,0.0,0.0,0.0,0.0,0.0,0.0,0.0,0.0,0.0,0.0,0.0,0.0,0.0,0.0,0.0,0.0,0.0,0.0,0.0,0.0,0.0,0.0,0.0,0.0,0.0,0.0,0.0,0.0,0.0,0.0,0.0,0.0,0.0,0.0,0.0,0.0,0.0,0.0,0.0,0.0,0.0,0.0,0.0,0.0,0.0,0.0,0.0,0.0,0.0,0.0,0.0,0.0,0.0,0.0,0.0,0.0,0.0,0.0,0.0,0.0,0.0,0.0,0.0,0.0,0.0,0.0,0.0,0.0,0.0,0.0,0.0,1.1957,1.3319,1.4408,1.5322,1.541,1.5078,1.4268,1.4107,1.3192,1.1162,0.0,0.0,0.0,0.0,0.0,0.0,0.0,0.0,0.0,0.0,0.0,0.0,0.0,0.0,0.0,0.0,0.0,0.0,0.0,0.0,0.0,0.0,0.0,0.0,0.0,0.0,0.0,0.0,0.0,0.0,0.0,0.0,0.0,0.0,0.0,0.0,0.0,0.0,0.0,0.0,0.0,0.0,0.0,0.0,0.0,0.0,0.0,0.0,0.0,0.0,0.0,0.0,0.0,0.0,0.0,0.0,0.0,0.0,0.0,0.0,1.2703,0.0,0.0,0.0,0.0,0.0,0.0,0.0,0.0,0.0,0.0,0.0,0.0,0.0,0.0,0.0,0.0,0.0,0.0,0.0,0.0,0.0,0.0,0.0,0.0,0.0,0.0,0.0,0.0,0.0,0.0,0.0,0.0,0.0,0.0,0.0,0.0,0.0,0.0,0.0,0.0,0.0,1.2422,1.3555,1.4408,1.5322,1.541,1.5205,1.4687,1.4326,1.3464,1.1995,1.0811,0.0,0.0,0.0,0.0,0.0,0.0,0.0,0.0,0.0,0.0,0.0,0.0,0.0,0.0,0.0,0.0,0.0,0.0,0.0,0.0,0.0,0.0,0.0,0.0,0.0,0.0,0.0,0.0,0.0,0.0,0.0,0.0,0.0,0.0,0.0,0.0,0.0,0.0,0.0,0.0,0.0,0.0,0.0,0.0,0.0,0.0,0.0,0.0,0.0,0.0,0.0,0.0,0.0,0.0,0.0,0.0,0.0,0.0,0.0,0.0,1.3728,0.0,0.0,0.0,0.0,0.0,0.0,0.0,0.0,0.0,0.0,0.0,0.0,0.0,0.0,0.0,0.0,0.0,0.0,0.0,0.0,0.0,0.0,0.0,0.0,0.0,0.0,0.0,0.0,0.0,0.0,0.0,0.0,0.0,0.0,0.0,0.0,0.0,0.0,0.0,0.0,1.2852,1.374,1.4408,1.5322,1.541,1.5244,1.4814,1.4385,1.363,1.2607,1.1504,0.0,0.0,0.0,0.0,0.0,0.0,0.0,0.0,0.0,0.0,0.0,0.0,0.0,0.0,0.0,0.0,0.0,0.0,0.0,0.0,0.0,0.0,0.0,0.0,0.0,0.0,0.0,0.0,0.0,0.0,0.0,0.0,0.0,0.0,0.0,0.0,0.0,0.0,0.0,0.0,0.0,0.0,0.0,0.0,0.0,0.0,0.0,0.0,0.0,0.0,0.0,0.0,0.0,1.8816,1.9096,2.0106,1.9149,1.9204,1.9971,1.8068,1.6816,1.6082,1.5429,0.0,0.0,0.0,0.0,0.0,0.0,0.0,0.0,0.0,0.0,0.0,0.0,0.0,0.0,0.0,0.0,0.0,0.0,0.0,0.0,0.0,0.0,0.0,0.0,1.4445,1.3969,1.2425,0.0,0.0,0.0,0.0,0.0,0.0,0.0,0.0,0.0,0.0,0.0,1.3203,1.3945,1.4551,1.5332,1.541,1.5273,1.4922,1.4502,1.3916,1.3154,1.2322,1.1489,0.0,0.0,0.0,0.0,0.0,0.0,0.0,0.0,0.0,0.0,0.0,0.0,0.0,0.0,0.0,0.0,0.0,0.0,0.0,0.0,0.0,0.0,0.0,0.0,0.0,0.0,0.0,0.0,0.0,0.0,0.0,0.0,1.2119,1.4034,0.0,0.0,0.0,0.0,0.0,0.0,0.0,0.0,0.0,0.0,0.0,0.0,0.0,2.004,2.1779,2.183,2.2165,2.2793,2.2631,2.2587,2.2647,2.2455,2.2241,2.1901,2.1625,0.0,1.779,1.6735,0.0,0.0,0.0,0.0,0.0,0.0,0.0,0.0,0.0,0.0,0.0,0.0,0.0,0.0,0.0,0.0,0.0,0.0,0.0,0.0,0.0,0.0,1.5091,1.5209,1.5221,1.5192,0.0,1.3435,1.1829,1.0774,0.9953,0.0,0.0,0.0,0.0,0.0,0.0,0.0,1.332,1.4209,1.4883,1.5361,1.541,1.5391,1.5332,1.4941,1.4492,1.3941,1.3174,1.248,1.1947,1.083,0.0,0.0,0.0,0.0,0.0,0.0,0.0,0.0,0.0,0.0,0.0,0.0,0.0,0.0,0.0,0.0,0.0,0.0,0.0,0.0,0.0,0.0,0.0,0.0,0.0,0.0,0.0,0.0,0.0,1.191,1.3675,1.5621,1.5338,1.4872,0.0,0.0,0.0,0.0,0.0,0.0,0.0,0.0,0.0,2.1175,2.1902,2.2665,2.349,2.3758,2.4,2.4259,2.4196,2.4088,2.4079,2.4079,2.3954,2.3728,2.3728,2.2862,2.1262,1.9074,1.7485,1.639,0.0,0.0,0.0,0.0,1.4931,1.4949,1.5063,1.5231,1.5202,1.3844,0.0,0.0,0.0,0.0,0.0,0.0,0.0,1.4756,0.0,0.0,1.6247,1.6154,1.6152,1.6152,1.6152,1.5229,1.4042,0.0,1.2024,1.1436,1.0273,0.0,0.0,0.0,0.0,1.249,1.4023,1.4551,1.4941,1.5371,1.541,1.541,1.541,1.5029,1.4697,1.4512,1.3701,1.3145,1.2959,1.1934,1.1055,0.0,0.0,0.0,0.0,0.0,0.0,0.0,0.0,0.0,0.0,0.0,0.0,0.0,0.0,0.0,0.0,0.0,0.0,0.0,0.0,0.0,0.0,0.0,0.0,0.0,0.0,0.0,0.0,1.375,1.5457,1.7249,1.7623,1.7399,0.0,0.0,0.0,0.0,0.0,0.0,2.0857,2.1376,2.2236,2.3592,2.4346,2.4755,2.4845,2.5017,2.5219,2.5376,2.5103,2.5096,2.5247,2.5247,2.5159,2.5021,2.4747,2.4307,2.3652,2.1056,1.9403,1.8417,1.7368,1.671,1.6396,1.6632,1.6706,1.6746,1.6884,1.7207,1.7318,1.5528,1.523,1.53,1.3528,0.0,0.0,0.0,0.0,1.6012,1.595,1.6507,1.7113,1.7007,1.7061,1.7061,1.7061,1.6709,1.5957,0.0,1.4072,1.3545,1.2139,0.0,0.0,0.0,0.0,1.3672,1.4951,1.5215,1.5361,1.5557,1.5576,1.5537,1.542,1.5127,1.4902,1.4795,1.4189,1.373,1.3516,1.29,1.2102,1.127,0.0,0.0,0.0,0.0,0.0,0.0,0.0,0.0,0.0,0.0,0.0,0.0,0.0,0.0,0.0,0.0,0.0,0.0,0.0,0.0,0.0,0.0,0.0,0.0,0.0,0.0,0.0,0.0,0.0,1.9375,2.0124,0.0,0.0,0.0,0.0,1.954,2.1291,2.2966,2.4268,2.4196,2.4997,2.6992,2.6301,2.6233,2.6836,2.6182,2.6143,2.6619,2.5919,2.585,2.6445,2.6445,2.6076,2.5482,2.4607,2.3887,2.3226,2.206,2.1231,2.0569,1.9081,1.8474,1.8392,1.7737,1.7554,1.7451,1.6911,1.6478,1.6304,1.7027,1.7006,1.6742,1.6729,1.6514,0.0,0.0,1.6881,1.696,1.7244,1.736,1.7488,1.7852,1.7949,1.7949,1.7949,1.7617,1.7041,0.0,1.5596,1.5156,1.4678,0.0,1.5068,1.4707,1.5352,1.5958,1.6047,1.6377,1.6484,1.6074,1.6086,1.5859,1.5449,1.5391,1.5215,1.4805,1.4746,1.4355,1.3545,1.3467,1.3037,1.2132,1.0908,0.0,0.0,0.0,0.0,0.0,0.0,0.0,0.0,0.0,0.0,0.0,0.0,0.0,0.0,0.0,0.0,0.0,0.0,0.0,0.0,0.0,0.0,0.0,0.0,0.0,0.0,0.0,0.0,2.141,2.2173,0.0,2.1904,2.2697,2.331,2.349,2.4552,2.556,2.6316,2.6792,2.7032,2.6952,2.7127,2.7058,2.6661,2.6424,2.6394,2.6598,2.6274,2.6264,2.6533,2.6533,2.6052,2.522,2.4871,2.4249,2.3322,2.2324,2.1439,2.0584,1.9499,1.9039,1.9039,1.8764,1.8695,1.8626,1.8438,1.8271,1.8144,1.8174,1.7917,1.7566,1.7631,1.753,1.7476,1.7606,1.7631,1.7645,1.7772,1.7793,1.7822,1.7978,1.8008,1.8008,1.8008,1.7891,1.7695,1.7373,1.6748,1.6123,1.5684,1.5732,1.5781,1.5635,1.5929,1.6172,1.6455,1.6631,1.667,1.6514,1.623,1.6056,1.584,1.5566,1.5234,1.4814,1.4521,1.4102,1.3525,1.3242,1.2959,1.2656,1.1914,1.0922,0.0,0.0,0.0,0.0,0.0,0.0,0.0,0.0,0.0,0.0,0.0,0.0,0.0,0.0,0.0,0.0,0.0,0.0,0.0,0.0,0.0,0.0,0.0,0.0,0.0,0.0,2.0837,2.2134,2.318,2.3731,2.3467,2.4423,2.5235,2.5705,2.6381,2.6982,2.7527,2.7811,2.7701,2.7038,2.7535,2.7446,2.6798,2.6917,2.7017,2.7017,2.7017,2.6917,2.6741,2.6425,2.5822,2.4933,2.4264,2.3599,2.2925,2.1962,2.1169,2.0573,1.993,1.9717,1.9697,1.9551,1.9502,1.9482,1.9336,1.9287,1.9238,1.8955,1.8672,1.8437,1.8437,1.8437,1.8437,1.8437,1.8437,1.8437,1.8437,1.8437,1.8437,1.8437,1.833,1.8223,1.8223,1.8115,1.8008,1.8008,1.7549,1.7021,1.6582,1.6621,1.667,1.6596,1.6631,1.6826,1.7119,1.7158,1.697,1.6484,1.6481,1.6263,1.5708,1.5486,1.5234,1.4814,1.4375,1.3945,1.3525,1.3242,1.3027,1.2881,1.2305,1.1384,1.0113,0.0,0.0,0.0,0.0,0.0,0.0,0.0,0.0,0.0,0.0,0.0,0.0,0.0,0.0,0.0,0.0,0.0,0.0,0.0,0.0,0.0,0.0,0.0,1.6975,1.967,2.1643,2.1554,2.3142,2.404,2.3362,2.4983,2.6079,2.6079,2.6685,2.7363,2.7996,2.726,2.7104,2.7709,2.7493,2.7377,2.7306,2.7846,2.8109,2.8109,2.8109,2.7821,2.7306,2.6299,2.5504,2.4909,2.2883,2.1973,2.1907,2.1011,2.0566,2.0566,2.0566,2.0566,2.0508,2.0088,1.9932,1.9873,1.9473,1.9326,1.9326,1.9326,1.9326,1.9326,1.9326,1.9316,1.9307,1.9307,1.9297,1.9287,1.9287,1.9287,1.9287,1.9287,1.8965,1.8652,1.8652,1.834,1.8047,1.8037,1.8027,1.79,1.7471,1.7744,1.7871,1.7461,1.7744,0.0,1.8008,1.8008,1.7494,1.6093,1.6826,1.6689,1.4899,1.5128,1.5177,1.4739,1.4256,1.384,1.3474,1.3455,1.3311,1.291,1.2077,1.1214,1.0342,0.0,0.0,0.0,0.0,0.0,0.0,0.0,0.0,0.0,0.0,0.0,0.0,0.0,0.0,0.0,0.0,0.0,0.0,0.0,0.0,0.0,1.8563,1.9716,1.9584,2.1835,2.3634,2.408,2.5409,2.6178,2.5942,2.685,2.7473,2.7473,2.8085,2.8425,2.8385,2.8741,2.8639,2.8035,2.8531,2.855,2.7883,2.8034,2.8109,2.8109,2.8109,2.8021,2.7871,2.6807,2.5803,2.4884,2.3219,2.2087,2.1401,2.085,2.0566,2.0566,2.0566,2.0566,2.0547,2.043,2.0391,2.0371,2.0254,2.0215,2.0215,2.0215,2.0215,2.0215,2.0215,1.999,1.9746,1.9746,1.9521,1.9287,1.9287,1.9287,1.9287,1.9287,1.9199,1.9111,1.9111,1.9014,1.8848,1.8525,1.8467,1.833,1.791,1.7939,1.7969,1.7852,1.7939,0.0,1.8008,1.8008,1.7823,1.7484,1.7426,1.6814,1.5396,1.512,1.4401,1.2785,1.2564,1.2338,1.1912,1.2498,1.2927,1.334,1.249,1.1934,0.0,0.0,0.0,0.0,0.0,0.0,0.0,0.0,0.0,0.0,0.0,0.0,0.0,0.0,0.0,0.0,0.0,0.0,0.0,0.0,0.0,0.0,2.0628,2.1752,2.201,2.327,2.4383,2.4945,2.5831,2.6387,2.6387,2.6993,2.7457,2.7709,2.8093,2.8276,2.8298,2.8812,2.8773,2.8097,2.8809,2.8924,2.8448,2.8699,2.8812,2.8812,2.8812,2.8438,2.774,2.6653,2.5508,2.4187,2.2912,2.204,2.1484,2.123,2.0758,0.0,0.0,0.0,0.0,0.0,2.0566,2.0566,2.0566,2.0566,2.0566,2.0566,2.0566,2.0566,2.0566,2.0391,2.0185,2.0185,2.001,1.9824,1.9824,1.9824,1.9824,1.9824,1.9687,1.9551,1.9551,1.9414,1.9209,1.8955,1.876,0.0,1.7745,1.7546,1.7432,1.7432,1.7079,1.6793,1.6793,1.6793,1.6655,1.6228,1.6387,1.5945,1.4605,1.435,0.0,0.0,0.0,1.1693,1.1489,1.2253,0.0,0.0,0.0,0.0,0.0,0.0,0.0,0.0,1.2457,1.2703,0.0,0.0,0.0,0.0,0.0,0.0,0.0,0.0,0.0,0.0,0.0,0.0,0.0,0.0,0.0,0.0,2.2457,2.3451,2.4079,2.4253,2.4412,2.4847,2.5372,2.5686,2.5686,2.6214,2.6753,2.7243,2.7344,2.762,2.8172,0.0,0.0,0.0,0.0,2.9026,2.9026,2.9528,2.9792,2.9792,2.9702,2.886,2.7316,2.6211,2.4843,2.3398,2.2439,2.1953,2.1953,2.1729,2.079,1.9479,2.0182,2.0323,2.0245,2.0479,2.0489,2.0401,2.0566,0.0,0.0,2.0566,2.0566,2.0566,2.0566,2.0566,2.0566,2.0566,2.0566,2.0566,2.0566,2.0566,2.0566,2.0566,2.0273,1.999,1.999,1.9697,1.9414,1.9365,1.9043,1.8456,1.7495,1.6908,1.6567,1.6498,1.572,1.5234,1.5234,1.5234,1.4879,1.3954,1.4665,0.0,1.3219,1.3314,1.3179,1.2607,1.198,1.1687,1.1736,1.2473,1.2884,1.2952,1.3617,1.4201,1.4639,1.5003,1.5233,1.5281,1.3927,1.4092,0.0,0.0,0.0,0.0,0.0,0.0,0.0,0.0,0.0,0.0,0.0,0.0,0.0,0.0,0.0,2.2554,2.3385,2.4166,2.5134,2.5315,2.5315,2.5423,2.595,2.6302,2.6302,2.6791,2.7168,2.7268,2.7695,2.8185,2.8737,2.8775,2.8988,2.9453,2.9566,2.9628,2.9628,2.9741,2.9792,2.9792,0.0,0.0,2.7862,2.5892,2.485,2.442,2.3018,2.2393,2.2269,2.095,1.9653,1.8506,1.9075,1.8709,1.8141,1.9913,2.0079,1.9441,2.0323,2.0566,2.0566,2.0566,2.0566,2.0566,2.0566,2.0566,0.0,2.0566,2.0566,2.0566,2.0566,2.0566,2.0566,2.0566,2.0498,2.0439,2.0439,2.0381,2.0215,1.9863,1.9727,1.937,1.8466,1.7339,1.6349,1.5587,1.5305,1.5234,1.5234,1.5234,1.5163,1.495,1.5092,1.467,1.3359,1.3278,1.2751,1.1458,1.124,1.1418,1.2092,1.25,1.2844,1.3116,1.3285,1.3442,1.3517,1.3593,1.3992,1.4688,1.5589,1.5967,0.0,0.0,0.0,0.0,0.0,0.0,0.0,0.0,0.0,0.0,0.0,1.9854,2.1104,0.0,2.2998,2.4192,2.4608,2.5084,2.5912,2.6025,2.6025,2.6025,2.6289,2.6634,2.6841,2.7118,2.7507,2.8059,2.836,2.8762,2.9327,2.9365,2.9235,2.8937,2.8937,2.87,2.8131,2.8131,2.8131,2.8131,2.7533,2.7023,2.6438,2.5284,2.4457,2.3867,2.3159,2.2457,2.1705,1.9521,1.8233,1.7754,1.7738,1.768,1.7697,1.876,1.9128,1.9116,1.9599,2.0157,2.0566,2.0566,2.0566,2.0566,2.0566,2.0566,2.0566,2.0566,2.0566,2.0566,2.0566,2.0566,2.0566,2.0566,2.0566,2.0566,2.0566,2.0566,2.0498,2.0283,1.9593,1.8844,1.7895,1.6452,1.5369,1.5188,1.4378,1.373,1.373,1.373,1.373,1.373,1.373,1.3454,1.2877,1.2657,1.2228,1.1236,1.1209,1.1404,1.1791,1.2356,1.2766,1.2922,1.3363,1.3639,1.3884,1.3884,1.425,1.5084,1.5817,1.6034,0.0,0.0,0.0,0.0,0.0,0.0,0.0,0.0,1.859,1.9605,2.0898,2.2167,2.325,2.3897,2.45,2.5438,2.5686,2.5925,2.6458,2.6533,2.6533,2.6533,2.6533,2.6747,2.7231,2.7381,2.7858,2.885,2.9038,2.9302,2.9767,2.9624,2.9028,2.8096,2.7924,2.736,2.6472,2.6483,2.6483,2.6483,2.6307,2.5714,2.4787,2.4351,2.3597,2.2765,2.2501,2.1765,2.0459,1.8175,1.7167,1.6872,1.6526,1.6851,1.7413,1.7758,1.8303,1.8932,1.9021,1.9631,2.0429,2.0586,2.0479,2.0323,2.0566,2.0566,2.0566,2.0566,2.0566,2.0566,2.0566,2.0566,2.0566,2.0566,2.0566,2.0566,2.0566,2.0566,2.0566,2.0566,1.9571,1.8443,1.7337,1.5843,1.4733,1.476,1.3346,1.2305,1.2305,1.2305,1.2305,1.2305,1.2305,1.2305,1.2305,1.2091,1.185,1.161,1.1597,1.1597,1.1597,1.222,1.2633,1.2633,1.3225,1.3758,1.4103,1.4166,1.449,1.5036,1.5107,1.5362,1.7786,1.7221,1.6761,1.7942,1.7775,1.8221,0.0,0.0,2.1548,2.3798,2.3987,2.3917,2.4601,2.5089,2.5438,2.5561,2.6025,2.6445,2.6521,2.6533,2.6533,2.6533,2.6533,2.6747,2.7231,2.772,2.8273,2.8888,2.9402,2.9729,2.9792,2.8858,2.8255,2.8096,2.7209,2.6637,2.6483,2.6483,2.6483,2.6483,2.5462,2.4957,2.4702,2.26,2.1649,2.148,2.0395,1.9231,1.8048,1.7732,1.698,1.5961,1.5927,1.5824,1.5889,1.7525,1.8333,1.8591,1.9177,1.9471,1.9823,2.0439,1.9923,1.9362,2.0323,2.0566,2.0566,2.0566,2.0566,2.0566,2.0566,2.0566,2.0566,2.0566,2.0566,2.0566,2.0566,2.0566,2.0566,2.0566,2.044,1.9888,1.8416,1.726,1.5801,1.3452,1.2621,1.2305,1.2305,1.2305,1.2305,1.2305,1.2305,1.2305,1.2305,1.2271,1.2238,1.2204,1.2204,1.2204,1.2204,1.2278,1.2351,1.2351,1.2417,1.2503,1.2538,1.2811,1.3051,1.3127,1.3331,1.437,2.0512,1.99,1.9322,0.0,2.0621,2.0858,2.2764,2.2994,2.315,2.4216,2.467,2.4985,2.5269,2.5747,2.6101,0.0,2.637,2.6533,2.6533,2.6533,2.6339,2.6,2.6319,2.6747,2.7231,2.7783,2.8335,2.8888,2.9465,2.9534,2.8858,2.8347,2.751,2.6191,2.5703,2.521,2.4563,2.4563,2.4563,2.4563,2.4049,2.3424,2.2688,2.1728,2.0935,2.0215,1.8956,1.8141,1.7591,1.6943,1.6292,1.5832,1.5832,1.5752,1.5705,1.6294,1.6936,1.7352,1.7634,1.8684,1.9814,1.9913,2.0042,2.0334,2.0566,2.0566,2.0566,2.0566,2.0566,2.0566,2.0566,2.0566,2.0566,2.0566,2.0566,2.0566,2.0566,2.0566,2.0566,2.0566,2.0079,1.9219,1.7933,1.6771,1.5351,1.3539,1.3019,1.2826,1.2826,1.2672,1.2492,1.2318,1.2305,1.2305,1.2305,1.2305,1.2305,1.2305,1.2305,1.2305,1.2305,1.2305,1.2385,1.2559,1.2559,1.2652,1.2832,1.2953,1.3106,1.3273,1.34,1.3945,2.2139,2.1697,0.0,2.2145,2.2576,2.2915,2.3425,2.3978,2.4436,2.4684,2.5297,2.5837,2.5837,2.6176,2.6533,2.6533,2.6533,2.6533,2.6533,2.6395,2.6126,2.5862,2.6063,2.6371,2.6627,2.7172,2.7619,2.8005,2.8431,2.8373,2.7683,2.7348,2.6438,2.4872,2.4457,2.378,2.258,2.295,2.2775,2.2138,2.2403,2.1943,2.0755,2.0486,1.967,1.8395,1.7584,1.6936,1.6546,1.5615,1.5051,1.4758,1.5146,1.5242,1.5317,1.5498,1.6092,1.6855,1.6758,1.785,1.9179,1.9063,1.9386,1.9824,2.0178,2.0253,2.0245,2.0489,2.0566,2.0566,2.0566,2.0566,2.0566,2.0566,2.0401,2.0157,2.0157,1.9923,1.9678,1.9678,1.9027,1.8149,1.709,1.6071,1.5035,1.3926,1.3587,1.3394,1.3233,1.3013,1.2792,1.2572,1.2472,1.2425,1.2425,1.2351,1.2305,1.2305,1.2305,1.2305,1.2305,1.2378,1.2525,1.2822,1.2909,1.2986,1.3213,1.3287,1.344,1.3566,1.3728,1.3881,2.2101,0.0,2.2346,2.2326,2.3129,2.4067,2.4619,2.5146,2.5686,2.6332,2.6483,2.6496,2.6496,2.6521,2.6533,2.6533,2.6533,2.6533,2.6533,2.5975,2.5824,2.6433,2.595,2.5487,2.5122,2.554,2.5894,2.5893,2.5904,2.6129,2.6532,2.5462,2.4872,2.4787,2.3714,2.258,2.1382,2.2492,2.1952,1.9579,2.0755,2.0755,1.9488,1.8319,1.7131,1.592,1.5825,1.514,1.3968,1.3974,1.3199,1.2139,1.3494,1.3968,1.407,1.533,1.6553,1.7609,1.7175,1.7146,1.7356,1.7993,1.7305,1.6684,1.8768,1.9255,1.9283,2.0323,2.0566,2.0566,2.0566,2.0566,2.0566,2.0566,1.9844,1.9045,1.9045,1.8149,1.7415,1.7415,1.7334,1.7009,1.5944,1.5688,1.5282,1.4237,1.4068,1.3854,1.3287,1.32,1.3193,1.3186,1.2913,1.2808,1.2808,1.2472,1.2305,1.2305,1.2305,1.2305,1.2305,1.2579,1.2815,1.2822,1.3046,1.32,1.3213,1.3494,1.3552,1.3654,1.3941,1.4082,2.4017,0.0,2.3917,2.5084,2.5253,2.5209,2.5787,2.605,2.6113,2.5925,2.5611,2.5259,2.4895,2.4833,2.4946,2.531,2.5661,2.6013,2.6471,2.6603,2.6502,2.595,2.6377,2.584,2.3661,2.487,0.0,2.5273,2.5633,2.5702,2.5357,2.5041,2.4457,2.3714,2.2561,2.1756,2.1293,2.0944,2.0314,1.9497,1.8241,1.7394,1.6944,1.4797,1.3578,1.3204,1.3204,1.3011,1.2528,1.2528,1.2334,1.2042,1.3392,1.3878,1.407,1.5337,1.6109,1.6466,1.6261,1.6772,1.7544,1.7468,1.7632,1.7985,1.828,1.8789,1.9291,1.9515,2.0079,2.0566,2.0566,2.0566,2.0566,2.0566,2.0323,2.0079,2.0079,1.9756,1.9274,1.855,1.839,1.7819,1.6026,1.5696,1.5379,1.425,1.4088,1.3941,1.3547,1.35,1.3427,1.3233,1.312,1.3053,1.3053,1.2959,1.2906,1.2906,1.2906,1.2906,1.2906,1.2999,1.3146,1.334,1.3447,1.3594,1.3794,1.3888,1.3941,1.3941,1.4041,1.4088,2.4837,2.4853,2.4761,2.6134,2.6233,2.6,2.6445,2.6302,2.5988,2.5435,2.4732,2.4104,2.3753,2.3527,2.3703,2.4669,2.5109,2.5515,2.6103,2.6291,2.6113,2.5419,2.5757,2.5271,0.0,0.0,0.0,2.3971,2.4341,2.4481,2.419,2.4211,2.3694,2.2492,2.1658,2.0845,2.0034,1.967,1.9023,1.808,1.6014,1.4791,1.4309,1.2608,1.1945,1.1945,1.1945,1.1653,1.1268,1.1268,1.0974,1.0681,1.1935,1.2517,1.2716,1.4465,1.5146,1.5146,1.5635,1.6386,1.7001,1.6693,1.7091,1.7632,1.7541,1.7912,1.8406,1.8542,1.9325,2.0182,2.0039,2.0323,2.0489,2.0079,1.9756,1.9432,1.9432,1.9107,1.878,1.847,1.806,1.7407,1.5944,1.5379,1.4894,1.4166,1.4088,1.4015,1.3828,1.3801,1.3728,1.354,1.3427,1.3367,1.3367,1.3273,1.3213,1.3213,1.3213,1.3213,1.3213,1.3313,1.3454,1.3641,1.3748,1.3895,1.4088,1.4088,1.4088,1.4088,1.4088,1.4088,2.4733,2.5007,2.5091,2.5557,2.6118,2.6521,2.6496,2.5963,2.5385,2.4808,2.3791,2.2927,2.2877,0.0,2.2774,2.4431,2.4757,2.4975,2.5539,2.5217,2.4838,0.0,0.0,0.0,0.0,0.0,0.0,2.1997,0.0,2.2609,2.3028,2.3047,2.2492,2.1203,2.1105,1.9935,1.7591,1.858,1.7887,1.5536,1.4238,1.3006,1.1653,1.1653,1.1653,1.1551,1.1653,1.0974,0.9903,0.9903,0.9118,0.8137,0.9509,0.9998,1.0288,1.2909,1.3776,1.3974,1.5242,1.573,1.5832,1.5832,1.5645,1.5596,1.6639,1.6773,1.6813,1.7504,1.8479,1.929,1.9003,1.9696,2.0157,1.9195,1.8069,1.7342,1.7342,1.6519,1.6108,1.7009,1.6355,1.5621,1.5621,1.4734,1.4088,1.4088,1.4088,1.4088,1.4088,1.4088,1.4088,1.4088,1.3834,1.3667,1.3667,1.3414,1.3253,1.3253,1.3253,1.3253,1.3253,1.352,1.3667,1.3667,1.3941,1.4088,1.4088,1.4088,1.4088,1.4088,1.4088,1.4095,2.6587,2.6914,2.7153,2.7197,2.6857,2.6352,2.5912,2.5398,2.4619,2.3238,2.2071,2.1041,2.0225,2.0627,0.0,2.2749,2.4004,0.0,2.5539,2.5855,0.0,2.487,0.0,2.4686,2.3423,2.3656,0.0,0.0,2.2451,2.2246,2.1826,2.1756,2.1212,2.0034,1.8149,1.6843,1.6209,1.4595,1.3555,1.2893,1.1546,1.0271,0.8977,0.9008,0.8414,0.7512,0.8517,0.8821,0.8528,0.8528,0.8333,0.8137,0.9509,0.9998,1.0194,1.1848,1.2431,1.2624,1.3974,1.5045,1.5832,1.5832,1.5778,1.5678,1.5821,1.6309,1.6885,1.6908,1.7491,1.8196,1.8103,1.8113,1.806,1.7819,1.7496,1.7342,1.7342,1.709,1.6764,1.6191,1.522,1.4496,1.4496,1.425,1.4088,1.4088,1.4088,1.4088,1.4088,1.4088,1.4088,1.4088,1.4021,1.3975,1.3975,1.3908,1.3861,1.3861,1.3861,1.3861,1.3861,1.3935,1.3975,1.3975,1.4048,1.4088,1.4088,1.4088,1.4088,1.4088,1.4088,1.4202,2.7527,2.7759,2.7766,2.7272,2.6646,2.5875,2.5071,2.4293,2.3175,2.1267,2.0188,1.9246,1.8129,1.8709,1.9851,0.0,0.0,0.0,2.5443,2.5692,2.5552,0.0,2.5055,0.0,2.3307,2.3416,2.3133,0.0,2.1966,2.1798,2.1284,2.0845,1.9645,1.7887,1.6476,1.4848,1.3194,1.1783,1.0436,0.9249,0.7957,0.6668,0.5388,0.479,0.4397,0.4309,0.5007,0.5712,0.6224,0.6224,0.6628,0.7232,0.7918,0.8612,0.9316,1.0583,1.1072,1.1263,1.2522,1.3494,1.4274,1.5439,1.5832,1.5798,1.5631,1.6037,1.6416,1.6104,1.6765,1.7416,1.7117,1.7314,1.7376,1.6714,1.6601,1.6601,1.6601,1.6601,1.6437,1.5779,1.5213,1.465,1.4166,1.4088,1.4088,1.4088,1.4088,1.4088,1.4088,1.4088,1.4088,1.4088,1.4088,1.4088,1.4088,1.4088,1.4088,1.4088,1.4088,1.4088,1.4088,1.4088,1.4088,1.4088,1.4088,1.4088,1.4088,1.4088,1.4088,1.4088,1.4215,1.4362,2.8186,2.8098,2.767,2.685,2.6097,2.5209,2.4255,2.3005,2.1479,1.9383,0.0,1.7655,1.667,1.7119,1.831,2.0345,0.0,2.3341,2.5217,2.5112,2.4856,2.4672,2.4756,2.4382,2.3222,2.2872,2.2397,2.1373,2.0828,2.0549,2.0549,1.9555,1.7687,1.4747,1.4545,1.2597,0.8916,0.8822,0.7638,0.5176,0.3866,0.2481,0.1197,0.0,0.0,0.0996,0.1296,0.2097,0.3203,0.3406,0.4212,0.5422,0.5422,0.6426,0.7836,0.9011,0.9604,0.9899,1.1165,1.1658,1.2042,1.4663,1.554,1.554,1.573,1.5832,1.5772,1.5524,1.6134,1.6674,1.6118,1.6714,1.7122,1.5898,1.5587,1.5573,1.5529,1.5484,1.5462,1.5462,1.5462,1.5213,1.425,1.4088,1.4088,1.4088,1.4088,1.4088,1.4088,1.4088,1.4088,1.4088,1.4088,1.4088,1.4088,1.4088,1.4088,1.4088,1.4088,1.4088,1.4088,1.4088,1.4088,1.4088,1.4088,1.4088,1.4088,1.4088,1.4108,1.4155,1.4402,1.4563,2.9765,2.9358,2.8556,2.7736,2.6191,2.4785,2.4047,2.2295,0.0,0.0,1.7655,1.6567,1.6373,1.6954,1.8174,2.0338,2.1631,2.2947,2.4696,2.5271,2.5131,0.0,2.4493,2.4382,2.3222,2.2199,0.0,0.0,1.8409,1.6649,1.6649,1.6469,1.4248,0.9522,0.8231,0.6254,0.339,0.339,0.2589,0.0994,-0.0296,-0.1579,-0.2974,-0.3144,-0.3725,-0.4422,-0.2167,0.0,-0.079,0.0298,0.1497,0.2701,0.2701,0.4207,0.6331,0.6625,0.7428,0.8531,0.9899,1.0288,1.0774,1.3392,1.4262,1.4459,1.5439,1.5832,1.5818,1.5765,1.5671,1.564,1.5531,1.55,1.5396,1.5164,1.5151,1.5082,1.4749,1.4498,1.4412,1.4412,1.4412,1.4328,1.4166,1.4088,1.4088,1.4088,1.4088,1.4088,1.4088,1.4088,1.4088,1.4088,1.4088,1.4088,1.4088,1.4088,1.4088,1.4088,1.4088,1.4088,1.4088,1.4088,1.4088,1.4088,1.4088,1.4088,1.4088,1.4088,1.4208,1.4449,1.4496,1.4776,3.0305,2.9966,2.9372,2.8175,2.6403,2.4676,2.3524,0.0,0.0,0.0,1.6813,1.6032,1.5466,1.649,0.0,1.9107,2.036,2.2072,2.4486,2.4294,0.0,2.4762,2.4849,2.4104,0.0,2.1025,1.9405,1.746,1.4489,1.3582,1.5624,1.2464,0.9162,0.6054,0.265,-0.0098,-0.2066,-0.3412,-0.4661,-0.6034,-0.7907,-0.9143,-0.9849,-1.0481,-1.0759,-1.0594,-0.8079,-0.6654,-0.5874,-0.4636,-0.2973,-0.1093,-0.1093,0.0897,0.4005,0.4704,0.5815,0.7132,0.8524,0.892,0.9312,1.1258,1.2328,1.3204,1.5242,1.5337,1.4949,1.5635,1.5732,1.5585,1.5438,1.5291,1.515,1.4997,1.4843,1.4656,1.4355,1.4182,1.4088,1.4088,1.4088,1.4088,1.4088,1.4088,1.4088,1.4088,1.4088,1.4088,1.4088,1.4088,1.4088,1.4088,1.4088,1.4088,1.4088,1.4088,1.4088,1.4088,1.4088,1.4088,1.4088,1.4088,1.4088,1.4088,1.4088,1.4088,1.4088,1.4088,1.4235,1.4522,1.4676,1.4983,3.0598,3.0467,3.0141,2.8671,2.6726,2.4805,2.3174,2.071,0.0,0.0,1.6229,1.5661,1.4943,1.6022,1.7282,0.0,1.9243,2.1189,2.4183,2.3833,2.375,0.0,2.5272,0.0,2.1167,1.9372,0.0,1.3578,0.9887,0.9409,1.3037,0.7046,0.2742,0.1264,-0.3545,-0.6954,-0.875,-1.074,-1.2426,-1.3848,-1.5944,-1.7041,-1.7048,-1.8435,-1.8362,-1.7041,-1.4969,-1.3162,-1.1662,-1.0363,-0.825,-0.5625,-0.5625,-0.3067,0.0897,0.219,0.3794,0.5318,0.6728,0.7332,0.7832,0.9106,1.0672,1.2237,1.437,1.4465,1.407,1.514,1.5439,1.5386,1.5451,1.5491,1.5431,1.5204,1.4923,1.4629,1.4335,1.4229,1.4162,1.4095,1.4088,1.4088,1.4088,1.4088,1.4088,1.4088,1.4088,1.4088,1.4088,1.4088,1.4088,1.4088,1.4088,1.4088,1.4088,1.4088,1.4088,1.4088,1.4088,1.4088,1.4088,1.3822,1.373,1.373,1.373,1.3763,1.3822,1.409,1.4362,1.4716,1.4943,1.5211,3.1218,3.1243,3.0893,2.9521,2.7242,2.5038,2.3639,0.0,1.8555,1.7733,1.6305,1.5313,1.577,1.5672,1.6218,1.8371,1.935,2.0804,2.3571,2.5239,2.5878,2.5013,0.0,0.0,1.9996,1.7294,1.474,1.2146,0.52,0.2226,0.4935,-0.117,-0.5661,-0.7625,-1.1568,-1.521,-1.8372,-1.8633,-1.9507,-2.0857,-2.2274,-2.2941,-2.2951,-2.4303,-2.4381,-2.3335,-2.1901,-2.0166,0.0,-1.6908,-1.4316,-1.1082,-1.1082,-0.7959,-0.3271,-0.1883,0.0199,0.2601,0.3912,0.512,0.6426,0.77,0.9866,1.1945,1.2237,1.3011,1.3872,1.407,1.407,1.4358,1.5501,1.5792,1.5785,1.5758,1.5524,1.5237,1.4943,1.4669,1.4402,1.4135,1.4088,1.4088,1.4088,1.4088,1.4088,1.4088,1.4088,1.4088,1.4088,1.4088,1.4088,1.4088,1.4088,1.4088,1.4088,1.4088,1.4088,1.4088,1.4088,1.4088,1.4088,1.3027,1.2498,1.2498,1.2498,1.2617,1.2943,1.3941,1.477,1.5317,1.5344,1.5511,3.1422,3.1706,3.1526,3.0349,2.7759,2.5234,2.4163,0.0,1.8173,1.8121,1.6713,1.5595,1.5846,1.6014,1.6564,1.7928,1.8451,1.9627,2.2393,2.319,2.3914,2.5042,2.5061,0.0,0.0,0.0,1.0473,0.1213,-0.6397,-1.0963,-1.1782,-1.1847,-1.3142,-1.6034,-2.0335,-2.3393,-2.5082,-2.6244,-2.7493,-2.8712,-2.9552,-3.0158,-3.0527,-3.1043,-3.0622,-2.9361,-2.748,-2.5689,0.0,-2.2225,-2.0149,-1.7877,-1.5899,-1.2892,-0.9224,-0.5706,-0.317,-0.1292,0.0897,0.2498,0.3703,0.4194,0.6174,0.8754,1.1146,1.175,1.1745,1.2522,1.2716,1.3006,1.4364,1.5242,1.5785,1.5611,1.5478,1.5317,1.5023,1.487,1.4696,1.4402,1.4349,1.4295,1.4115,1.4088,1.4088,1.4088,1.4088,1.4088,1.4088,1.4242,1.4282,1.4108,1.4088,1.4088,1.4088,1.4088,1.4088,1.4088,1.4088,1.4088,1.4088,1.3646,1.3379,1.3379,1.3544,1.3684,1.3798,1.4513,1.4997,1.5398,1.5398,1.5551,3.0875,3.1506,3.1566,3.031,2.7929,2.5503,0.0,2.0767,1.8071,1.8053,1.6861,1.5799,1.5799,1.6293,1.6936,1.7578,1.8219,1.9479,2.1968,2.2566,2.3519,0.0,0.0,2.3166,0.0,1.2013,0.2184,-1.0078,-1.6958,-2.2232,-2.5975,-2.3925,-2.3219,-2.4649,-2.8585,-3.12,-3.2272,-3.3562,-3.4639,-3.5492,-3.5816,-3.6245,-3.662,-3.662,-3.5959,-3.4741,-3.2941,-3.1271,0.0,-2.7645,-2.5904,-2.4132,-2.1437,-1.8564,-1.5477,-1.0882,-0.8179,-0.6274,-0.297,-0.0895,0.0299,0.0699,0.2593,0.5379,0.815,0.9166,0.969,1.097,1.1658,1.2139,1.3102,1.4268,1.5197,1.4997,1.4946,1.4968,1.506,1.4805,1.454,1.4615,1.4649,1.4583,1.4382,1.4349,1.4349,1.4349,1.4349,1.4349,1.4349,1.4522,1.4576,1.4369,1.4349,1.4275,1.4102,1.4088,1.4088,1.4088,1.4088,1.4088,1.4088,1.3815,1.3683,1.3683,1.3967,1.4153,1.4237,1.481,1.5244,1.5524,1.5524,1.5631,2.9468,3.0377,3.0863,2.8983,2.7488,2.5737,2.2862,2.0394,1.8428,1.7514,1.6512,1.5799,1.5799,1.6293,1.6936,1.7578,1.915,2.0926,2.2829,2.4492,0.0,0.0,0.0,2.3041,1.6291,0.1456,-1.1257,-1.9799,-2.4554,0.0,-3.489,-3.7318,-3.7016,-3.3677,-3.6071,-3.8434,-4.0543,-4.0473,-4.0491,-4.0616,-4.0491,-4.0442,-4.0442,-4.0442,-3.9937,-3.8995,-3.8639,-3.7316,0.0,-3.3572,-3.1555,-2.9327,-2.7931,-2.5297,-2.1749,-1.8049,-1.5255,-1.2626,-0.7693,-0.5068,-0.3669,-0.2395,-0.01,0.2,0.2099,0.4889,0.8287,0.9596,1.0974,1.1945,1.1945,1.2915,1.3872,1.3968,1.3968,1.4189,1.5166,1.4341,1.3692,1.483,1.4957,1.4957,1.4957,1.4957,1.4957,1.4957,1.4957,1.4957,1.4957,1.4957,1.4957,1.4957,1.4957,1.4716,1.4135,1.4088,1.4088,1.4088,1.4088,1.4088,1.4088,1.3287,1.2797,1.2797,1.3069,1.3336,1.3695,1.4823,1.5538,1.5825,1.5825,1.5825,2.7772,2.8241,2.8116,2.6578,2.5212,2.3781,2.2063,2.0001,1.8346,1.7824,1.6681,1.5799,1.5799,1.5978,1.6864,1.9288,2.0135,2.1437,2.4026,0.0,0.0,2.5967,1.8771,1.0937,0.0,0.0,-1.9862,-2.609,-3.1668,-3.6549,-4.0621,-4.1968,-4.1625,-3.9444,-4.0672,-4.192,-4.2998,-4.2584,-4.2754,-4.3573,-4.3175,-4.316,-4.3523,-4.3523,-4.281,-4.1549,-4.1447,-4.0471,-3.8837,-3.7411,-3.6371,-3.5361,-3.1506,-2.9282,-2.7718,-2.2509,-1.9652,-1.7788,-1.3794,-1.1029,-0.8949,-0.6758,-0.4883,-0.3086,-0.1298,0.2697,0.6918,0.8226,0.9608,1.0583,1.0583,1.1556,1.2528,1.2528,1.3199,1.3759,1.3109,1.4052,1.4835,1.4075,1.4688,1.5197,1.4997,1.4963,1.4963,1.4963,1.4963,1.4963,1.4963,1.5137,1.5184,1.4983,1.5137,1.5023,1.4436,1.4382,1.4302,1.4095,1.4275,1.4382,1.4382,1.4298,1.4269,1.4269,1.4553,1.4739,1.483,1.5404,1.5738,1.5832,1.5832,1.5832,2.5439,2.6056,2.5858,2.474,2.3616,2.2406,2.1072,1.9311,1.7905,1.7545,1.669,1.5955,1.5827,1.6209,1.7265,1.9405,2.0226,2.1423,0.0,0.0,0.0,2.7172,0.0,0.0,0.0,-1.6388,-2.7642,-3.281,-3.777,-4.1616,-4.3982,-4.4511,-4.4355,-4.3506,-4.3871,-4.4312,-4.4746,-4.4327,-4.4498,-4.5239,-4.4851,-4.4846,-4.516,-4.5219,-4.4746,-4.3866,-4.3748,-4.3179,0.0,-4.0727,-4.0116,-3.9695,-3.5911,-3.4091,-3.2962,-2.8036,-2.5363,-2.3597,-1.8966,-1.6373,-1.4558,-1.1221,-0.8645,-0.6278,-0.3586,0.0598,0.4812,0.6121,0.7419,0.851,0.851,0.9788,1.117,1.117,1.1843,1.2328,1.1945,1.2818,1.3448,1.2908,1.3926,1.4733,1.4654,1.5002,1.5291,1.5291,1.5291,1.5291,1.5291,1.5444,1.5491,1.5311,1.5451,1.5364,1.489,1.475,1.4609,1.4429,1.4589,1.4689,1.4689,1.497,1.5124,1.5124,1.5411,1.5558,1.5558,1.5745,1.5832,1.5832,1.5832,1.5832,0.0,2.3664,2.3803,2.317,2.2381,2.1366,1.9941,1.8432,0.0,1.6881,1.6554,1.625,1.5976,1.6977,1.8019,1.8639,1.9925,2.1421,0.0,2.4741,0.0,0.0,1.4247,0.0,-0.2615,-2.0963,-3.4584,-3.9452,-4.2681,-4.4686,-4.5272,-4.5274,-4.5434,-4.5804,-4.566,-4.5629,-4.5763,-4.5651,-4.5651,-4.5763,-4.5675,-4.5624,-4.5624,-4.5751,-4.5792,0.0,-4.5541,-4.5355,-4.5122,-4.3561,-4.2802,-4.2518,-4.0866,-3.9286,-3.7604,-3.4182,-3.1974,-2.9731,-2.3454,-2.1151,-2.0088,-1.5465,-1.1468,-0.7868,-0.5158,-0.149,0.2,0.341,0.4718,0.5724,0.5929,0.7816,0.9702,0.9801,0.9899,1.0293,1.1361,1.0877,1.0485,1.1556,1.2909,1.3878,1.3878,1.4949,1.5832,1.5832,1.5832,1.5832,1.5832,1.5832,1.5832,1.5832,1.5832,1.5718,1.5451,1.5164,1.4983,1.4963,1.4983,1.4997,1.4997,1.5277,1.5431,1.5431,1.5691,1.5832,1.5832,1.5832,1.5832,1.5832,1.5832,1.5832,1.8691,0.0,1.9762,1.9309,1.9337,1.9307,0.0,1.8334,1.7902,0.0,0.0,1.6804,1.7196,1.7599,1.8812,2.1598,2.3177,2.4647,2.6421,0.0,0.0,1.3594,0.4953,-0.5395,-1.9156,-3.1727,-3.9837,-4.1829,-4.3609,-4.4859,-4.5347,-4.5025,-4.4882,-4.4978,-4.5143,-4.5317,-4.5498,-4.5453,-4.5453,-4.5498,-4.5729,-4.5832,-4.5839,-4.5858,-4.5855,-4.579,-4.5795,-4.5748,-4.5621,-4.5017,-4.4728,-4.4481,-4.2746,-4.1615,-4.0627,-3.7593,-3.5226,-3.2924,-2.925,-2.6064,-2.2627,-1.7091,-1.3975,-1.1748,-0.8146,-0.4283,-0.06,0.18,0.2702,0.3403,0.5422,0.6426,0.7223,0.823,0.9217,0.9805,0.9118,1.0288,1.1263,1.0583,1.2328,1.3878,1.3878,1.4949,1.5832,1.5832,1.5832,1.5832,1.5832,1.5832,1.5832,1.5832,1.5832,1.5798,1.5732,1.5464,1.5204,1.4977,1.517,1.5297,1.5297,1.5571,1.5732,1.5732,1.5792,1.5832,1.5832,1.5832,1.5832,1.5832,1.5832,1.5832,1.6344,1.7811,1.9156,1.8851,1.9158,1.945,1.9125,0.0,0.0,0.0,0.0,1.7187,1.7708,1.8379,1.9844,2.2841,2.4163,0.0,0.0,0.0,0.0,1.3885,0.0958,-1.1457,0.0,-3.512,-4.2563,-4.3209,-4.4145,-4.4805,-4.5035,-4.4615,-4.4455,-4.4645,-4.4478,-4.4649,-4.5257,-4.541,-4.5495,-4.5495,-4.5673,-4.5764,-4.5764,-4.5836,-4.5833,-4.5799,-4.5874,-4.5866,-4.58,-4.5679,-4.5587,-4.5421,-4.4322,-4.3563,-4.2815,-4.0535,-3.8572,-3.6662,-3.3731,-2.9619,-2.4984,-2.1011,-1.8131,-1.5678,-1.2502,-0.9575,-0.6522,-0.1994,-0.03,0.06,0.2703,0.3707,0.451,0.5819,0.6714,0.7006,0.6321,0.7806,0.8992,0.8308,1.0271,1.2129,1.2129,1.3204,1.4178,1.4854,1.4949,1.514,1.573,1.5832,1.5832,1.5832,1.5832,1.5832,1.5832,1.5685,1.5524,1.5371,1.5504,1.5591,1.5591,1.5745,1.5832,1.5832,1.5832,1.5832,1.5832,1.5832,1.5832,1.5832,1.5832,1.5832,1.5419,1.787,2.0223,1.9717,2.0052,2.0457,2.0263,0.0,0.0,0.0,0.0,0.0,0.0,1.9617,0.0,0.0,0.0,0.0,3.1791,3.0172,2.5544,1.7553,-0.131,0.0,-2.3106,-3.5588,-4.3373,-4.3651,-4.4147,-4.4405,-4.4252,-4.4039,-4.3998,-4.4177,-4.3786,-4.3986,-4.4815,-4.5163,-4.5362,-4.5362,-4.5419,-4.5438,-4.5457,-4.5623,-4.5694,-4.5708,-4.582,-4.5846,-4.5811,-4.5863,-4.5859,-4.5769,-4.5503,-4.504,-4.4359,-4.2884,-4.1615,-4.0089,-3.6614,-3.2221,-2.7762,-2.5409,-2.2514,-1.9477,-1.7043,-1.5389,-1.3171,-0.7156,-0.4294,-0.2498,-0.08,0.05,0.18,0.3309,0.3712,0.3712,0.3915,0.492,0.5727,0.5929,0.8011,0.9797,0.9998,1.1072,1.2334,1.368,1.3878,1.4364,1.5635,1.5832,1.5832,1.5832,1.5832,1.5832,1.5832,1.5832,1.5927,1.6109,1.592,1.5832,1.5832,1.5832,1.5832,1.5832,1.5832,1.5832,1.5832,1.5832,1.5832,1.5832,1.5832,1.5832,1.6889,1.9334,2.1001,1.9152,1.9649,2.0631,2.0741,0.0,0.0,0.0,0.0,0.0,0.0,0.0,0.0,0.0,0.0,3.2094,0.0,0.0,1.91,0.5879,0.0,-2.0158,-3.3697,-3.9143,-4.2045,-4.2523,-4.3106,-4.321,-4.2668,-4.3226,-4.3177,-4.2257,-4.333,-4.3775,-4.3467,-4.3983,-4.4243,-4.4243,-4.4587,-4.4757,-4.4757,-4.5058,-4.5204,-4.5245,-4.5641,-4.5808,-4.5805,-4.5869,-4.5864,-4.5805,-4.5817,-4.5546,-4.5076,-4.4322,-4.3146,-4.1189,-3.6294,-3.3652,-3.1804,-2.7313,-2.4826,-2.2962,-1.9647,-1.7827,-1.6292,-1.3166,-0.9803,-0.6283,-0.2598,-0.15,-0.0799,0.17,0.2301,0.2602,0.3712,0.4116,0.462,0.5827,0.7208,0.8689,0.9797,1.1072,1.2334,1.368,1.3878,1.4364,1.5635,1.5832,1.5832,1.5832,1.5832,1.5832,1.5832,1.5832,1.6298,1.7318,1.6386,1.5832,1.5832,1.5832,1.5832,1.5832,1.5832,1.5832,1.5832,1.5832,1.5832,1.5832,1.5832,1.5832,1.5959,1.8494,2.064,1.9615,2.1601,2.36,2.294,0.0,0.0,0.0,0.0,0.0,0.0,0.0,0.0,0.0,0.0,3.3834,2.8264,2.3142,1.3163,0.0,0.0,-3.0493,-3.857,-4.076,-4.1878,-4.2474,-4.2474,-4.2456,-4.2513,-4.2867,-4.2846,-4.2302,-4.3248,-4.359,-4.3351,-4.3609,-4.3943,-4.4337,-4.4501,-4.458,-4.4624,-4.4757,-4.4825,-4.4853,-4.5246,-4.5433,-4.5432,-4.5732,-4.5832,-4.581,-4.582,-4.5762,-4.5518,-4.4701,-4.3724,-4.2359,-3.88,-3.6982,-3.5493,-3.1441,-2.9401,-2.7854,-2.4106,-2.216,-2.0625,-1.7583,-1.3986,-1.0197,-0.627,-0.5289,-0.4589,-0.19,-0.12,-0.0901,0.0502,0.1904,0.3307,0.4618,0.6617,0.8216,0.8821,0.941,1.0288,1.1551,1.1741,1.2517,1.4561,1.4752,1.5045,1.573,1.5832,1.5832,1.5832,1.5832,1.6015,1.6669,1.6756,1.648,1.5832,1.5832,1.5832,1.5832,1.5832,1.5832,1.5832,1.5832,1.5832,1.5832,1.5832,1.5832,1.5352,1.781,2.0256,2.0405,2.3304,2.5901,2.5078,0.0,0.0,0.0,0.0,0.0,0.0,0.0,0.0,0.0,3.5212,3.4596,2.4276,1.822,0.7381,-1.269,-2.8042,-3.7918,-4.0463,-4.115,-4.1639,-4.2244,-4.1853,-4.181,-4.2244,-4.2537,-4.2519,-4.2098,-4.2995,-4.3356,-4.3105,-4.3356,-4.3791,-4.4337,-4.4337,-4.4337,-4.4337,-4.4419,-4.4474,-4.4474,-4.483,-4.4966,-4.5011,-4.5449,-4.565,-4.5641,-4.5763,-4.5847,-4.5795,-4.4929,-4.414,-4.3237,-4.1355,-3.9846,-3.8236,-3.5354,-3.3518,-3.1774,-2.8479,-2.645,-2.4524,-2.13,-1.8214,-1.4954,-1.0493,-0.8867,-0.7892,-0.5508,-0.4714,-0.4117,-0.2715,-0.0602,0.1502,0.2807,0.5216,0.7132,0.7434,0.7839,0.8432,0.9801,0.9998,1.0872,1.3102,1.3686,1.4262,1.5242,1.5635,1.5832,1.5832,1.6109,1.6109,1.5825,1.6756,1.685,1.5825,1.5832,1.5832,1.5832,1.5832,1.5832,1.5832,1.5832,1.5832,1.5832,1.5832,1.5832,1.679,1.8762,2.048,2.1296,2.3223,0.0,2.6116,2.5846,0.0,0.0,0.0,0.0,0.0,0.0,0.0,3.3334,3.6583,3.5098,2.3592,0.0,0.1707,-1.3341,-2.6516,-3.5888,-3.9783,-4.0221,-4.0466,-4.0995,-4.0995,-4.0995,-4.1041,-4.208,-4.1955,-4.0353,-4.2386,-4.2977,-4.1919,-4.2977,-4.3513,-4.3582,-4.3582,-4.3582,-4.3597,-4.3912,-4.4028,-4.4076,-4.4455,-4.465,-4.4657,-4.5011,-4.5161,-4.5204,-4.5641,-4.5831,-4.5858,-4.5402,-4.4655,-4.367,-4.2322,-4.0911,-3.9412,-3.756,-3.5354,-3.3143,-3.1998,-2.9768,-2.7128,-2.4702,-2.3176,-2.0944,-1.4967,-1.1604,-0.9493,-0.8089,-0.681,-0.5525,-0.4117,-0.2712,-0.1306,0.0,0.2405,0.4718,0.5929,0.7132,0.8432,0.9801,0.9998,1.0485,1.1848,1.3102,1.3974,1.407,1.5051,1.5832,1.5832,1.685,1.7037,1.5825,1.592,1.592,1.5832,1.5832,1.5832,1.5832,1.5832,1.5832,1.5832,1.5832,1.5832,1.5832,1.5832,1.5832,1.5484,1.8153,2.0688,2.0761,0.0,0.0,0.0,0.0,0.0,0.0,0.0,0.0,0.0,0.0,3.358,3.4449,3.7205,3.3033,1.5365,0.4964,-0.7061,-2.3728,-3.1511,-3.666,-3.9614,-4.0014,-4.0466,-4.1402,-4.0797,-4.0528,-4.0856,-4.1664,-4.1853,-4.1168,-4.2364,-4.2958,-4.2865,-4.2958,-4.3178,-4.3497,-4.3497,-4.3497,-4.3479,-4.3612,-4.3693,-4.3693,-4.4076,-4.4233,-4.4261,-4.4631,-4.48,-4.4853,-4.5302,-4.5504,-4.5541,-4.5644,-4.5285,-4.4636,-4.3555,-4.2626,-4.1624,-3.9884,-3.8418,-3.7074,-3.5182,-3.31,-3.0838,-2.83,-2.6321,-2.3588,-1.7621,-1.4829,-1.3233,-1.1956,-1.0045,-0.8107,-0.6799,-0.48,-0.2601,-0.0401,0.1502,0.3406,0.5625,0.6431,0.7229,0.8524,0.8726,0.9217,1.0583,1.1848,1.3011,1.3782,1.5045,1.5832,1.5832,1.6197,1.6292,1.5832,1.6574,1.6669,1.5832,1.5832,1.5832,1.5832,1.5832,1.5832,1.5832,1.5832,1.5832,1.5832,1.5832,1.5832,1.5068,1.782,2.0565,0.0,0.0,0.0,0.0,0.0,0.0,0.0,0.0,0.0,0.0,0.0,0.0,0.0,3.8093,3.1771,1.0369,0.0314,-1.1673,-3.0013,-3.3867,-3.6094,-3.8926,-3.9103,-3.9569,-4.0709,-3.9937,-3.9637,-4.0193,-4.0596,-4.0727,-4.0587,-4.154,-4.2258,-4.2596,-4.2681,-4.2976,-4.3497,-4.3497,-4.3497,-4.3497,-4.3497,-4.3497,-4.3513,-4.3758,-4.3849,-4.3881,-4.4252,-4.4501,-4.4657,-4.5069,-4.5264,-4.5343,-4.569,-4.5595,-4.5201,-4.4518,-4.3864,-4.3128,-4.185,-4.0756,-3.9614,-3.7832,-3.5738,-3.3595,-3.1406,-2.906,-2.6161,-2.1919,-1.8806,-1.6399,-1.4735,-1.2753,-1.0747,-0.8981,-0.6883,-0.4591,-0.2301,-0.05,0.15,0.3707,0.4812,0.5817,0.7132,0.7739,0.8333,0.9217,1.0877,1.2528,1.4268,1.4949,1.5343,1.5737,1.5832,1.5832,1.5832,1.6574,1.6669,1.5825,1.5832,1.5832,1.5832,1.5832,1.5832,1.5832,1.5832,1.5832,1.5832,1.5832,1.5832,1.6023,1.7972,2.0065,0.0,0.0,0.0,0.0,0.0,0.0,0.0,0.0,3.5202,3.6417,0.0,0.0,3.9285,3.9468,3.1793,1.033,0.071,-1.1126,-2.9952,-3.2085,-3.3531,-3.7483,-3.7203,-3.73,-3.8589,-3.8213,-3.812,-3.8651,-3.8695,-3.8463,-3.7889,-3.9704,-4.0707,-4.0707,-4.2027,-4.2958,-4.3479,-4.3479,-4.3497,-4.3497,-4.3497,-4.3497,-4.3497,-4.3497,-4.3497,-4.3513,-4.3849,-4.4252,-4.4606,-4.4943,-4.5168,-4.5329,-4.5528,-4.5463,-4.5258,-4.513,-4.4496,-4.362,-4.3299,-4.188,-4.0256,-3.9897,-3.7657,-3.4986,-3.3833,-3.1581,-2.9272,-2.8234,-2.3632,-1.8691,-1.6334,-1.4747,-1.3121,-1.0569,-0.8989,-0.7598,-0.6323,-0.3906,-0.16,-0.03,0.2196,0.4395,0.5824,0.7135,0.8038,0.8038,1.0288,1.2915,1.554,1.4657,1.4459,1.573,1.5832,1.5832,1.5832,1.5832,1.5832,1.5832,1.5832,1.5832,1.5832,1.5832,1.5832,1.5832,1.5832,1.5832,1.5832,1.5832,1.5832,1.5468,1.8066,0.0,0.0,0.0,0.0,0.0,0.0,0.0,0.0,0.0,3.7608,3.8238,0.0,0.0,3.7941,3.8373,3.1178,0.9718,-0.8621,-2.2027,-2.8052,-3.1232,-3.3424,-3.4643,-3.5997,-3.6987,-3.7366,-3.7677,-3.7984,-3.8138,-3.8508,-3.8607,-3.8463,-3.899,-3.9647,-4.0414,-4.0989,-4.1751,-4.2653,-4.2832,-4.3124,-4.3497,-4.3497,-4.3497,-4.3497,-4.3497,-4.3497,-4.3479,-4.3195,-4.3387,-4.3836,-4.3763,-4.4195,-4.4832,-4.5255,-4.5112,-4.4707,-4.4428,-4.3738,-4.2933,-4.2495,-4.1917,-4.1225,-4.0182,-3.9205,-3.7938,-3.5407,-3.4141,-3.2973,-3.0708,-2.83,-2.5497,-2.172,-1.9192,-1.697,-1.4551,-1.225,-1.0015,-0.7789,-0.6009,-0.4109,-0.18,0.0,0.1999,0.4296,0.5715,0.7621,1.0382,1.1458,1.2915,1.554,1.5439,1.5439,1.5737,1.5832,1.5832,1.5832,1.5832,1.5832,1.5832,1.5832,1.5832,1.5832,1.5832,1.5832,1.5832,1.5832,1.5832,1.5832,1.5832,1.5832,1.6373,1.9154,0.0,0.0,0.0,0.0,0.0,0.0,0.0,0.0,0.0,3.8553,3.9463,3.9016,0.0,3.8824,3.8122,3.0318,0.9535,-1.2903,-2.7164,-2.7315,-3.0437,-3.265,-3.2951,-3.453,-3.5524,-3.5524,-3.6451,-3.6899,-3.6611,-3.7121,-3.7463,-3.7463,-3.7772,-3.8372,-3.921,-3.967,-4.0344,-4.1216,-4.1389,-4.1661,-4.196,-4.2231,-4.2376,-4.2376,-4.2613,-4.301,-4.3479,-4.3142,-4.3214,-4.3477,-4.3148,-4.3379,-4.3909,-4.4149,-4.4026,-4.3734,-4.3709,-4.3327,-4.2802,-4.241,-4.2077,-4.1625,-4.0546,-3.9659,-3.8636,-3.6694,-3.5262,-3.3938,-3.2298,-3.0842,-2.8756,-2.4525,-2.2138,-1.9822,-1.6441,-1.4456,-1.2432,-0.9371,-0.8107,-0.6711,-0.4005,-0.2001,-0.01,0.2097,0.4508,0.7217,1.0676,1.117,1.2139,1.4758,1.5045,1.5242,1.573,1.5832,1.5832,1.5832,1.5832,1.5832,1.5832,1.5832,1.5832,1.5832,1.5832,1.5832,1.5832,1.5832,1.5832,1.5832,1.5832,1.5832,1.7874,0.0,0.0,0.0,0.0,0.0,0.0,0.0,0.0,0.0,0.0,3.8403,3.9953,3.9647,3.9479,4.0575,3.6747,2.7284,0.898,-1.3299,-2.7629,-2.7236,-2.9529,-3.1342,-3.205,-3.2982,-3.3495,-3.3495,-3.4752,-3.5253,-3.4624,-3.5253,-3.5622,-3.5622,-3.6299,-3.6939,-3.748,-3.8209,-3.8874,-3.9483,-3.9496,-3.9532,-3.9549,-4.0258,-4.0618,-4.0618,-4.1133,-4.2032,-4.3137,-4.3101,-4.3137,-4.3167,-4.268,-4.2579,-4.2679,-4.2591,-4.2535,-4.2563,-4.2947,-4.3003,-4.2839,-4.2594,-4.2123,-4.1525,-4.0837,-3.9476,-3.8061,-3.7611,-3.5546,-3.3351,-3.326,-3.1829,-2.9507,-2.5761,-2.4114,-2.2058,-1.7357,-1.6081,-1.4766,-1.1244,-1.0288,-0.9205,-0.6822,-0.4105,-0.18,-0.01,0.3507,0.6921,0.9698,1.0096,1.1161,1.3584,1.3974,1.4555,1.573,1.5832,1.5832,1.5832,1.5832,1.5832,1.5832,1.5832,1.5832,1.5832,1.5832,1.5832,1.5832,1.5832,1.5832,1.5832,1.5832,1.5832,0.0,1.8929,0.0,0.0,0.0,0.0,0.0,0.0,0.0,0.0,3.7507,3.8201,3.8412,3.8094,3.7663,3.729,2.3716,1.0801,0.3823,-1.3407,-2.5569,-2.6451,-2.8306,-2.9832,-3.0675,-3.1957,-3.2788,-3.2788,-3.4037,-3.4736,-3.4624,-3.5253,-3.5622,-3.5622,-3.5774,-3.611,-3.6658,-3.7446,-3.8105,-3.8646,-3.8824,-3.8893,-3.8893,-3.9529,-3.982,-3.986,-3.9979,-4.0146,-4.0402,-3.9929,-4.0232,-4.0926,-4.0417,-4.0896,-4.1885,-4.2121,-4.2008,-4.1793,-4.213,-4.1797,-4.1201,-4.1145,-4.1251,-4.1241,-4.0393,-4.0125,-3.9732,-3.798,-3.6637,-3.5454,-3.4477,-3.3328,-3.182,-2.9353,-2.727,-2.4967,-2.2058,-1.9159,-1.6607,-1.4855,-1.2012,-0.9801,-0.9205,-0.691,-0.3604,0.09,0.4109,0.6921,0.9698,1.0877,1.2139,1.368,1.4752,1.5534,1.5737,1.5832,1.5832,1.5832,1.5832,1.5832,1.5832,1.5832,1.5832,1.5832,1.5832,1.5832,1.5832,1.5832,1.5832,1.5832,1.5832,1.5832,0.0,0.0,0.0,0.0,0.0,0.0,0.0,0.0,0.0,0.0,3.6046,3.7192,3.7357,3.6373,3.5679,3.6094,1.9674,0.3219,-0.7477,-1.8797,-2.5913,-2.5624,-2.8251,-3.0136,-3.0269,-3.1721,-3.2437,-3.212,-3.3323,-3.4137,-3.4137,-3.4752,-3.5253,-3.5577,-3.5622,-3.5739,-3.6011,-3.6431,-3.6793,-3.7047,-3.7145,-3.7202,-3.7264,-3.7932,-3.8388,-3.8643,-3.8643,-3.8994,-3.9589,-3.9271,-3.9593,-4.0221,-3.9568,-3.9908,-4.0807,-4.0879,-4.0767,-4.0672,-4.1177,-4.1085,-4.0701,-4.0695,-4.0839,-4.0893,-4.0246,-3.9925,-3.9465,-3.7962,-3.6761,-3.563,-3.4409,-3.3332,-3.2362,-3.1277,-2.9423,-2.7001,-2.3735,-2.152,-1.9249,-1.6268,-1.4106,-1.2104,-1.0284,-0.7816,-0.441,0.03,0.2802,0.5007,0.7713,0.9788,1.1458,1.2813,1.4076,1.514,1.573,1.5832,1.5832,1.5832,1.5832,1.5832,1.5832,1.5832,1.5832,1.5832,1.5832,1.5832,1.5832,1.5832,1.5832,1.5832,1.5832,1.5832,0.0,0.0,0.0,0.0,0.0,0.0,0.0,0.0,0.0,0.0,3.4167,3.551,3.5931,3.413,3.3092,3.4625,1.872,-0.008,-1.787,-2.4022,-2.6186,-2.5069,-2.8387,-3.0646,-3.0315,-3.1564,-3.2176,-3.1539,-3.2718,-3.3495,-3.3582,-3.4235,-3.4894,-3.5577,-3.5622,-3.5622,-3.5622,-3.5622,-3.5622,-3.5622,-3.5622,-3.5622,-3.5639,-3.6282,-3.6836,-3.7249,-3.7249,-3.7892,-3.8924,-3.8924,-3.9203,-3.9551,-3.9014,-3.9077,-3.9551,-3.9526,-3.9552,-3.9694,-4.038,-4.0643,-4.0698,-4.0691,-4.0692,-4.0623,-4.023,-3.9554,-3.8765,-3.7968,-3.6644,-3.5262,-3.4055,-3.3006,-3.2318,-3.2159,-3.1058,-2.9033,-2.5007,-2.3564,-2.1803,-1.7719,-1.6268,-1.4481,-1.0672,-0.8011,-0.501,-0.0901,0.08,0.2702,0.5625,0.811,1.0186,1.175,1.3102,1.4459,1.573,1.5832,1.5832,1.5832,1.5832,1.5832,1.5832,1.5832,1.5832,1.5832,1.5832,1.5832,1.5832,1.5832,1.5832,1.5832,1.5832,1.5832,0.0,0.0,0.0,0.0,0.0,0.0,0.0,0.0,0.0,0.0,3.2581,3.2916,3.277,3.0635,2.8957,2.9168,1.4627,-0.2076,-1.732,-2.1375,-2.3407,-2.5299,-2.731,-2.9082,-3.0211,-3.1131,-3.1582,-3.1539,-3.2272,-3.2986,-3.3598,-3.4235,-3.4894,-3.5577,-3.5622,-3.5622,-3.5622,-3.5622,-3.5622,-3.5622,-3.5622,-3.5622,-3.5622,-3.5723,-3.5802,-3.5892,-3.5892,-3.5987,-3.6144,-3.6144,-3.6431,-3.694,-3.7329,-3.7739,-3.8259,-3.8924,-3.9339,-3.9652,-4.0125,-4.0461,-4.0698,-4.0691,-4.0692,-4.0623,-4.023,-3.9819,-3.9333,-3.8527,-3.7184,-3.5728,-3.4518,-3.3741,-3.3115,-3.2285,-3.2359,-3.1903,-2.9212,-2.5683,-2.2805,-2.2164,-1.8629,-1.4481,-1.0672,-0.8696,-0.6391,-0.2298,-0.06,0.1702,0.5522,0.7307,0.9178,1.1648,1.3102,1.4459,1.573,1.5832,1.5832,1.5832,1.5832,1.5832,1.5832,1.5832,1.5832,1.5832,1.5832,1.5832,1.5832,1.5832,1.5832,1.5832,1.5832,1.5832,0.0,0.0,0.0,0.0,0.0,0.0,0.0,0.0,0.0,2.9863,2.9107,2.8734,2.991,2.7891,2.6021,2.6133,1.2529,-0.2852,-1.6646,-2.0078,-2.2002,-2.4032,-2.5894,-2.7448,-2.8556,-2.9305,-2.9737,-2.9737,-3.0814,-3.1728,-3.2458,-3.3476,-3.4333,-3.5005,-3.5407,-3.5622,-3.5622,-3.5622,-3.5622,-3.5622,-3.5622,-3.5622,-3.5622,-3.5622,-3.5622,-3.5622,-3.5622,-3.5622,-3.5605,-3.5941,-3.6182,-3.6498,-3.7285,-3.772,-3.7995,-3.8783,-3.9314,-3.9649,-4.0024,-4.041,-4.0744,-4.0715,-4.0738,-4.0722,-4.0491,-4.0192,-3.9716,-3.8867,-3.7816,-3.6608,-3.5267,-3.425,-3.349,-3.333,-3.2915,-3.262,-3.2821,-2.9606,-2.5733,-2.2544,-1.853,-1.4968,-1.2608,-1.0467,-0.8287,-0.5787,-0.2896,0.01,0.3303,0.5608,0.7902,1.0578,1.2037,1.3301,1.4657,1.5439,1.5832,1.5832,1.5832,1.5832,1.5832,1.5832,1.5832,1.5832,1.5832,1.5832,1.5832,1.5832,1.5832,1.5832,1.5832,1.5832,0.0,0.0,0.0,0.0,0.0,0.0,0.0,0.0,0.0,0.0,2.6303,2.5292,2.6397,2.4829,2.3493,2.4041,1.1358,-0.297,-1.5496,-1.8967,-2.0877,-2.2581,-2.4621,-2.6189,-2.6914,-2.7867,-2.8396,-2.8396,-2.9566,-3.0582,-3.13,-3.2428,-3.3354,-3.4049,-3.47,-3.5148,-3.5334,-3.552,-3.5622,-3.5622,-3.5622,-3.5622,-3.5622,-3.5622,-3.5622,-3.5622,-3.5622,-3.5622,-3.5622,-3.6011,-3.6266,-3.6498,-3.7396,-3.779,-3.7995,-3.8783,-3.9314,-3.9645,-3.9982,-4.0395,-4.0777,-4.0716,-4.072,-4.0777,-4.0721,-4.0427,-3.9944,-3.922,-3.8427,-3.7467,-3.599,-3.4665,-3.3793,-3.3968,-3.3246,-3.2759,-3.3739,-3.1435,-2.7608,-2.2602,-1.8902,-1.6202,-1.462,-1.2512,-1.0271,-0.8283,-0.5187,-0.1797,0.1599,0.4009,0.6617,0.9698,1.117,1.2431,1.3776,1.5045,1.5832,1.5832,1.5832,1.5832,1.5832,1.5832,1.5832,1.5832,1.5832,1.5832,1.5832,1.5832,1.5832,1.5832,1.5832,1.5832,0.0,0.0,0.0,0.0,0.0,0.0,0.0,0.0,0.0,0.0,2.5514,2.3843,2.1603,2.09,2.1133,2.2659,1.081,-0.2545,-1.3807,-1.7624,-1.9801,-2.1351,-2.3692,-2.5495,-2.6078,-2.7519,-2.8396,-2.8396,-2.9167,-2.997,-3.0623,-3.1274,-3.1932,-3.2611,-3.3192,-3.3846,-3.4539,-3.5267,-3.5622,-3.5622,-3.5622,-3.5622,-3.5622,-3.5622,-3.5622,-3.5622,-3.5622,-3.5622,-3.5622,-3.5622,-3.5941,-3.6457,-3.702,-3.7506,-3.7995,-3.8783,-3.9314,-3.9645,-3.9982,-4.038,-4.0701,-4.07,-4.0703,-4.0696,-4.0703,-4.0427,-4.0022,-3.9668,-3.8987,-3.8008,-3.6449,-3.5172,-3.4153,-3.3678,-3.3482,-3.278,-3.0316,-2.8872,-2.7013,-2.3553,-2.0971,-1.8548,-1.6001,-1.4518,-1.2399,-0.8576,-0.6778,-0.3882,0.1298,0.3207,0.561,0.96,1.117,1.2431,1.3776,1.5045,1.5832,1.5832,1.5832,1.5832,1.5832,1.5832,1.5832,1.5832,1.5832,1.5832,1.5832,1.5832,1.5832,1.5832,1.5832,1.5832,0.0,0.0,0.0,0.0,0.0,0.0,0.0,0.0,2.3048,2.4351,2.2762,2.0721,1.9539,1.9852,2.0172,1.9778,1.0347,-0.1238,-1.3477,-1.6367,-1.8135,-2.0597,-2.2615,-2.3961,-2.4179,-2.5561,-2.6483,-2.6483,-2.8013,-2.9042,-2.9325,-3.0712,-3.1614,-3.1866,-3.2867,-3.3541,-3.3795,-3.4539,-3.4895,-3.4895,-3.5385,-3.5622,-3.5622,-3.5622,-3.5622,-3.5622,-3.5622,-3.5622,-3.5622,-3.5985,-3.6224,-3.6498,-3.7305,-3.7755,-3.7995,-3.8783,-3.9314,-3.9645,-3.9982,-4.0364,-4.0718,-4.075,-4.0734,-4.0706,-4.0746,-4.0572,-4.025,-3.9735,-3.9133,-3.8387,-3.7145,-3.5899,-3.4767,-3.3771,-3.3269,-3.2842,-3.2013,-2.9742,-2.7094,-2.4535,-2.1557,-1.894,-1.7274,-1.5292,-1.3091,-1.0849,-0.7963,-0.4682,-0.0999,0.2103,0.5211,0.8393,1.0663,1.2042,1.2624,1.4561,1.5439,1.4657,1.5343,1.5832,1.5832,1.5832,1.5439,1.4561,1.5343,1.5832,1.5832,1.5832,1.5832,1.5832,1.5832,1.5832,0.9943,0.0,0.0,0.0,0.0,0.0,0.0,0.0,2.0821,2.2148,2.0443,1.8449,1.7567,1.752,1.6807,1.4458,0.8073,-0.0504,-1.2107,-1.5137,-1.7092,-1.9662,-2.182,-2.3005,-2.2689,-2.4079,-2.5119,-2.5398,-2.6953,-2.7973,-2.8248,-2.9695,-3.0688,-3.1108,-3.2367,-3.3034,-3.3034,-3.3761,-3.4134,-3.4134,-3.4878,-3.525,-3.525,-3.5504,-3.5622,-3.5622,-3.5622,-3.5622,-3.5622,-3.5968,-3.6333,-3.6724,-3.7379,-3.7877,-3.8263,-3.8998,-3.9339,-3.951,-4.0043,-4.0351,-4.0538,-4.0733,-4.0746,-4.0711,-4.0786,-4.069,-4.0446,-3.9905,-3.9416,-3.8803,-3.7628,-3.6225,-3.4897,-3.4058,-3.363,-3.3319,-3.3123,-3.0969,-2.8399,-2.6121,-2.3206,-2.065,-1.9214,-1.68,-1.4721,-1.3369,-0.9811,-0.6163,-0.3087,0.0799,0.4407,0.7003,1.0066,1.1755,1.1268,1.4076,1.5242,1.3974,1.5146,1.5832,1.5832,1.5832,1.5432,1.4561,1.5337,1.5832,1.5832,1.5832,1.5832,1.5832,1.5832,1.5832,0.0,0.0,0.0,0.0,0.0,0.0,0.0,0.0,1.8209,1.9726,1.8785,1.7208,1.5638,1.3611,1.0883,0.6941,0.4235,-0.0544,-0.9536,-1.3717,-1.656,-1.8363,-2.1178,-2.2713,-2.1978,-2.3301,-2.461,-2.5287,-2.6068,-2.6774,-2.7524,-2.814,-2.9042,-3.0251,-3.1549,-3.2239,-3.2297,-3.3,-3.3372,-3.3389,-3.4117,-3.4455,-3.4489,-3.5216,-3.5554,-3.5554,-3.5571,-3.5588,-3.5588,-3.5605,-3.6249,-3.719,-3.719,-3.7826,-3.8762,-3.9377,-3.9408,-3.9264,-4.0175,-4.0321,-4.0193,-4.0654,-4.074,-4.0706,-4.0783,-4.0762,-4.061,-4.0212,-3.9859,-3.9289,-3.7954,-3.6104,-3.4611,-3.4587,-3.459,-3.432,-3.3337,-3.2292,-3.0791,-2.8378,-2.6054,-2.3808,-2.1771,-1.9397,-1.7289,-1.5913,-1.2422,-0.851,-0.4557,-0.0597,0.3002,0.5724,0.9481,1.1361,1.0096,1.3494,1.5242,1.3878,1.5045,1.573,1.573,1.5737,1.573,1.573,1.573,1.573,1.573,1.5825,1.5832,1.5832,1.5832,1.5832,0.8813,0.0,0.0,0.0,0.0,0.0,0.0,0.0,0.0,1.7814,1.6549,1.5207,1.5675,1.325,1.0802,0.9609,0.436,-0.2097,-0.9491,-1.224,-1.4663,-1.7812,-1.9918,-2.1198,-2.1392,-2.2763,-2.3917,0.0,-2.5287,-2.6014,-2.6774,-2.7864,-2.9042,-3.0251,-3.0659,-3.1082,-3.1495,-3.2222,-3.2594,-3.2594,-3.3355,-3.3711,-3.3711,-3.3931,-3.4015,-3.4049,-3.4573,-3.4793,-3.4844,-3.5402,-3.6249,-3.719,-3.719,-3.7826,-3.875,-3.9109,-3.9339,-3.9534,-4.0023,-4.0304,-4.0419,-4.0641,-4.0731,-4.0704,-4.0717,-4.0707,-4.061,-4.0212,-3.9859,-3.9258,-3.7715,-3.6225,-3.5061,-3.4709,-3.4228,-3.3942,-3.4125,-3.3514,-3.2236,-2.9869,-2.7014,-2.4637,-2.3693,-2.1632,-1.9092,-1.6181,-1.316,-0.985,-0.5958,-0.1894,0.1999,0.5591,0.8648,1.0338,0.9998,1.2716,1.3878,1.2528,1.3686,1.4459,1.4459,1.5337,1.4956,1.3017,1.3974,1.4459,1.4459,1.5343,1.5832,1.5832,1.5832,1.5832,0.0,0.0,0.0,0.0,0.0,0.0,1.3693,1.37,0.0,0.0,1.4944,1.41,1.4655,1.2618,1.0394,0.9077,0.4513,-0.1134,-0.7412,-1.0621,-1.326,-1.5866,-1.8696,-2.0252,-1.989,-2.1551,-2.2726,-2.3093,-2.4297,-2.561,-2.6916,-2.7929,-2.8919,-2.9892,-3.0166,-3.0601,-3.119,-3.1613,-3.1833,-3.1833,-3.2577,-3.2933,-3.2949,-3.3271,-3.3406,-3.3423,-3.3846,-3.4032,-3.4066,-3.4506,-3.5572,-3.6921,-3.7323,-3.7843,-3.8428,-3.8906,-3.9171,-3.932,-3.9899,-4.012,-4.0192,-4.0565,-4.0712,-4.073,-4.0713,-4.0721,-4.0668,-4.0367,-3.9785,-3.8984,-3.7821,-3.6816,-3.6027,-3.5487,-3.5061,-3.4754,-3.4607,-3.4278,-3.3274,-3.0996,-2.8698,-2.6806,-2.5628,-2.3483,-2.0962,-1.8339,-1.533,-1.199,-0.8133,-0.4175,-0.01,0.3887,0.7159,0.9162,0.9114,1.1551,1.2522,1.1165,1.2909,1.3686,1.3102,1.4854,1.4854,1.2813,1.3974,1.4657,1.4657,1.4854,1.5242,1.5832,1.5832,1.5832,0.9945,1.0599,0.0,0.0,1.217,0.0,1.3902,1.3119,1.2253,0.0,1.3465,1.3222,1.3008,1.1591,0.9632,0.6959,0.4745,0.1277,-0.458,-0.8839,-1.1859,-1.3113,-1.7049,-1.9109,-1.7676,-1.9715,-2.12,-2.1219,-2.3137,-2.5156,-2.7143,-2.7871,-2.856,-2.9361,-2.9848,-3.0435,-3.119,-3.1151,-3.1151,-3.1207,-3.185,-3.2195,-3.2188,-3.2865,-3.3169,-3.3169,-3.3237,-3.3288,-3.3288,-3.3456,-3.4582,-3.6359,-3.7327,-3.7787,-3.7995,-3.8773,-3.8905,-3.8862,-3.9705,-3.984,-3.9759,-4.0434,-4.0701,-4.0779,-4.0721,-4.0735,-4.0749,-4.0521,-3.969,-3.8729,-3.8122,-3.7596,-3.7135,-3.6603,-3.6457,-3.6105,-3.5048,-3.4671,-3.403,-3.2138,-3.0915,-2.9588,-2.7524,-2.5207,-2.3024,-2.1429,-1.8308,-1.4716,-1.0868,-0.6923,-0.2877,0.1098,0.4982,0.7496,0.7733,1.0087,1.1068,1.0096,1.2226,1.3006,1.1945,1.4178,1.4854,1.3878,1.5146,1.573,1.5635,1.4561,1.4657,1.5832,1.5832,1.5832,1.1427,1.1773,1.2271,1.3205,0.0,0.0,1.1664,1.1207,1.0896,0.0,1.0552,1.0281,1.1375,0.9935,0.8165,0.7057,0.5415,0.1963,-0.4485,-0.6183,-0.7762,-1.0698,-1.3511,-1.5015,-1.4541,-1.7259,-1.9241,-1.9622,-2.1708,-2.362,-2.5022,-2.5821,-2.724,-2.9345,-2.9042,-2.9629,-3.119,-3.0699,-3.0699,-3.119,-3.1343,-3.141,-3.141,-3.1562,-3.163,-3.1664,-3.2256,-3.2493,-3.2584,-3.3608,-3.4604,-3.5561,-3.6143,-3.7005,-3.798,-3.8554,-3.8884,-3.9036,-3.9231,-3.9599,-4.0022,-4.0176,-4.0434,-4.0723,-4.0699,-4.0701,-4.065,-4.0268,-3.9823,-3.9264,-3.8504,-3.8023,-3.7649,-3.7173,-3.6724,-3.6333,-3.6105,-3.5278,-3.448,-3.4081,-3.2741,-3.107,-2.9,-2.7965,-2.6143,-2.2497,-1.9989,-1.7209,-1.34,-0.9587,-0.5669,-0.1687,0.1388,0.398,0.6224,0.7799,0.9083,0.9998,1.0485,1.1068,1.1853,1.2431,1.3011,1.3878,1.5146,1.5337,1.4262,1.5045,1.5534,1.5832,1.5832,1.5832,1.2002,1.2332,1.2715,1.3095,0.0,0.0,0.0,1.0967,1.0567,1.1291,1.0494,1.0014,1.1196,0.9941,0.8513,0.7842,0.585,0.3007,-0.0869,-0.3595,-0.5775,-0.7578,-1.0624,-1.2572,-1.2554,-1.5061,-1.7623,-1.9769,-2.0983,-2.2498,-2.4493,-2.5257,-2.65,-2.8399,-2.8467,-2.9088,-3.0293,-3.0293,-3.0435,-3.074,-3.1055,-3.119,-3.119,-3.119,-3.119,-3.1207,-3.1579,-3.1732,-3.1805,-3.2439,-3.3139,-3.3945,-3.5297,-3.6039,-3.6502,-3.7666,-3.8195,-3.8368,-3.8914,-3.9414,-3.988,-4.0061,-4.038,-4.0701,-4.0705,-4.0697,-4.0626,-4.0206,-3.9982,-3.969,-3.8943,-3.8619,-3.8332,-3.7702,-3.7342,-3.702,-3.6498,-3.5916,-3.5323,-3.4719,-3.367,-3.2204,-3.0308,-2.893,-2.6912,-2.3505,-2.1646,-1.9237,-1.523,-1.191,-0.8101,-0.3466,-0.0596,0.2294,0.5724,0.662,0.7611,0.892,0.9608,1.0288,1.0974,1.1556,1.2528,1.3878,1.5146,1.5534,1.4854,1.5534,1.5832,1.5832,1.5832,1.5832,0.0,0.0,1.2797,0.0,0.0,1.1746,0.0,0.0,0.0,1.1509,1.0784,0.0,0.0,0.0,0.0,0.0,0.0,0.0,0.0,-0.0822,0.0,-0.4921,-0.7932,-1.0045,-1.047,-1.268,-1.5648,-1.9519,-1.991,-2.1156,-2.3857,-2.4662,-2.5727,-2.7288,-2.7874,-2.8592,-2.9585,-2.9805,-3.0123,-3.0477,-3.0838,-3.1095,-3.119,-3.119,-3.119,-3.119,-3.119,-3.119,-3.119,-3.119,-3.1546,-3.2281,-3.434,-3.4938,-3.4889,-3.6531,-3.7131,-3.7283,-3.8414,-3.9058,-3.9437,-3.9884,-4.0342,-4.0713,-4.0662,-4.0691,-4.0641,-4.0283,-4.0139,-3.9943,-3.9339,-3.9152,-3.8915,-3.8227,-3.798,-3.7685,-3.6865,-3.6603,-3.6215,-3.517,-3.4398,-3.3319,-3.1232,-2.9482,-2.7445,-2.4801,-2.3402,-2.1247,-1.7139,-1.4257,-1.0692,-0.5635,-0.2985,0.02,0.4512,0.5118,0.5922,0.7537,0.8916,0.9706,0.9998,1.1268,1.2431,1.3488,1.4752,1.5534,1.5832,1.5832,1.5832,1.5832,1.5832,1.5832,0.0,0.0,0.0,0.0,1.2259,0.0,0.0,0.0,1.0767,0.9627,0.0,0.0,0.0,0.0,0.0,0.0,0.0,0.0,0.4459,0.2331,-0.0507,-0.4352,-0.5265,-0.5856,-0.6703,-0.9383,-1.2664,-1.6424,-1.7051,-1.8485,-2.1282,-2.2427,-2.4161,-2.66,-2.6763,-2.7922,-3.0166,-2.918,-2.9496,-3.1095,-3.0617,-3.0699,-3.119,-3.119,-3.119,-3.119,-3.119,-3.119,-3.119,-3.119,-3.1241,-3.1455,-3.283,-3.3728,-3.4414,-3.5442,-3.582,-3.6009,-3.7264,-3.8074,-3.8659,-3.9399,-4.0156,-4.0758,-4.0574,-4.0649,-4.0733,-4.0521,-4.0267,-4.0002,-3.9645,-3.9314,-3.9036,-3.8683,-3.8267,-3.7859,-3.7755,-3.7396,-3.6943,-3.6316,-3.5657,-3.4347,-3.1687,-3.0971,-2.9797,-2.6993,-2.5509,-2.3545,-2.0174,-1.7157,-1.3666,-0.9693,-0.7957,-0.4984,0.02,0.18,0.3503,0.6027,0.7531,0.8726,0.9998,1.1268,1.1945,1.2139,1.3392,1.4657,1.5832,1.5832,1.5832,1.5832,1.5832,1.5832,0.0,0.0,0.0,0.0,0.0,0.0,1.0337,0.0,1.0186,0.0,0.0,0.0,0.0,0.0,0.0,0.0,0.7581,0.0,0.0,0.0,0.2434,0.0,0.0,0.0,-0.5098,-0.7853,-1.0986,-1.421,-1.5022,-1.6645,-1.97,-2.1006,-2.2693,-2.4846,-2.5639,-2.6696,-2.8153,-2.8745,-2.9225,-2.9629,-3.0435,-3.0781,-3.0699,-3.1055,-3.119,-3.119,-3.119,-3.119,-3.119,-3.119,-3.119,-3.1263,-3.1786,-3.2515,-3.3354,-3.449,-3.5066,-3.5422,-3.6428,-3.75,-3.8593,-3.9757,-4.0428,-4.0785,-4.0652,-4.0706,-4.0731,-4.0433,-4.0208,-3.9982,-3.9457,-3.9231,-3.8962,-3.836,-3.8065,-3.7755,-3.7173,-3.6865,-3.6563,-3.6054,-3.5078,-3.4006,-3.2823,-3.1856,-3.0444,-2.7991,-2.6299,-2.4448,-2.2086,-1.8485,-1.5021,-1.2057,-0.9356,-0.5902,-0.1491,0.01,0.2302,0.5827,0.8021,0.941,0.9998,1.1268,1.2237,1.3011,1.359,1.4561,1.5832,1.5832,1.5832,1.5832,1.5832,1.5832,1.01,0.0,0.0,0.0,0.0,0.0,0.0,0.0,0.0,0.0,0.0,0.0,0.0,0.0,0.0,0.801,0.0,0.7273,0.0,0.5663,0.0,0.0,0.0,0.0,0.0,-0.6473,-0.9217,-1.2735,-1.3309,-1.4983,-1.8367,-1.9785,-2.1224,-2.2918,-2.4339,-2.557,-2.6576,-2.7938,-2.8684,-2.8779,-2.9892,-3.0393,-3.0293,-3.074,-3.1055,-3.119,-3.119,-3.119,-3.119,-3.119,-3.119,-3.119,-3.119,-3.1714,-3.2621,-3.3534,-3.4142,-3.4639,-3.5614,-3.7017,-3.8615,-4.0032,-4.0641,-4.0797,-4.0725,-4.0755,-4.074,-4.043,-4.0221,-3.9982,-3.9389,-3.9178,-3.8915,-3.8277,-3.8032,-3.772,-3.6981,-3.6724,-3.6457,-3.5941,-3.4891,-3.3989,-3.3684,-3.2369,-3.0763,-2.9029,-2.7464,-2.572,-2.3689,-2.04,-1.7141,-1.4237,-1.1194,-0.778,-0.3705,-0.1871,0.0991,0.5678,0.8115,0.9389,0.9433,1.0307,1.1589,1.3295,1.3392,1.4172,1.5832,1.5832,1.5832,1.5832,1.5832,1.5832,0.0,0.0,0.0,0.9139,0.0,0.0,0.0,0.0,0.9109,0.0,0.0,0.0,0.0,0.9153,0.8738,0.8091,0.7556,0.0,0.0,0.0,0.0,0.0,0.0,0.0,0.0,-0.4609,-0.6926,0.0,-1.1838,-1.3228,-1.7255,-1.8462,-1.9677,-2.1042,-2.2822,-2.4619,-2.6474,-2.6639,-2.7578,-2.9361,-2.8826,-2.918,-3.0293,-3.0293,-3.0658,-3.119,-3.119,-3.119,-3.119,-3.119,-3.119,-3.119,-3.119,-3.1714,-3.2484,-3.2553,-3.2862,-3.3436,-3.4621,-3.6515,-3.8615,-4.0032,-4.0641,-4.0797,-4.0725,-4.0755,-4.0777,-4.0718,-4.0392,-4.0022,-3.9668,-3.9339,-3.9036,-3.8762,-3.8267,-3.7893,-3.7859,-3.7506,-3.7038,-3.6498,-3.5822,-3.4977,-3.382,-3.2461,-3.1219,-3.0358,-2.9694,-2.8251,-2.5397,-2.3634,-2.0929,-1.6515,-1.5055,-1.2394,-0.7543,-0.4871,-0.0771,0.5368,0.7013,0.777,0.7907,0.7914,0.9235,1.1945,1.1945,1.3204,1.5832,1.5832,1.5832,1.5832,1.5832,1.5832,0.6138,0.7555,0.9045,0.8145,0.7057,0.6474,0.0,0.0,0.0,0.0,0.0,0.0,0.0,0.8084,0.8485,0.7271,0.6986,0.6828,0.0,0.0,0.0,0.0,0.0,0.0,0.0,0.0,0.0,-0.8845,-0.9787,0.0,-1.5951,-1.7231,-1.8824,-2.0852,-2.1931,-2.3322,-2.5211,-2.6081,-2.6877,-2.7563,-2.8607,-2.9316,-2.9717,-3.0123,-3.0617,-3.119,-3.119,-3.119,-3.119,-3.119,-3.119,-3.119,-3.119,-3.1714,-3.2484,-3.2484,-3.2965,-3.3799,-3.5125,-3.6487,-3.7843,-3.9246,-4.0159,-4.0742,-4.0758,-4.0759,-4.0701,-4.0557,-4.0312,-3.9982,-3.9414,-3.9186,-3.8943,-3.831,-3.7808,-3.7323,-3.6981,-3.6504,-3.6097,-3.5898,-3.4985,-3.4088,-3.3684,-3.2407,-3.1409,-3.1161,-2.987,-2.8675,-2.7683,-2.4313,-2.1568,-2.0221,-1.6646,-1.3081,-0.9944,-0.442,0.0571,0.4214,0.5713,0.7127,0.8867,0.8875,1.0184,1.3064,1.2964,1.3803,1.5832,1.5832,1.5832,1.5832,1.5832,1.5832,0.4051,0.4608,0.5607,0.5243,0.4666,0.4415,0.5577,0.5944,0.607,0.605,0.0,0.0,0.5014,0.6438,0.7465,0.5851,0.604,0.6334,0.0,0.5975,0.0,0.0,0.0,0.0,0.0,0.0,-0.3188,-0.5909,-0.7524,0.0,0.0,-1.5341,-1.7039,-1.9555,-2.0629,-2.2075,-2.3894,-2.497,-2.5756,-2.6243,-2.7705,-2.8542,-2.877,-2.9367,-3.0123,-3.0878,-3.0878,-3.1015,-3.119,-3.119,-3.119,-3.123,-3.1351,-3.1842,-3.2484,-3.2484,-3.3057,-3.4005,-3.5409,-3.6264,-3.7029,-3.8728,-3.9733,-4.0311,-4.0691,-4.0779,-4.0707,-4.0585,-4.0356,-4.0024,-3.9561,-3.9264,-3.8971,-3.8444,-3.7891,-3.7323,-3.6803,-3.6088,-3.5448,-3.5299,-3.4153,-3.3235,-3.3235,-3.2059,-3.1087,-3.1087,-3.0061,-2.9115,-2.8498,-2.5135,-2.2444,-2.1522,-1.7801,-1.3687,-0.9809,-0.3956,0.0743,0.3566,0.4942,0.6602,0.869,0.9062,1.0343,1.2806,1.3078,1.405,1.5671,1.5671,1.5732,1.5832,1.5832,1.5832]},{"header":{"parameterUnit":"m.s-1","parameterCategory":1,"la1":30.6,"la2":29.2853,"lo1":-89.7004,"lo2":-87.6739,"dy":0.0162,"dx":0.0183,"nx":112,"ny":82,"refTime":"2024-09-11T06:00:00:Z","depth":0,"parameterNumber":3,"parameterNumberName":"V-component_of_WINDS"},"data":[0.0,0.0,0.0,0.0,0.0,0.0,0.0,0.0,0.0,0.0,0.0,0.0,0.0,0.0,0.0,0.0,0.0,0.0,0.0,0.0,0.0,0.0,0.0,0.0,0.0,0.0,0.0,0.0,0.0,0.0,0.0,0.0,0.0,0.0,0.0,0.0,0.0,0.0,0.0,0.0,0.0,0.0,0.0,0.0,0.0,0.0,0.0,0.0,0.0,0.0,0.0,0.0,0.0,0.0,0.0,0.0,0.0,0.0,0.0,0.0,0.0,0.0,0.0,0.0,0.0,0.0,0.0,0.0,0.0,0.0,0.0,0.0,0.0,0.0,0.0,0.0,0.0,0.0,0.0,0.0,0.0,0.0,0.0,0.0,0.0,0.0,0.0,0.0,0.0,0.0,1.8917,2.2137,2.5023,2.6437,2.5828,2.5558,2.3985,2.0559,0.0,0.0,0.0,0.0,0.0,0.0,0.0,0.0,0.0,0.0,0.0,0.0,0.0,0.0,0.0,0.0,0.0,0.0,0.0,0.0,0.0,0.0,0.0,0.0,0.0,0.0,0.0,0.0,0.0,0.0,0.0,0.0,0.0,0.0,0.0,0.0,0.0,0.0,0.0,0.0,0.0,0.0,0.0,0.0,0.0,0.0,0.0,0.0,0.0,0.0,0.0,0.0,0.0,0.0,0.0,0.0,0.0,0.0,0.0,0.0,0.0,0.0,0.0,0.0,0.0,0.0,0.0,0.0,0.0,0.0,0.0,0.0,0.0,0.0,0.0,0.0,0.0,0.0,0.0,0.0,0.0,0.0,0.0,0.0,0.0,0.0,0.0,0.0,0.0,0.0,0.0,0.0,0.0,0.0,0.0,0.0,0.0,0.0,0.0,0.0,0.0,0.0,0.0,0.0,1.9273,2.4483,2.6048,2.664,2.6539,2.5372,2.3883,2.209,0.0,0.0,0.0,0.0,0.0,0.0,0.0,0.0,0.0,0.0,0.0,0.0,0.0,0.0,0.0,0.0,0.0,0.0,0.0,0.0,0.0,0.0,0.0,0.0,0.0,0.0,0.0,0.0,0.0,0.0,0.0,0.0,0.0,0.0,0.0,0.0,0.0,0.0,0.0,0.0,0.0,0.0,0.0,0.0,0.0,0.0,0.0,0.0,0.0,0.0,0.0,0.0,0.0,0.0,0.0,0.0,0.0,0.0,0.0,0.0,0.0,0.0,0.0,0.0,0.0,0.0,0.0,0.0,0.0,0.0,0.0,0.0,0.0,0.0,0.0,0.0,0.0,0.0,0.0,0.0,0.0,0.0,0.0,0.0,0.0,0.0,0.0,0.0,0.0,0.0,0.0,0.0,0.0,0.0,0.0,0.0,0.0,0.0,0.0,0.0,0.0,0.0,0.0,1.8838,2.1249,2.5188,2.6251,2.6691,2.6691,2.5338,2.3866,2.2395,1.8724,0.0,0.0,0.0,0.0,0.0,0.0,0.0,0.0,0.0,0.0,0.0,0.0,0.0,0.0,0.0,0.0,0.0,0.0,0.0,0.0,0.0,0.0,0.0,0.0,0.0,0.0,0.0,0.0,0.0,0.0,0.0,0.0,0.0,0.0,0.0,0.0,0.0,0.0,0.0,0.0,0.0,0.0,0.0,0.0,0.0,0.0,0.0,0.0,0.0,0.0,0.0,0.0,0.0,0.0,0.0,0.0,0.0,0.0,0.0,0.0,0.0,0.0,0.0,0.0,0.0,0.0,0.0,0.0,0.0,0.0,0.0,0.0,0.0,0.0,0.0,0.0,0.0,0.0,0.0,0.0,0.0,0.0,0.0,0.0,0.0,0.0,0.0,0.0,0.0,0.0,0.0,0.0,0.0,0.0,0.0,0.0,0.0,0.0,0.0,0.0,0.0,0.0,2.1707,2.3382,2.561,2.6353,2.6691,2.6691,2.5017,2.3427,2.2124,1.7659,0.0,0.0,0.0,0.0,0.0,0.0,0.0,0.0,0.0,0.0,0.0,0.0,0.0,0.0,0.0,0.0,0.0,0.0,0.0,0.0,0.0,0.0,0.0,0.0,0.0,0.0,0.0,0.0,0.0,0.0,0.0,0.0,0.0,0.0,0.0,0.0,0.0,0.0,0.0,0.0,0.0,0.0,0.0,0.0,0.0,0.0,0.0,0.0,0.0,0.0,0.0,0.0,0.0,0.0,0.0,0.0,0.0,0.0,0.0,0.0,0.0,0.0,0.0,0.0,0.0,0.0,0.0,0.0,0.0,0.0,0.0,0.0,0.0,0.0,0.0,0.0,0.0,0.0,0.0,0.0,0.0,0.0,0.0,0.0,0.0,0.0,0.0,0.0,0.0,0.0,0.0,0.0,0.0,0.0,0.0,0.0,0.0,0.0,0.0,0.0,0.0,0.0,2.2421,2.4915,2.6454,2.6657,2.6691,2.6691,2.4103,2.2124,2.1339,1.6428,0.0,0.0,0.0,0.0,0.0,0.0,0.0,0.0,0.0,0.0,0.0,0.0,0.0,0.0,0.0,0.0,0.0,0.0,0.0,0.0,0.0,0.0,0.0,0.0,0.0,0.0,0.0,0.0,0.0,0.0,0.0,0.0,0.0,0.0,0.0,0.0,0.0,0.0,0.0,0.0,0.0,0.0,0.0,0.0,0.0,0.0,0.0,0.0,0.0,0.0,0.0,0.0,0.0,0.0,0.0,0.0,0.0,0.0,0.0,0.0,0.0,0.0,0.0,0.0,0.0,0.0,0.0,0.0,0.0,0.0,0.0,0.0,0.0,0.0,0.0,0.0,0.0,0.0,0.0,0.0,0.0,0.0,0.0,0.0,0.0,0.0,0.0,0.0,0.0,0.0,0.0,0.0,0.0,0.0,0.0,0.0,0.0,0.0,0.0,0.0,0.0,0.0,2.1568,2.3849,0.0,2.6691,2.6691,2.6691,2.4831,2.2953,2.1305,0.0,0.0,0.0,0.0,0.0,0.0,0.0,0.0,0.0,0.0,0.0,0.0,0.0,0.0,0.0,0.0,0.0,0.0,0.0,0.0,0.0,0.0,0.0,0.0,0.0,0.0,0.0,0.0,0.0,0.0,0.0,0.0,0.0,0.0,0.0,0.0,0.0,0.0,0.0,0.0,0.0,0.0,0.0,0.0,0.0,0.0,0.0,0.0,0.0,0.0,0.0,0.0,0.0,0.0,0.0,0.0,0.0,0.0,0.0,0.0,0.0,0.0,0.0,0.0,0.0,0.0,0.0,0.0,0.0,0.0,0.0,0.0,0.0,0.0,0.0,0.0,0.0,0.0,0.0,0.0,0.0,0.0,0.0,0.0,0.0,0.0,0.0,0.0,0.0,0.0,0.0,0.0,0.0,0.0,0.0,0.0,0.0,0.0,0.0,0.0,0.0,0.0,1.9278,2.1513,2.3765,0.0,2.6691,2.6607,2.637,2.478,2.2835,2.0602,0.0,0.0,0.0,0.0,0.0,0.0,0.0,0.0,0.0,0.0,0.0,0.0,0.0,0.0,0.0,0.0,0.0,0.0,0.0,0.0,0.0,0.0,0.0,0.0,0.0,0.0,0.0,0.0,0.0,0.0,0.0,0.0,0.0,0.0,0.0,0.0,0.0,0.0,0.0,0.0,0.0,0.0,0.0,0.0,0.0,0.0,0.0,0.0,0.0,0.0,0.0,0.0,0.0,0.0,0.0,0.0,0.0,0.0,0.0,0.0,0.0,0.0,0.0,0.0,0.0,0.0,0.0,0.0,0.0,0.0,0.0,0.0,0.0,0.0,0.0,0.0,0.0,0.0,0.0,0.0,0.0,0.0,0.0,0.0,0.0,0.0,0.0,0.0,0.0,0.0,0.0,0.0,0.0,0.0,0.0,0.0,0.0,0.0,0.0,0.0,0.0,0.0,1.963,2.2632,2.5082,2.6539,2.6691,2.6404,2.5659,2.3596,2.1363,0.0,0.0,0.0,0.0,0.0,0.0,0.0,0.0,0.0,0.0,0.0,0.0,0.0,0.0,0.0,0.0,0.0,0.0,0.0,0.0,0.0,0.0,0.0,0.0,0.0,0.0,0.0,0.0,0.0,0.0,0.0,0.0,0.0,0.0,0.0,0.0,0.0,0.0,0.0,0.0,0.0,0.0,0.0,0.0,0.0,0.0,0.0,0.0,0.0,0.0,0.0,0.0,0.0,0.0,0.0,0.0,0.0,0.0,0.0,0.0,0.0,0.0,0.0,0.0,0.0,0.0,0.0,0.0,0.0,0.0,0.0,0.0,0.0,0.0,0.0,0.0,0.0,0.0,0.0,0.0,0.0,0.0,0.0,0.0,0.0,0.0,0.0,0.0,0.0,0.0,0.0,0.0,0.0,0.0,0.0,0.0,0.0,0.0,0.0,0.0,0.0,0.0,0.0,2.0382,2.297,2.5082,2.6539,2.6691,2.6404,2.5659,2.4526,2.2429,1.9096,0.0,0.0,0.0,0.0,0.0,0.0,0.0,0.0,0.0,0.0,0.0,0.0,0.0,0.0,0.0,0.0,0.0,0.0,0.0,0.0,0.0,0.0,0.0,0.0,0.0,0.0,0.0,0.0,0.0,0.0,0.0,0.0,0.0,0.0,0.0,0.0,0.0,0.0,0.0,0.0,0.0,0.0,0.0,0.0,0.0,0.0,0.0,0.0,0.0,0.0,0.0,0.0,0.0,0.0,0.0,0.0,0.0,0.0,0.0,0.0,0.0,0.0,0.0,0.0,0.0,0.0,0.0,0.0,0.0,0.0,0.0,0.0,0.0,0.0,0.0,0.0,0.0,0.0,0.0,0.0,0.0,0.0,0.0,0.0,0.0,0.0,0.0,0.0,0.0,0.0,0.0,0.0,0.0,0.0,0.0,0.0,0.0,0.0,0.0,0.0,0.0,0.0,2.0729,2.3134,2.5082,2.6539,2.6691,2.6268,2.5253,2.4729,2.2914,1.913,0.0,0.0,0.0,0.0,0.0,0.0,0.0,0.0,0.0,0.0,0.0,0.0,0.0,0.0,0.0,0.0,0.0,0.0,0.0,0.0,0.0,0.0,0.0,0.0,0.0,0.0,0.0,0.0,0.0,0.0,0.0,0.0,0.0,0.0,0.0,0.0,0.0,0.0,0.0,0.0,0.0,0.0,0.0,0.0,0.0,0.0,0.0,0.0,0.0,0.0,0.0,0.0,0.0,0.0,0.0,0.0,0.0,0.0,0.0,0.0,0.0,0.0,0.0,0.0,0.0,0.0,0.0,0.0,0.0,0.0,0.0,0.0,0.0,0.0,0.0,0.0,0.0,0.0,0.0,0.0,0.0,0.0,0.0,0.0,0.0,0.0,0.0,0.0,0.0,0.0,0.0,0.0,0.0,0.0,0.0,0.0,0.0,0.0,0.0,0.0,0.0,0.0,2.0814,2.3185,2.5082,2.6539,2.6691,2.6116,2.4712,2.4557,2.2965,1.9333,0.0,0.0,0.0,0.0,0.0,0.0,0.0,0.0,0.0,0.0,0.0,0.0,0.0,0.0,0.0,0.0,0.0,0.0,0.0,0.0,0.0,0.0,0.0,0.0,0.0,0.0,0.0,0.0,0.0,0.0,0.0,0.0,0.0,0.0,0.0,0.0,0.0,0.0,0.0,0.0,0.0,0.0,0.0,0.0,0.0,0.0,0.0,0.0,0.0,0.0,0.0,0.0,0.0,0.0,0.0,0.0,0.0,0.0,0.0,0.0,1.4108,0.0,0.0,0.0,0.0,0.0,0.0,0.0,0.0,0.0,0.0,0.0,0.0,0.0,0.0,0.0,0.0,0.0,0.0,0.0,0.0,0.0,0.0,0.0,0.0,0.0,0.0,0.0,0.0,0.0,0.0,0.0,0.0,0.0,0.0,0.0,0.0,0.0,0.0,0.0,0.0,0.0,2.1515,2.3477,2.5082,2.6539,2.6691,2.6336,2.5439,2.4814,2.3439,2.0882,1.8724,0.0,0.0,0.0,0.0,0.0,0.0,0.0,0.0,0.0,0.0,0.0,0.0,0.0,0.0,0.0,0.0,0.0,0.0,0.0,0.0,0.0,0.0,0.0,0.0,0.0,0.0,0.0,0.0,0.0,0.0,0.0,0.0,0.0,0.0,0.0,0.0,0.0,0.0,0.0,0.0,0.0,0.0,0.0,0.0,0.0,0.0,0.0,0.0,0.0,0.0,0.0,0.0,0.0,0.0,0.0,0.0,0.0,0.0,0.0,0.0,1.5654,0.0,0.0,0.0,0.0,0.0,0.0,0.0,0.0,0.0,0.0,0.0,0.0,0.0,0.0,0.0,0.0,0.0,0.0,0.0,0.0,0.0,0.0,0.0,0.0,0.0,0.0,0.0,0.0,0.0,0.0,0.0,0.0,0.0,0.0,0.0,0.0,0.0,0.0,0.0,0.0,2.226,2.3799,2.5082,2.6539,2.6691,2.6404,2.5659,2.4915,2.3727,2.1837,1.9925,0.0,0.0,0.0,0.0,0.0,0.0,0.0,0.0,0.0,0.0,0.0,0.0,0.0,0.0,0.0,0.0,0.0,0.0,0.0,0.0,0.0,0.0,0.0,0.0,0.0,0.0,0.0,0.0,0.0,0.0,0.0,0.0,0.0,0.0,0.0,0.0,0.0,0.0,0.0,0.0,0.0,0.0,0.0,0.0,0.0,0.0,0.0,0.0,0.0,0.0,0.0,0.0,0.0,1.957,2.0568,2.1656,2.1549,2.1995,2.2673,2.0602,1.9516,1.9166,1.8388,0.0,0.0,0.0,0.0,0.0,0.0,0.0,0.0,0.0,0.0,0.0,0.0,0.0,0.0,0.0,0.0,0.0,0.0,0.0,0.0,0.0,0.0,0.0,0.0,2.2894,2.2684,1.941,0.0,0.0,0.0,0.0,0.0,0.0,0.0,0.0,0.0,0.0,0.0,2.2868,2.4154,2.5203,2.6556,2.6691,2.6454,2.5845,2.5118,2.4103,2.2784,2.1235,1.9799,0.0,0.0,0.0,0.0,0.0,0.0,0.0,0.0,0.0,0.0,0.0,0.0,0.0,0.0,0.0,0.0,0.0,0.0,0.0,0.0,0.0,0.0,0.0,0.0,0.0,0.0,0.0,0.0,0.0,0.0,0.0,0.0,1.0169,1.1776,0.0,0.0,0.0,0.0,0.0,0.0,0.0,0.0,0.0,0.0,0.0,0.0,0.0,1.6742,1.8194,1.9656,2.1218,2.2893,2.4162,2.5418,2.6634,2.6643,2.6389,2.5986,2.5657,0.0,2.1201,1.9944,0.0,0.0,0.0,0.0,0.0,0.0,0.0,0.0,0.0,0.0,0.0,0.0,0.0,0.0,0.0,0.0,0.0,0.0,0.0,0.0,0.0,0.0,2.5747,2.5949,2.6101,2.605,0.0,2.2141,1.8748,1.7243,1.6646,0.0,0.0,0.0,0.0,0.0,0.0,0.0,2.3071,2.4611,2.5778,2.6607,2.6691,2.6657,2.6556,2.5879,2.5101,2.4269,2.2818,2.1617,2.0797,1.8758,0.0,0.0,0.0,0.0,0.0,0.0,0.0,0.0,0.0,0.0,0.0,0.0,0.0,0.0,0.0,0.0,0.0,0.0,0.0,0.0,0.0,0.0,0.0,0.0,0.0,0.0,0.0,0.0,0.0,0.9993,1.1475,1.3166,1.2927,1.2479,0.0,0.0,0.0,0.0,0.0,0.0,0.0,0.0,0.0,1.8982,1.9721,2.0769,2.2291,2.3861,2.5071,2.5902,2.7229,2.8203,2.8697,2.8697,2.8547,2.8278,2.8278,2.7245,2.5452,2.366,2.2179,2.0978,0.0,0.0,0.0,0.0,2.1423,2.1649,2.3194,2.3341,2.2752,2.2372,0.0,0.0,0.0,0.0,0.0,0.0,0.0,2.3275,0.0,0.0,2.7173,2.784,2.7977,2.7977,2.7977,2.5983,2.3486,0.0,2.0617,1.9807,1.7794,0.0,0.0,0.0,0.0,2.1634,2.4289,2.5203,2.5879,2.6623,2.6691,2.6691,2.6691,2.6031,2.5456,2.5135,2.3731,2.2767,2.2446,2.067,1.9147,0.0,0.0,0.0,0.0,0.0,0.0,0.0,0.0,0.0,0.0,0.0,0.0,0.0,0.0,0.0,0.0,0.0,0.0,0.0,0.0,0.0,0.0,0.0,0.0,0.0,0.0,0.0,0.0,1.1538,1.3028,1.4538,1.4853,1.4664,0.0,0.0,0.0,0.0,0.0,0.0,1.7501,1.8338,1.9846,2.2097,2.3204,2.4326,2.5504,2.7064,2.7885,2.8059,2.9262,2.9909,3.0088,3.0088,2.9983,2.9819,3.0021,2.9751,2.8949,2.7072,2.5633,2.4664,2.5153,2.5009,2.4655,2.5248,2.5481,2.5664,2.7151,2.7271,2.6667,2.6101,2.5347,2.4249,2.2404,0.0,0.0,0.0,0.0,2.5876,2.7213,2.7746,2.8202,2.931,2.955,2.955,2.955,2.8941,2.7638,0.0,2.4374,2.346,2.1025,0.0,0.0,0.0,0.0,2.368,2.5896,2.6353,2.6607,2.6945,2.6979,2.6911,2.6708,2.6201,2.5812,2.5625,2.4577,2.3782,2.341,2.2344,2.1068,1.9519,0.0,0.0,0.0,0.0,0.0,0.0,0.0,0.0,0.0,0.0,0.0,0.0,0.0,0.0,0.0,0.0,0.0,0.0,0.0,0.0,0.0,0.0,0.0,0.0,0.0,0.0,0.0,0.0,0.0,1.6258,1.6886,0.0,0.0,0.0,0.0,1.6396,1.7865,1.9271,2.0454,2.1786,2.331,2.4951,2.5846,2.6578,2.719,2.7954,2.8655,2.9305,3.0081,3.0806,3.1377,3.1377,3.1076,3.0503,3.1213,3.113,3.0406,2.901,2.8046,2.742,2.7506,2.7518,2.7526,2.7976,2.8092,2.8201,2.871,2.8397,2.7956,2.9343,2.8585,2.7055,2.6902,2.5675,0.0,0.0,2.7015,2.7541,2.9421,2.9918,3.0137,3.092,3.1089,3.1089,3.1089,3.0514,2.9516,0.0,2.7012,2.6251,2.5423,0.0,2.6099,2.5473,2.659,2.7502,2.7654,2.8366,2.8552,2.7841,2.7722,2.7469,2.6759,2.6657,2.6353,2.5642,2.5541,2.4864,2.346,2.3325,2.2581,2.1119,1.8894,0.0,0.0,0.0,0.0,0.0,0.0,0.0,0.0,0.0,0.0,0.0,0.0,0.0,0.0,0.0,0.0,0.0,0.0,0.0,0.0,0.0,0.0,0.0,0.0,0.0,0.0,0.0,0.0,1.7965,1.8606,0.0,1.838,1.9045,1.956,1.971,2.0602,2.183,2.3488,2.3599,2.4879,2.7788,2.7726,2.8389,3.0002,3.0263,3.0497,3.0733,3.1036,3.13,3.1482,3.1482,3.1603,3.1848,3.2122,3.2326,3.2546,3.2482,3.1785,3.0807,3.1205,3.1375,3.1375,3.1539,3.158,3.1621,3.1776,3.1647,3.1427,3.1478,3.0723,2.982,2.9782,2.9319,2.8941,2.9592,2.9782,2.9955,3.0627,3.0818,3.0869,3.114,3.119,3.119,3.119,3.0987,3.0649,3.0091,2.9008,2.7926,2.7165,2.7249,2.7334,2.708,2.7451,2.801,2.8501,2.8805,2.8873,2.8602,2.8112,2.7671,2.7435,2.6962,2.6387,2.5659,2.5152,2.4425,2.3427,2.2936,2.2446,2.1921,2.0636,1.8728,0.0,0.0,0.0,0.0,0.0,0.0,0.0,0.0,0.0,0.0,0.0,0.0,0.0,0.0,0.0,0.0,0.0,0.0,0.0,0.0,0.0,0.0,0.0,0.0,0.0,0.0,1.8274,1.9843,2.0871,2.1368,2.1223,2.2088,2.2821,2.3145,2.365,2.4616,2.6122,2.5935,2.6985,2.9636,2.9657,3.0348,3.1795,3.2078,3.2198,3.2198,3.2198,3.2078,3.1869,3.2056,3.2318,3.2641,3.3093,3.3547,3.3987,3.464,3.4376,3.3573,3.4004,3.415,3.4117,3.3863,3.3778,3.3744,3.3491,3.3406,3.3322,3.2831,3.2341,3.1935,3.1935,3.1935,3.1935,3.1935,3.1935,3.1935,3.1935,3.1935,3.1935,3.1935,3.1749,3.1562,3.1562,3.1376,3.119,3.119,3.0395,2.9482,2.8721,2.8789,2.8873,2.86,2.8805,2.9144,2.9651,2.9719,2.9692,2.9585,2.8982,2.8454,2.8049,2.7233,2.6387,2.5659,2.4898,2.4154,2.3427,2.2936,2.2564,2.231,2.1312,1.9521,1.6914,0.0,0.0,0.0,0.0,0.0,0.0,0.0,0.0,0.0,0.0,0.0,0.0,0.0,0.0,0.0,0.0,0.0,0.0,0.0,0.0,0.0,0.0,0.0,1.7655,1.9162,2.0718,2.203,2.3755,2.457,2.4086,2.5534,2.6538,2.6538,2.7037,2.7603,2.8241,2.8978,2.9709,3.0372,3.1767,3.2482,3.2542,3.3185,3.3499,3.3499,3.3499,3.3155,3.2542,3.3211,3.3237,3.2757,3.4086,3.4657,3.4721,3.5316,3.5622,3.5622,3.5622,3.5622,3.552,3.4793,3.4523,3.4421,3.3728,3.3474,3.3474,3.3474,3.3474,3.3474,3.3474,3.3457,3.344,3.344,3.3423,3.3406,3.3406,3.3406,3.3406,3.3406,3.2848,3.2307,3.2307,3.1765,3.1258,3.1241,3.1224,3.1004,3.026,3.0734,3.0954,3.0243,3.0734,0.0,3.119,3.119,3.1079,3.075,3.0355,2.9649,2.862,2.7433,2.642,2.5658,2.4944,2.4215,2.3456,2.3422,2.3054,2.2361,2.0812,1.9326,1.7912,0.0,0.0,0.0,0.0,0.0,0.0,0.0,0.0,0.0,0.0,0.0,0.0,0.0,0.0,0.0,0.0,0.0,0.0,0.0,0.0,0.0,1.8726,1.9975,2.0104,2.2027,2.3737,2.4504,2.5744,2.6523,2.6399,2.7204,2.7714,2.7714,2.8207,2.9052,3.0306,3.0023,3.0711,3.2537,3.239,3.2555,3.323,3.341,3.3499,3.3499,3.3499,3.3395,3.3215,3.4005,3.4554,3.4886,3.5247,3.5691,3.6152,3.5751,3.5622,3.5622,3.5622,3.5622,3.5588,3.5385,3.5318,3.5284,3.5081,3.5013,3.5013,3.5013,3.5013,3.5013,3.5013,3.4624,3.4201,3.4201,3.3812,3.3406,3.3406,3.3406,3.3406,3.3406,3.3254,3.3102,3.3102,3.2933,3.2645,3.2087,3.1985,3.1749,3.1021,3.1072,3.1123,3.092,3.1072,0.0,3.119,3.119,3.1184,3.1062,3.0489,2.987,2.9263,2.8437,2.7227,2.5642,2.5337,2.4882,2.4156,2.388,2.3562,2.3105,2.1634,2.067,0.0,0.0,0.0,0.0,0.0,0.0,0.0,0.0,0.0,0.0,0.0,0.0,0.0,0.0,0.0,0.0,0.0,0.0,0.0,0.0,0.0,0.0,2.2024,2.3326,2.4125,2.4955,2.592,2.7104,2.8067,2.867,2.867,2.9201,2.9703,2.9975,3.0258,3.0993,3.2126,3.1719,3.2096,3.3484,3.3288,3.3421,3.3903,3.4203,3.4337,3.4337,3.4337,3.4345,3.441,3.521,3.5761,3.6198,3.6489,3.6863,3.7212,3.6772,3.6503,0.0,0.0,0.0,0.0,0.0,3.5622,3.5622,3.5622,3.5622,3.5622,3.5622,3.5622,3.5622,3.5622,3.5318,3.4962,3.4962,3.4658,3.4336,3.4336,3.4336,3.4336,3.4336,3.41,3.3863,3.3863,3.3626,3.3271,3.2831,3.2493,0.0,3.2012,3.1654,3.1449,3.1449,3.162,3.175,3.175,3.175,3.1823,3.2021,3.1478,3.0959,3.0621,2.9421,0.0,0.0,0.0,2.5364,2.4921,2.4576,0.0,0.0,0.0,0.0,0.0,0.0,0.0,0.0,2.136,2.1781,0.0,0.0,0.0,0.0,0.0,0.0,0.0,0.0,0.0,0.0,0.0,0.0,0.0,0.0,0.0,0.0,2.5272,2.674,2.8569,2.7777,2.7715,2.948,3.0238,3.0612,3.0612,3.124,3.1884,3.2467,3.2587,3.2916,3.3574,0.0,0.0,0.0,0.0,3.4592,3.4592,3.519,3.5504,3.5504,3.5554,3.5639,3.576,3.6578,3.7005,3.7083,3.7716,3.8024,3.8024,3.8018,3.7894,3.7619,3.6222,3.5739,3.5783,3.565,3.5667,3.5694,3.5622,0.0,0.0,3.5622,3.5622,3.5622,3.5622,3.5622,3.5622,3.5622,3.5622,3.5622,3.5622,3.5622,3.5622,3.5622,3.5115,3.4624,3.4624,3.4117,3.3626,3.3541,3.2983,3.2621,3.2904,3.2308,3.1825,3.1861,3.223,3.2484,3.2484,3.2484,3.2648,3.3075,3.2745,0.0,3.2112,3.0438,2.9087,2.8316,2.6907,2.6096,2.6053,2.586,2.5701,2.5558,2.521,2.5357,2.6007,2.6653,2.7062,2.7147,2.4367,2.4408,0.0,0.0,0.0,0.0,0.0,0.0,0.0,0.0,0.0,0.0,0.0,0.0,0.0,0.0,0.0,2.5159,2.6901,2.8547,2.9953,2.9903,2.9903,3.0298,3.0926,3.1345,3.1345,3.1928,3.2377,3.2497,3.3006,3.3589,3.4247,3.4292,3.4547,3.51,3.5235,3.531,3.531,3.5444,3.5504,3.5504,0.0,0.0,3.6474,3.785,3.845,3.8517,3.869,3.8785,3.8766,3.8585,3.8781,3.9017,3.7037,3.6522,3.6786,3.5924,3.5854,3.6182,3.5739,3.5622,3.5622,3.5622,3.5622,3.5622,3.5622,3.5622,0.0,3.5622,3.5622,3.5622,3.5622,3.5622,3.5622,3.5622,3.5504,3.5402,3.5402,3.5301,3.5013,3.4404,3.4167,3.3719,3.2638,3.2101,3.1915,3.2316,3.2451,3.2484,3.2484,3.2484,3.2517,3.2616,3.255,3.2378,3.2054,3.1665,3.0974,2.9849,2.9472,2.9173,2.8837,2.9449,2.9364,2.845,2.8329,2.8341,2.85,2.8659,2.9334,3.0451,2.8562,2.7655,0.0,0.0,0.0,0.0,0.0,0.0,0.0,0.0,0.0,0.0,0.0,2.074,2.1949,0.0,2.5994,2.783,2.894,2.9894,3.0881,3.1016,3.1016,3.1016,3.133,3.1601,3.1988,3.2317,3.2781,3.344,3.3799,3.4277,3.4951,3.4996,3.5307,3.6054,3.6054,3.6243,3.6662,3.6662,3.6662,3.6662,3.704,3.7365,3.7758,3.8564,3.9139,3.9525,3.9514,3.9693,3.9976,4.0024,4.0242,4.0349,3.8922,3.8132,3.7736,3.7219,3.6745,3.6333,3.6097,3.581,3.5622,3.5622,3.5622,3.5622,3.5622,3.5622,3.5622,3.5622,3.5622,3.5622,3.5622,3.5622,3.5622,3.5622,3.5622,3.5622,3.5622,3.5622,3.5504,3.5131,3.4985,3.4706,3.4194,3.3546,3.296,3.257,3.2872,3.3148,3.3148,3.3148,3.3148,3.3148,3.3148,3.3092,3.2902,3.2547,3.1855,3.087,3.0797,3.0705,3.0516,3.0776,3.063,3.0076,2.984,2.9929,3.029,3.029,3.1089,3.2533,3.1725,3.1133,0.0,0.0,0.0,0.0,0.0,0.0,0.0,0.0,1.8671,2.0302,2.2119,2.398,2.5821,2.6893,2.8184,3.0182,3.0612,3.0896,3.1392,3.1482,3.1482,3.1482,3.1482,3.1735,3.2452,3.2632,3.32,3.4382,3.4607,3.4921,3.5474,3.5619,3.6006,3.6615,3.6722,3.7144,3.7806,3.7822,3.7822,3.7822,3.7921,3.8302,3.8908,3.9159,3.9664,4.0237,4.0385,4.072,4.1261,4.155,4.1702,4.1759,4.1162,4.0184,3.9111,3.8741,3.7945,3.6956,3.6735,3.6346,3.5926,3.5656,3.565,3.5739,3.5622,3.5622,3.5622,3.5622,3.5622,3.5622,3.5622,3.5622,3.5622,3.5622,3.5622,3.5622,3.5622,3.5622,3.5622,3.5622,3.5489,3.5428,3.5744,3.517,3.4293,3.3152,3.3452,3.3807,3.3807,3.3807,3.3807,3.3807,3.3807,3.3807,3.3807,3.322,3.2559,3.1898,3.1861,3.1861,3.1861,3.1628,3.1465,3.1465,3.1157,3.1267,3.1862,3.2005,3.2737,3.397,3.413,3.4102,1.3525,1.445,1.5561,1.6586,1.7468,1.8869,0.0,0.0,2.3515,2.4751,2.6524,2.7758,2.7443,2.8862,3.0182,3.0462,3.1016,3.1377,3.1467,3.1482,3.1482,3.1482,3.1482,3.1735,3.2452,3.3036,3.3694,3.4427,3.504,3.5429,3.5504,3.6117,3.6492,3.6615,3.7279,3.769,3.7822,3.7822,3.7822,3.7822,3.8469,3.8799,3.8962,4.015,4.0716,4.0827,4.1358,4.1955,4.2519,4.2546,4.2831,4.3263,4.3171,4.2606,4.1663,4.0065,3.9315,3.8977,3.784,3.7403,3.7085,3.5943,3.5941,3.6224,3.5739,3.5622,3.5622,3.5622,3.5622,3.5622,3.5622,3.5622,3.5622,3.5622,3.5622,3.5622,3.5622,3.5622,3.5622,3.5622,3.5582,3.5513,3.5376,3.5586,3.5489,3.4816,3.4211,3.3807,3.3807,3.3807,3.3807,3.3807,3.3807,3.3807,3.3807,3.3715,3.3623,3.3532,3.3532,3.3532,3.3532,3.3505,3.3478,3.3478,3.3433,3.3442,3.3534,3.4265,3.4676,3.4877,3.5656,3.5566,1.5457,1.7298,1.8987,0.0,2.0893,2.2663,2.4519,2.5315,2.5937,2.7132,2.8631,2.9645,2.9326,3.0279,3.1106,0.0,3.1287,3.1482,3.1482,3.1482,3.139,3.0986,3.1228,3.1735,3.2452,3.311,3.3769,3.4427,3.5115,3.5668,3.6117,3.6446,3.7008,3.793,3.8286,3.8635,3.9119,3.9119,3.9119,3.9119,3.9437,3.9766,4.0101,4.0651,4.1087,4.1446,4.208,4.248,4.2732,4.3014,4.3286,4.3497,4.3497,4.3277,4.2858,4.1632,4.0635,3.9906,3.9376,3.8737,3.8062,3.7059,3.6722,3.6495,3.5802,3.5622,3.5622,3.5622,3.5622,3.5622,3.5622,3.5622,3.5622,3.5622,3.5622,3.5622,3.5622,3.5622,3.5622,3.5622,3.5854,3.6146,3.6365,3.6379,3.6386,3.6454,3.5771,3.5238,3.5238,3.4816,3.4321,3.3844,3.3807,3.3807,3.3807,3.3807,3.3807,3.3807,3.3807,3.3807,3.3807,3.3807,3.4027,3.4504,3.4504,3.4761,3.5257,3.5587,3.6009,3.6468,3.6817,3.7052,1.6835,1.9365,0.0,2.2049,2.3999,2.6015,2.6711,2.7342,2.811,2.9158,3.0148,3.0791,3.0791,3.1195,3.1482,3.1482,3.1482,3.1482,3.1482,3.1317,3.1135,3.0821,3.1061,3.1567,3.2445,3.311,3.3955,3.5049,3.5583,3.6153,3.6904,3.7128,3.7758,3.8854,3.9139,3.9577,4.0319,4.0154,4.0254,4.0563,4.0417,4.0625,4.1178,4.1313,4.1707,4.2306,4.2714,4.2995,4.3105,4.3493,4.3712,4.3791,4.3679,4.3646,4.3557,4.2871,4.192,4.0944,4.0709,4.0092,3.9322,3.8443,3.7843,3.7284,3.6403,3.598,3.5783,3.5667,3.5622,3.5622,3.5622,3.5622,3.5622,3.5622,3.5694,3.581,3.581,3.5941,3.6054,3.6054,3.6357,3.6803,3.7285,3.7183,3.7214,3.7747,3.7331,3.6798,3.6358,3.5752,3.5147,3.4541,3.4266,3.4137,3.4137,3.3935,3.3807,3.3807,3.3807,3.3807,3.3807,3.4009,3.4412,3.499,3.5229,3.5679,3.6303,3.6505,3.6927,3.7526,3.7716,3.8138,1.7267,0.0,2.314,2.4365,2.6606,2.8682,2.934,2.9968,3.0612,3.1243,3.1422,3.1437,3.1437,3.1467,3.1482,3.1482,3.1482,3.1482,3.1482,3.0956,3.0776,3.1362,3.0926,3.1056,3.2446,3.3135,3.4363,3.6469,3.6653,3.6972,3.7716,3.8469,3.8854,3.8908,3.9662,4.0319,4.0856,4.0368,4.0642,4.175,4.1178,4.1178,4.1793,4.2382,4.2939,4.3444,4.3479,4.366,4.3967,4.3986,4.4204,4.4527,4.4136,4.3967,4.3955,4.3594,4.3123,4.2513,4.172,4.1394,4.1137,3.9943,3.933,3.8833,3.7848,3.6988,3.6266,3.5739,3.5622,3.5622,3.5622,3.5622,3.5622,3.5622,3.5985,3.6392,3.6392,3.6803,3.7135,3.7135,3.7173,3.7323,3.779,3.7875,3.8062,3.859,3.8652,3.8065,3.6505,3.6266,3.6248,3.6229,3.5477,3.4954,3.4954,3.4266,3.3807,3.3807,3.3807,3.3807,3.3807,3.4559,3.4972,3.499,3.5844,3.6266,3.6303,3.7074,3.7489,3.7514,3.8303,3.8689,1.8429,0.0,2.4445,2.6089,2.817,3.0043,3.0731,3.1046,3.112,3.0896,3.0522,3.0103,2.9669,2.9594,2.9729,3.0163,3.0582,3.1001,3.1407,3.1704,3.1584,3.0926,3.1435,3.2053,3.2566,3.3154,0.0,3.5927,3.6438,3.7223,3.8492,3.8745,3.9139,3.9662,4.0285,4.0703,4.0903,4.1105,4.142,4.181,4.2203,4.2517,4.274,4.3592,4.4069,4.4223,4.4223,4.428,4.4419,4.4419,4.4474,4.4553,4.4146,4.4016,4.3955,4.3612,4.3375,4.3178,4.2921,4.2577,4.2096,4.1153,4.0551,3.9925,3.8541,3.7685,3.7057,3.6319,3.5854,3.5622,3.5622,3.5622,3.5622,3.5622,3.5739,3.5854,3.5854,3.6011,3.6249,3.6603,3.6684,3.6943,3.7755,3.7893,3.8065,3.8627,3.8707,3.8303,3.7221,3.7092,3.689,3.6358,3.6046,3.5862,3.5862,3.5605,3.5459,3.5459,3.5459,3.5459,3.5459,3.5716,3.6119,3.6652,3.6945,3.7349,3.79,3.8157,3.8303,3.8303,3.8579,3.8707,2.0474,2.3379,2.6207,2.8026,2.9651,3.0986,3.1377,3.1345,3.0971,3.0313,2.9475,2.8727,2.8308,2.8038,2.8248,2.94,2.9924,3.0679,3.2091,3.2467,3.2536,3.2388,3.2967,3.3536,0.0,0.0,0.0,3.6388,3.7126,3.806,3.9282,3.9315,3.9629,4.0368,4.0733,4.1133,4.1534,4.1707,4.1985,4.2336,4.3118,4.3573,4.3714,4.4336,4.458,4.458,4.458,4.4657,4.4776,4.4776,4.4849,4.4919,4.4542,4.4382,4.4346,4.3868,4.3679,4.3679,4.3548,4.325,4.2886,4.2378,4.1776,4.104,3.9866,3.9079,3.8373,3.7393,3.673,3.6222,3.5966,3.5739,3.5667,3.5854,3.6011,3.6165,3.6165,3.6316,3.6464,3.6643,3.6825,3.7117,3.779,3.8065,3.83,3.8658,3.8707,3.8505,3.7991,3.7918,3.7716,3.7202,3.689,3.6725,3.6725,3.6468,3.6303,3.6303,3.6303,3.6303,3.6303,3.6578,3.6964,3.7477,3.7771,3.8175,3.8707,3.8707,3.8707,3.8707,3.8707,3.8707,2.3165,2.5783,2.8236,3.0056,3.0989,3.1467,3.1437,3.0941,3.0253,2.9564,2.8353,2.7445,2.7385,0.0,2.7141,2.9116,2.9505,3.0567,3.3284,3.3161,3.3567,0.0,0.0,0.0,0.0,0.0,0.0,3.7908,0.0,3.9359,4.0087,4.0121,4.0368,4.0949,4.0978,4.156,4.2732,4.2226,4.2397,4.3272,4.3819,4.4261,4.4657,4.4657,4.4657,4.4663,4.4657,4.4849,4.5137,4.5137,4.5322,4.5568,4.5222,4.5096,4.5011,4.429,4.4028,4.3986,4.3646,4.3513,4.3497,4.3497,4.2983,4.2273,4.1706,4.0998,4.0094,3.8857,3.8099,3.7453,3.67,3.6088,3.581,3.6291,3.6843,3.719,3.719,3.7542,3.772,3.7323,3.7614,3.7946,3.7946,3.8382,3.8707,3.8707,3.8707,3.8707,3.8707,3.8707,3.8707,3.8707,3.801,3.7551,3.7551,3.6853,3.6413,3.6413,3.6413,3.6413,3.6413,3.7147,3.7551,3.7551,3.8303,3.8707,3.8707,3.8707,3.8707,3.8707,3.8707,3.8726,2.415,2.6448,2.8488,2.9941,3.0896,3.1405,3.0881,3.0268,2.934,2.7694,2.6303,2.5076,2.4103,2.4582,0.0,2.7111,2.8607,0.0,3.3284,3.4001,0.0,3.5684,0.0,3.6427,3.6767,3.7312,0.0,0.0,3.8886,3.9521,4.0621,4.0703,4.0967,4.1534,4.2243,4.2759,4.3066,4.3619,4.3994,4.4233,4.4644,4.4935,4.5131,4.5285,4.5399,4.5497,4.5399,4.5381,4.5457,4.5457,4.5513,4.5568,4.5222,4.5096,4.5052,4.4606,4.4447,4.4392,4.3986,4.3693,4.3497,4.3497,4.3351,4.3075,4.2315,4.1668,4.1016,4.0075,3.9055,3.8148,3.7954,3.7343,3.6825,3.6943,3.7097,3.719,3.719,3.7285,3.7433,3.7685,3.815,3.8515,3.8515,3.8627,3.8707,3.8707,3.8707,3.8707,3.8707,3.8707,3.8707,3.8707,3.8524,3.8395,3.8395,3.8212,3.8083,3.8083,3.8083,3.8083,3.8083,3.8285,3.8395,3.8395,3.8597,3.8707,3.8707,3.8707,3.8707,3.8707,3.8707,3.9019,2.5895,2.7759,2.9387,3.0556,3.0924,3.0836,2.9879,2.8951,2.7619,2.5345,2.4059,2.2936,2.1605,2.2899,2.4513,0.0,0.0,0.0,3.3308,3.4563,3.5657,0.0,3.7497,0.0,3.822,3.8588,3.9076,0.0,3.9833,4.0147,4.0886,4.1133,4.1654,4.2397,4.2923,4.343,4.3839,4.436,4.4756,4.4957,4.5124,4.5293,4.5522,4.5569,4.5668,4.5794,4.5723,4.5699,4.5731,4.5731,4.5713,4.5661,4.5488,4.5361,4.5282,4.4943,4.4825,4.4757,4.4401,4.4136,4.3931,4.3597,4.3497,4.3406,4.2947,4.2609,4.2213,4.1412,4.0474,3.958,3.8901,3.8213,3.7691,3.7541,3.7506,3.7506,3.7506,3.7506,3.7578,3.7859,3.8132,3.8415,3.8658,3.8707,3.8707,3.8707,3.8707,3.8707,3.8707,3.8707,3.8707,3.8707,3.8707,3.8707,3.8707,3.8707,3.8707,3.8707,3.8707,3.8707,3.8707,3.8707,3.8707,3.8707,3.8707,3.8707,3.8707,3.8707,3.8707,3.8707,3.9056,3.946,2.7578,2.9097,3.0329,3.1161,3.0827,3.0043,2.8651,2.7175,2.5371,2.2795,0.0,2.0855,1.9692,2.1522,2.3542,2.4462,0.0,3.0145,3.3161,3.4722,3.6335,3.8541,3.8859,3.9209,4.002,4.0018,4.0197,4.0839,4.1098,4.1216,4.1216,4.1697,4.2438,4.3444,4.3471,4.3933,4.4825,4.4863,4.504,4.5429,4.5324,4.544,4.5726,4.5547,4.5547,4.5653,4.5685,4.5733,4.5806,4.5831,4.5842,4.5813,4.5813,4.5722,4.5601,4.5304,4.5182,4.5118,4.4781,4.4676,4.4553,4.3823,4.3582,4.3582,4.3513,4.3497,4.3332,4.2653,4.2029,4.127,3.9894,3.9139,3.8685,3.8381,3.8339,3.8303,3.8194,3.8086,3.8032,3.8032,3.8032,3.8132,3.8627,3.8707,3.8707,3.8707,3.8707,3.8707,3.8707,3.8707,3.8707,3.8707,3.8707,3.8707,3.8707,3.8707,3.8707,3.8707,3.8707,3.8707,3.8707,3.8707,3.8707,3.8707,3.8707,3.8707,3.8707,3.8707,3.8762,3.8891,3.957,4.001,2.7274,2.8474,2.9442,3.0269,3.0129,2.9277,2.7542,2.5311,0.0,0.0,1.9267,1.8644,1.8425,1.9938,2.1949,2.4238,2.6008,2.8464,3.233,3.3536,3.507,0.0,3.8632,3.9209,4.002,4.0463,0.0,0.0,4.2087,4.2814,4.2814,4.2904,4.3528,4.48,4.4956,4.5214,4.5616,4.5616,4.5591,4.5555,4.5272,4.5226,4.5371,4.4968,4.4826,4.49,4.5124,0.0,4.5266,4.5546,4.5718,4.5799,4.5799,4.5784,4.5775,4.5694,4.561,4.5476,4.5118,4.5011,4.4877,4.4146,4.3893,4.3849,4.3597,4.3497,4.3461,4.3314,4.2766,4.2111,4.1818,4.1183,4.0638,4.0559,4.0522,4.0339,3.9713,3.9035,3.8546,3.8546,3.8546,3.8578,3.8658,3.8707,3.8707,3.8707,3.8707,3.8707,3.8707,3.8707,3.8707,3.8707,3.8707,3.8707,3.8707,3.8707,3.8707,3.8707,3.8707,3.8707,3.8707,3.8707,3.8707,3.8707,3.8707,3.8707,3.8707,3.8707,3.9038,3.9698,3.9827,4.0598,2.6228,2.7459,2.8488,2.9049,2.8814,2.7769,2.5226,0.0,0.0,0.0,1.7486,1.7043,1.6369,1.8556,0.0,2.122,2.3733,2.6657,2.9704,3.1949,0.0,3.7059,3.8264,3.9335,0.0,4.0822,4.1379,4.2152,4.3304,4.3741,4.322,4.3828,4.4536,4.5221,4.4941,4.4863,4.507,4.4596,4.4345,4.4337,4.3724,4.3483,4.3528,4.324,4.3152,4.3293,4.413,4.4525,4.4615,4.5055,4.5352,4.5534,4.5534,4.5655,4.5782,4.5716,4.5706,4.5677,4.5438,4.5362,4.5263,4.4738,4.4455,4.4223,4.3646,4.3612,4.3726,4.3548,4.3222,4.2818,4.2415,4.2011,4.1625,4.1203,4.0781,4.0267,3.9441,3.8964,3.8707,3.8707,3.8707,3.8707,3.8707,3.8707,3.8707,3.8707,3.8707,3.8707,3.8707,3.8707,3.8707,3.8707,3.8707,3.8707,3.8707,3.8707,3.8707,3.8707,3.8707,3.8707,3.8707,3.8707,3.8707,3.8707,3.8707,3.8707,3.8707,3.8707,3.9111,3.99,4.0322,4.1167,2.4999,2.6368,2.7499,2.7808,2.7435,2.6139,2.3174,2.1352,0.0,0.0,1.5948,1.5661,1.4749,1.7106,1.9026,0.0,2.1465,2.4591,2.7214,3.0232,3.3296,0.0,3.7822,0.0,4.088,4.1308,0.0,4.3394,4.4141,4.4265,4.3662,4.4484,4.4838,4.4552,4.3822,4.3293,4.3006,4.229,4.1948,4.1994,4.1265,4.0888,4.0906,4.0686,4.0762,4.1141,4.2271,4.3052,4.3523,4.4011,4.4515,4.5001,4.5001,4.5287,4.5675,4.5592,4.5663,4.5786,4.5699,4.5645,4.5582,4.5265,4.4881,4.4501,4.3899,4.3868,4.3955,4.366,4.3597,4.345,4.2742,4.2561,4.2396,4.1772,4.1001,4.0194,3.9386,3.9093,3.8909,3.8726,3.8707,3.8707,3.8707,3.8707,3.8707,3.8707,3.8707,3.8707,3.8707,3.8707,3.8707,3.8707,3.8707,3.8707,3.8707,3.8707,3.8707,3.8707,3.8707,3.8707,3.8707,3.8762,3.8773,3.8773,3.8773,3.8865,3.9031,3.8977,3.946,4.0432,4.1056,4.1791,2.3739,2.5413,2.6502,2.6933,2.6307,2.4929,2.2531,0.0,1.7303,1.5415,1.4553,1.4279,1.4706,1.5401,1.6648,1.8859,1.995,2.2019,2.6294,2.8653,3.1392,3.5393,0.0,0.0,4.1227,4.2009,4.2807,4.3796,4.3932,4.4319,4.5062,4.4692,4.3737,4.2168,4.1362,4.0145,3.8518,3.8415,3.8285,3.8214,3.7814,3.762,3.7636,3.7245,3.7544,3.8454,3.8908,4.001,0.0,4.185,4.2786,4.4037,4.4037,4.4568,4.5351,4.5391,4.5585,4.5805,4.5869,4.5828,4.5722,4.5406,4.4965,4.458,4.4501,4.428,4.3998,4.3955,4.3955,4.3862,4.3471,4.3387,4.3369,4.3296,4.2653,4.1864,4.1056,4.0304,3.957,3.8836,3.8707,3.8707,3.8707,3.8707,3.8707,3.8707,3.8707,3.8707,3.8707,3.8707,3.8707,3.8707,3.8707,3.8707,3.8707,3.8707,3.8707,3.8707,3.8707,3.8707,3.8707,3.8933,3.9044,3.9044,3.9044,3.9416,4.0132,3.9921,4.0579,4.2084,4.2158,4.2616,2.0503,2.2616,2.43,2.4686,2.4451,2.3429,2.0729,0.0,1.6507,1.474,1.39,1.3557,1.3775,1.4293,1.5112,1.6428,1.7357,1.8954,2.1909,2.4225,2.7269,3.1765,3.4179,0.0,0.0,0.0,4.28,4.2756,4.1561,3.9868,3.7653,3.9675,4.015,3.8472,3.6874,3.5342,3.3897,3.4048,3.3352,3.1888,3.1969,3.1641,3.0929,3.0773,3.171,3.348,3.4393,3.6015,0.0,3.9084,3.9975,4.087,4.2244,4.3175,4.3865,4.4853,4.5338,4.5528,4.5675,4.5752,4.5768,4.5647,4.5363,4.5036,4.4706,4.4631,4.4612,4.4401,4.4346,4.4261,4.3881,4.3646,4.3369,4.2892,4.2525,4.2084,4.1277,4.0855,4.0377,3.957,3.9423,3.9276,3.8781,3.8707,3.8707,3.8707,3.8707,3.8707,3.8707,3.9129,3.9239,3.8762,3.8707,3.8707,3.8707,3.8707,3.8707,3.8707,3.8707,3.8707,3.8707,3.8803,3.8855,3.8855,3.9335,3.9741,4.0074,4.0423,4.1203,4.2304,4.2304,4.2727,1.8006,2.0265,2.2205,2.2737,2.2616,2.1686,0.0,1.7426,1.5918,1.4168,1.3472,1.3198,1.3198,1.3672,1.4274,1.4815,1.5629,1.7008,1.9265,2.1135,2.3933,0.0,0.0,3.4507,0.0,4.1215,4.1681,4.0423,3.7646,3.4072,2.9618,3.1321,3.2403,3.2268,3.052,2.8715,2.6959,2.7544,2.682,2.4736,2.543,2.5261,2.4469,2.4469,2.5531,2.7388,2.8762,3.0597,0.0,3.4911,3.6149,3.6983,3.9277,4.0735,4.1672,4.3242,4.4131,4.4639,4.5313,4.5597,4.5663,4.5776,4.5669,4.5444,4.507,4.5053,4.5104,4.483,4.4676,4.4527,4.4233,4.3912,4.3517,4.2945,4.2797,4.2562,4.1658,4.1521,4.1346,4.0428,4.0249,4.0065,3.9515,3.9423,3.9423,3.9423,3.9423,3.9423,3.9423,3.99,4.0047,3.9478,3.9423,3.9221,3.8744,3.8707,3.8707,3.8707,3.8707,3.8707,3.8707,3.9013,3.9183,3.9183,3.9995,4.0529,4.0769,4.125,4.1882,4.2653,4.2653,4.2947,1.6928,1.8982,2.0428,2.1642,2.1093,1.9749,1.7943,1.6589,1.5259,1.3622,1.3252,1.3198,1.3198,1.3672,1.4274,1.4815,1.5301,1.6645,1.9584,2.0552,0.0,0.0,0.0,3.1713,3.7024,3.9231,3.9258,3.6655,3.2144,0.0,2.2658,1.9634,1.9578,2.293,2.2104,2.0114,1.7105,1.8338,1.8346,1.7032,1.8346,1.8966,1.8966,1.8966,1.9478,2.0516,2.1861,2.3431,0.0,2.8928,3.1144,3.2571,3.4958,3.698,3.8836,4.0303,4.1629,4.2968,4.4773,4.5362,4.536,4.5699,4.5801,4.5796,4.5792,4.5559,4.5263,4.5144,4.4849,4.458,4.458,4.4308,4.3998,4.3967,4.3967,4.367,4.2533,4.2551,4.2456,4.1305,4.1093,4.1093,4.1093,4.1093,4.1093,4.1093,4.1093,4.1093,4.1093,4.1093,4.1093,4.1093,4.1093,4.0432,3.8836,3.8707,3.8707,3.8707,3.8707,3.8707,3.8707,3.9711,4.0282,4.0282,4.1138,4.1975,4.2783,4.2447,4.269,4.3479,4.3479,4.3479,1.2437,1.4312,1.5988,1.7096,1.7247,1.6807,1.5448,1.4868,1.4205,1.295,1.2974,1.3198,1.3198,1.3348,1.384,1.4935,1.5242,1.5718,1.6901,0.0,0.0,2.5629,3.124,3.6053,0.0,0.0,3.3386,2.9881,2.5416,2.0155,1.3888,1.1049,1.1642,1.6137,1.5308,1.3823,1.2026,1.3223,1.2867,1.0763,1.1974,1.2172,1.1357,1.1357,1.2884,1.5638,1.6014,1.7913,2.0977,2.3719,2.5114,2.5927,3.0692,3.2952,3.3925,3.7834,3.9851,4.0909,4.2772,4.3829,4.448,4.522,4.55,4.556,4.5743,4.5741,4.5611,4.5493,4.5201,4.4943,4.4943,4.4682,4.4419,4.4419,4.4204,4.3972,4.3905,4.3571,4.3084,4.2372,4.206,4.1754,4.1203,4.1111,4.1111,4.1111,4.1111,4.1111,4.1111,4.1589,4.1717,4.1167,4.1589,4.1277,3.9662,3.9515,3.9294,3.8726,3.9221,3.9515,3.9515,4.0375,4.0861,4.0861,4.1673,4.2207,4.2465,4.2904,4.324,4.3497,4.3497,4.3497,0.9196,1.1195,1.2963,1.414,1.4543,1.4412,1.3489,1.3522,1.3431,1.24,1.2577,1.2978,1.3163,1.3067,1.3368,1.4556,1.4561,1.4931,0.0,0.0,0.0,2.556,0.0,0.0,0.0,2.8966,2.5109,2.1307,1.7014,1.2031,0.6181,0.3503,0.3491,0.6599,0.7047,0.6623,0.5296,0.6526,0.6155,0.4157,0.5408,0.5606,0.4946,0.5452,0.6887,0.9124,1.0201,1.2178,0.0,1.7814,1.9242,2.0226,2.5262,2.773,2.9034,3.3561,3.6055,3.7581,4.0442,4.1832,4.258,4.4183,4.4997,4.5388,4.5562,4.5699,4.5783,4.5725,4.5552,4.5361,4.5361,4.5082,4.48,4.48,4.4587,4.4455,4.458,4.4337,4.3986,4.3578,4.3181,4.2788,4.2258,4.2073,4.2011,4.2011,4.2011,4.2011,4.2011,4.2433,4.2561,4.2066,4.2451,4.2213,4.091,4.0524,4.0139,3.9643,4.0084,4.0359,4.0359,4.113,4.1552,4.1552,4.2341,4.2745,4.2745,4.3259,4.3497,4.3497,4.3497,4.3497,0.0,0.9203,1.0973,1.2255,1.2598,1.2523,1.1864,1.2491,0.0,1.1986,1.2138,1.2639,1.3229,1.291,1.2912,1.3982,1.363,1.4381,0.0,1.8898,0.0,0.0,2.443,0.0,1.8606,1.7127,1.4948,1.1499,0.7526,0.3517,-0.0296,-0.2967,-0.4375,-0.441,-0.1994,-0.1195,-0.2298,-0.1096,-0.1096,-0.2298,-0.0897,-0.0299,-0.0199,0.0998,0.1599,0.0,0.4485,0.6374,0.7855,1.1367,1.3701,1.5266,1.884,2.1664,2.4072,2.7928,3.0742,3.331,3.7716,3.9365,4.0071,4.2779,4.4342,4.5199,4.5273,4.5522,4.5816,4.5889,4.5852,4.5796,4.5809,4.5486,4.5161,4.514,4.5118,4.503,4.4732,4.4872,4.4966,4.4682,4.429,4.4016,4.4016,4.3726,4.3497,4.3497,4.3497,4.3497,4.3497,4.3497,4.3497,4.3497,4.3497,4.3185,4.2451,4.1662,4.1167,4.1111,4.1167,4.1203,4.1203,4.1974,4.2396,4.2396,4.3112,4.3497,4.3497,4.3497,4.3497,4.3497,4.3497,4.3497,0.3212,0.0,0.7487,0.8097,0.8812,0.9469,0.0,1.1125,1.2019,0.0,0.0,1.2491,1.4175,1.3383,1.3111,1.5193,1.5196,1.5326,1.643,0.0,0.0,2.1236,1.4592,1.0094,1.0025,0.8058,0.6043,0.412,0.1428,-0.1469,-0.4466,-0.7131,-0.8521,-0.8539,-0.796,-0.6773,-0.5083,-0.4777,-0.4777,-0.5083,-0.3699,-0.3104,-0.3004,-0.2704,-0.2002,-0.0999,0.0699,0.2197,0.359,0.6527,0.8492,1.0065,1.3683,1.6708,1.9487,2.3834,2.7275,3.0302,3.35,3.6372,3.9191,4.2303,4.3658,4.4228,4.5051,4.5522,4.5797,4.5824,4.5819,4.5792,4.5813,4.5722,4.5603,4.5512,4.5302,4.5159,4.5322,4.5011,4.4757,4.4943,4.4455,4.4016,4.4016,4.3726,4.3497,4.3497,4.3497,4.3497,4.3497,4.3497,4.3497,4.3497,4.3497,4.3406,4.3222,4.2488,4.1772,4.1148,4.168,4.2029,4.2029,4.2782,4.3222,4.3222,4.3387,4.3497,4.3497,4.3497,4.3497,4.3497,4.3497,4.3497,0.0357,0.2781,0.5178,0.5944,0.6926,0.7908,0.8665,0.0,0.0,0.0,0.0,1.1923,1.3465,1.2809,1.2581,1.4273,1.4734,0.0,0.0,0.0,0.0,1.3764,0.58,-0.0425,0.0,-0.2302,-0.251,-0.4446,-0.5225,-0.6496,-0.855,-1.0608,-1.1497,-1.0821,-1.2022,-1.1132,-0.7878,-0.7192,-0.6901,-0.6901,-0.6216,-0.5822,-0.5822,-0.5222,-0.4514,-0.3806,-0.2404,-0.1101,0.03,0.2394,0.3988,0.5577,0.9421,1.2183,1.4534,1.9226,2.2834,2.579,2.9193,3.3331,3.7568,4.0147,4.1697,4.2784,4.396,4.4569,4.4979,4.566,4.5819,4.5816,4.5838,4.5827,4.5794,4.5744,4.5602,4.5519,4.5698,4.5428,4.5208,4.5378,4.4935,4.4489,4.4489,4.4223,4.3962,4.3758,4.3726,4.366,4.3513,4.3497,4.3497,4.3497,4.3497,4.3497,4.3497,4.3094,4.2653,4.2231,4.2598,4.2837,4.2837,4.3259,4.3497,4.3497,4.3497,4.3497,4.3497,4.3497,4.3497,4.3497,4.3497,4.3497,-0.1655,0.0858,0.352,0.4962,0.6226,0.7294,0.8084,0.0,0.0,0.0,0.0,0.0,0.0,1.2318,0.0,0.0,0.0,0.0,2.2054,1.423,0.6845,0.3932,-0.3576,0.0,-1.6104,-1.2428,-1.0513,-1.2517,-1.152,-1.1381,-1.2689,-1.3674,-1.3872,-1.3086,-1.4651,-1.3974,-1.0863,-0.96,-0.892,-0.892,-0.8726,-0.8627,-0.8528,-0.7226,-0.6625,-0.6526,-0.5018,-0.3709,-0.2501,-0.1201,0.02,0.1698,0.5386,0.7638,0.953,1.4453,1.7879,2.0869,2.5756,3.071,3.5216,3.7494,3.9391,4.1064,4.2449,4.3159,4.3764,4.5179,4.5638,4.5752,4.5852,4.5837,4.5804,4.5877,4.5885,4.5885,4.5907,4.585,4.5815,4.5809,4.5432,4.512,4.5096,4.4825,4.4474,4.4058,4.4016,4.3881,4.3548,4.3497,4.3497,4.3497,4.3497,4.3497,4.3497,4.3497,4.3463,4.3375,4.3444,4.3497,4.3497,4.3497,4.3497,4.3497,4.3497,4.3497,4.3497,4.3497,4.3497,4.3497,4.3497,4.3497,-0.2036,-0.0253,0.1976,0.4642,0.6007,0.7154,0.9019,0.0,0.0,0.0,0.0,0.0,0.0,0.0,0.0,0.0,0.0,1.7516,0.0,0.0,-0.5162,-0.7944,0.0,-2.2586,-2.2198,-1.941,-1.7308,-1.6643,-1.5477,-1.5302,-1.6593,-1.5947,-1.6358,-1.8264,-1.5664,-1.4435,-1.4861,-1.3657,-1.3,-1.3,-1.1843,-1.1263,-1.1263,-0.9989,-0.9402,-0.9205,-0.6719,-0.5625,-0.532,-0.3912,-0.2604,-0.1199,0.05,0.2686,0.5335,0.9421,1.3191,1.7484,2.5769,2.9904,3.2083,3.6082,3.8046,3.9177,4.0961,4.1998,4.2721,4.3745,4.4679,4.5427,4.5747,4.5815,4.5794,4.5808,4.5821,4.5825,4.5885,4.589,4.5881,4.5803,4.5507,4.5227,4.512,4.4825,4.4474,4.4058,4.4016,4.3881,4.3548,4.3497,4.3497,4.3497,4.3497,4.3497,4.3497,4.3497,4.3304,4.2864,4.325,4.3497,4.3497,4.3497,4.3497,4.3497,4.3497,4.3497,4.3497,4.3497,4.3497,4.3497,4.3497,4.3497,-0.2958,-0.1496,0.045,0.337,0.5236,0.6767,0.8123,0.0,0.0,0.0,0.0,0.0,0.0,0.0,0.0,0.0,0.0,1.4712,0.9457,0.0353,-0.9089,0.0,0.0,-2.6159,-2.2606,-2.0544,-1.8975,-1.7702,-1.7702,-1.7695,-1.7609,-1.7102,-1.7311,-1.8503,-1.617,-1.5222,-1.5778,-1.5229,-1.4172,-1.2818,-1.2237,-1.1945,-1.1853,-1.1263,-1.1072,-1.0872,-0.9,-0.8113,-0.8011,-0.5919,-0.4716,-0.3907,-0.19,0.01,0.2485,0.7882,1.1818,1.5418,2.2288,2.5775,2.798,3.2275,3.4273,3.5492,3.8206,3.9569,4.0478,4.1931,4.3367,4.4611,4.533,4.5534,4.557,4.58,4.5844,4.587,4.5993,4.5917,4.5857,4.5862,4.5636,4.5435,4.5381,4.5243,4.5011,4.4663,4.4594,4.4382,4.3836,4.3772,4.3693,4.3513,4.3497,4.3497,4.3497,4.3497,4.341,4.3142,4.3087,4.3214,4.3497,4.3497,4.3497,4.3497,4.3497,4.3497,4.3497,4.3497,4.3497,4.3497,4.3497,4.3497,-0.3899,-0.2662,-0.084,0.2055,0.4477,0.6398,0.7488,0.0,0.0,0.0,0.0,0.0,0.0,0.0,0.0,0.0,1.7269,1.0494,-0.325,-0.8936,-1.5218,-2.4771,-2.7557,-2.6922,-2.2199,-2.0854,-1.9861,-1.8588,-1.9405,-1.9497,-1.8588,-1.8056,-1.8048,-1.8964,-1.6936,-1.6103,-1.6655,-1.6103,-1.4758,-1.2818,-1.2818,-1.2818,-1.2818,-1.2528,-1.2334,-1.2334,-1.097,-1.0485,-1.0288,-0.7912,-0.6924,-0.6719,-0.4004,-0.1701,0.0699,0.6314,1.0495,1.3944,1.852,2.1861,2.4713,2.8374,3.0579,3.2333,3.5169,3.6911,3.8311,4.006,4.164,4.3125,4.4562,4.5093,4.5334,4.5685,4.5813,4.5909,4.6033,4.5953,4.5874,4.5891,4.5778,4.5677,4.5648,4.562,4.5495,4.514,4.5096,4.4853,4.4233,4.4076,4.3893,4.3646,4.3548,4.3497,4.3497,4.3375,4.3375,4.3479,4.3087,4.305,4.3479,4.3497,4.3497,4.3497,4.3497,4.3497,4.3497,4.3497,4.3497,4.3497,4.3497,4.3497,-0.4499,-0.3477,-0.1882,0.1163,0.3938,0.0,0.8297,1.0377,0.0,0.0,0.0,0.0,0.0,0.0,0.0,1.8382,1.2597,0.5873,0.0309,0.0,-3.0069,-2.6324,-2.7339,-2.6921,-2.3317,-2.2872,-2.2315,-2.1114,-2.1114,-2.1114,-2.1025,-1.8956,-1.9231,-2.2599,-1.8211,-1.6929,-1.9214,-1.6929,-1.573,-1.554,-1.554,-1.554,-1.5439,-1.4268,-1.3776,-1.3686,-1.2328,-1.1755,-1.1653,-1.0288,-0.9702,-0.9402,-0.6719,-0.3406,0.04,0.3374,0.7573,1.2522,1.6352,2.0064,2.3448,2.5694,2.8374,3.1042,3.2138,3.4395,3.6829,3.822,3.9345,4.0665,4.3162,4.4468,4.5145,4.5299,4.5568,4.582,4.5909,4.5994,4.6036,4.5918,4.5894,4.5852,4.5809,4.5677,4.5495,4.514,4.5096,4.4966,4.4606,4.4233,4.3986,4.3955,4.3712,4.3497,4.3497,4.305,4.2976,4.3479,4.3444,4.3444,4.3497,4.3497,4.3497,4.3497,4.3497,4.3497,4.3497,4.3497,4.3497,4.3497,4.3497,4.3497,-0.4734,-0.4695,-0.4115,-0.0906,0.0,0.0,0.0,0.0,0.0,0.0,0.0,0.0,0.0,0.0,1.7761,2.1422,0.8675,-0.3545,-0.905,-2.3106,-3.1203,-2.6938,-2.6559,-2.5314,-2.1958,-2.2524,-2.2315,-2.0305,-2.1578,-2.212,-2.1382,-1.9761,-1.9405,-2.0863,-1.8311,-1.703,-1.721,-1.703,-1.6574,-1.5832,-1.5832,-1.5832,-1.5825,-1.5337,-1.5045,-1.5045,-1.3686,-1.3102,-1.3006,-1.175,-1.117,-1.0872,-0.8294,-0.6294,-0.4485,-0.01,0.3862,0.757,1.2284,1.5937,1.8969,2.1995,2.4357,2.6323,2.8617,3.1002,3.336,3.5738,3.7243,3.8872,4.2021,4.3375,4.397,4.4233,4.4846,4.5395,4.5491,4.5666,4.5805,4.5897,4.5874,4.5831,4.5808,4.5761,4.5642,4.5438,4.5419,4.5302,4.4943,4.4606,4.428,4.4046,4.3693,4.3497,4.3497,4.3321,4.3286,4.3497,4.3178,4.3142,4.3497,4.3497,4.3497,4.3497,4.3497,4.3497,4.3497,4.3497,4.3497,4.3497,4.3497,4.3497,-0.5709,-0.5833,-0.5655,0.0,0.0,0.0,0.0,0.0,0.0,0.0,0.0,0.0,0.0,0.0,0.0,0.0,0.3584,-1.1329,-2.091,-2.8787,-3.1854,-2.7262,-2.6698,-2.5273,-2.1466,-2.2349,-2.216,-1.9855,-2.1571,-2.2198,-2.0923,-2.013,-1.9864,-2.0236,-1.8822,-1.7612,-1.6779,-1.7353,-1.7037,-1.5832,-1.5832,-1.5832,-1.5832,-1.5832,-1.5832,-1.573,-1.4854,-1.4459,-1.4364,-1.3108,-1.2237,-1.1653,-0.9477,-0.8389,-0.7486,-0.2895,0.0995,0.4552,0.8553,1.2268,1.5591,1.8415,2.0766,2.2871,2.5398,2.8174,3.0784,3.3095,3.5097,3.7189,3.9747,4.1505,4.2722,4.3407,4.4111,4.4763,4.515,4.5379,4.559,4.5821,4.5837,4.5815,4.5827,4.5783,4.5725,4.5677,4.5637,4.5513,4.5302,4.4872,4.4419,4.3912,4.3726,4.3631,4.3532,4.3497,4.3497,4.3497,4.3178,4.3142,4.3479,4.3497,4.3497,4.3497,4.3497,4.3497,4.3497,4.3497,4.3497,4.3497,4.3497,4.3497,-0.76,-0.6809,-0.6182,0.0,0.0,0.0,0.0,0.0,0.0,0.0,0.0,1.2466,1.2718,0.0,0.0,0.7104,-0.3106,-1.6374,-3.3788,-3.6145,-3.374,-2.7446,-2.8138,-2.7274,-2.2411,-2.2798,-2.2412,-2.0196,-2.1182,-2.1349,-2.012,-2.0036,-2.0559,-2.1875,-1.9904,-1.8766,-1.8766,-1.8056,-1.703,-1.5825,-1.5825,-1.5832,-1.5832,-1.5832,-1.5832,-1.5832,-1.5832,-1.5832,-1.573,-1.4459,-1.3108,-1.1848,-1.0583,-0.919,-0.7687,-0.4986,-0.0694,0.4159,0.5541,0.9356,1.3963,1.5227,1.8102,2.118,2.2573,2.6002,2.9618,3.0464,3.2847,3.5353,3.6138,3.8753,4.1492,4.2831,4.3444,4.3942,4.4886,4.5189,4.5404,4.5717,4.5791,4.5812,4.5897,4.5728,4.5648,4.5783,4.5696,4.5586,4.5586,4.5011,4.4308,4.3582,4.3804,4.3849,4.3513,4.3497,4.3497,4.3497,4.3497,4.3497,4.3497,4.3497,4.3497,4.3497,4.3497,4.3497,4.3497,4.3497,4.3497,4.3497,4.3497,4.3497,-0.7628,-0.7576,0.0,0.0,0.0,0.0,0.0,0.0,0.0,0.0,0.0,1.1858,1.2887,0.0,0.0,-0.3737,-0.6766,-1.3719,-3.0358,-3.3639,-3.2966,-2.9304,-2.7511,-2.5996,-2.4484,-2.3713,-2.3,-2.2341,-2.2083,-2.1709,-2.1358,-2.0475,-2.0205,-2.0559,-1.9974,-1.891,-1.7259,-1.8142,-1.7508,-1.5524,-1.6657,-1.6662,-1.5832,-1.5832,-1.5832,-1.5832,-1.5832,-1.5832,-1.5825,-1.6365,-1.5792,-1.4561,-1.422,-1.2673,-1.0453,-0.7776,-0.4046,0.0195,0.3302,0.6634,0.9912,1.2085,1.4741,1.7499,1.9598,2.2407,2.559,2.8929,3.0472,3.1703,3.3955,3.5738,3.7623,4.0212,4.1392,4.2267,4.3489,4.4173,4.4712,4.5332,4.5641,4.5812,4.5824,4.582,4.5777,4.5658,4.5718,4.5539,4.4969,4.4707,4.4308,4.3582,4.3597,4.3597,4.3532,4.3497,4.3497,4.3497,4.3497,4.3497,4.3497,4.3497,4.3497,4.3497,4.3497,4.3497,4.3497,4.3497,4.3497,4.3497,4.3497,4.3497,-0.9838,-1.0238,0.0,0.0,0.0,0.0,0.0,0.0,0.0,0.0,0.0,0.9256,1.2918,1.082,0.0,-1.9041,-1.974,-2.1229,-3.1682,-3.3395,-3.2661,-3.0071,-2.7406,-2.5624,-2.517,-2.4066,-2.3401,-2.3401,-2.2119,-2.1519,-2.189,-2.0895,-2.0235,-2.0235,-2.0402,-1.9552,-1.7766,-1.8816,-1.8386,-1.6548,-1.7462,-1.747,-1.674,-1.6955,-1.7014,-1.7014,-1.6465,-1.6081,-1.5825,-1.6669,-1.648,-1.5717,-1.5068,-1.3886,-1.2177,-0.9485,-0.6285,-0.2866,0.0381,0.36,0.6683,0.9208,1.1768,1.4333,1.6691,1.9557,2.2532,2.5574,2.7673,2.9372,3.1053,3.2929,3.5195,3.8496,3.9939,4.1094,4.2832,4.3521,4.4081,4.5051,4.5395,4.5583,4.5782,4.5835,4.582,4.5733,4.5775,4.5565,4.49,4.48,4.4527,4.3791,4.3693,4.3646,4.3513,4.3497,4.3497,4.3497,4.3497,4.3497,4.3497,4.3497,4.3497,4.3497,4.3497,4.3497,4.3497,4.3497,4.3497,4.3497,4.3497,4.3497,-1.3046,0.0,0.0,0.0,0.0,0.0,0.0,0.0,0.0,0.0,0.0,0.4715,1.0799,1.0809,-0.1034,-3.4654,-3.6587,-3.43,-3.5684,-3.4645,-3.2781,-3.0248,-2.79,-2.6183,-2.5153,-2.4184,-2.3672,-2.3672,-2.1821,-2.1078,-2.1952,-2.1078,-2.0566,-2.0566,-2.0957,-2.0581,-1.9407,-1.9784,-1.9382,-1.8202,-1.8313,-1.8329,-1.8337,-1.8666,-1.8725,-1.8725,-1.7566,-1.6663,-1.6021,-1.6115,-1.6021,-1.5712,-1.4384,-1.363,-1.3048,-1.0422,-0.7787,-0.5132,-0.2627,0.0657,0.4219,0.6746,0.9242,1.1711,1.4161,1.7165,2.0025,2.1496,2.4659,2.7738,2.7908,3.047,3.3794,3.7135,3.8778,4.0206,4.2427,4.301,4.35,4.4681,4.5011,4.5245,4.5645,4.5773,4.5824,4.5879,4.5842,4.563,4.5142,4.5074,4.4762,4.4087,4.3986,4.3818,4.3513,4.3497,4.3497,4.3497,4.3497,4.3497,4.3497,4.3497,4.3497,4.3497,4.3497,4.3497,4.3497,4.3497,4.3497,4.3497,4.3497,4.3497,0.0,-1.2767,0.0,0.0,0.0,0.0,0.0,0.0,0.0,0.0,-0.1556,-0.3258,-0.4801,-0.6546,-1.306,-2.9265,-3.3248,-3.4255,-3.4221,-3.4477,-3.3777,-3.1245,-2.9439,-2.8063,-2.7139,-2.5648,-2.4707,-2.4707,-2.285,-2.1811,-2.1952,-2.1078,-2.0566,-2.0566,-2.0654,-2.0222,-1.9083,-1.9389,-1.8998,-1.7918,-1.9041,-1.9604,-1.9604,-1.8749,-1.8357,-1.827,-1.8009,-1.7874,-1.7777,-1.8725,-1.8018,-1.6535,-1.7052,-1.5596,-1.2905,-1.1385,-0.9217,-0.6433,-0.3131,-0.0091,0.27,0.5143,0.7645,1.0187,1.2639,1.4704,1.6967,2.0837,2.3116,2.4825,2.6455,2.8972,3.1543,3.3618,3.6188,3.863,4.0206,4.1558,4.2705,4.3449,4.444,4.514,4.5245,4.5553,4.5796,4.5811,4.5812,4.563,4.5142,4.4872,4.4527,4.4058,4.3772,4.3563,4.3532,4.3497,4.3497,4.3497,4.3497,4.3497,4.3497,4.3497,4.3497,4.3497,4.3497,4.3497,4.3497,4.3497,4.3497,4.3497,4.3497,4.3497,0.0,0.0,0.0,0.0,0.0,0.0,0.0,0.0,0.0,0.0,-0.8654,-1.0665,-1.3967,-1.774,-2.273,-3.0152,-3.3905,-3.5891,-3.5949,-3.4621,-3.3167,-3.1926,-2.9383,-2.7736,-2.7736,-2.6032,-2.5229,-2.5664,-2.3879,-2.2702,-2.2702,-2.1821,-2.1078,-2.0644,-2.0566,-2.0323,-1.9756,-1.9883,-1.9666,-1.9183,-1.9959,-2.0304,-2.0233,-1.9851,-1.9349,-1.8743,-1.8743,-1.8599,-1.8251,-1.8836,-1.8148,-1.666,-1.7102,-1.5821,-1.3456,-1.1625,-1.007,-0.8367,-0.4874,-0.1973,0.0444,0.2935,0.5377,0.7856,1.0221,1.2302,1.4462,1.7904,2.0377,2.2481,2.4544,2.6992,2.9267,3.087,3.3997,3.7164,3.9308,4.0474,4.1516,4.2939,4.3739,4.4395,4.4992,4.5486,4.5804,4.5839,4.5813,4.5723,4.5483,4.5082,4.4707,4.4318,4.3974,4.366,4.3513,4.3497,4.3497,4.3497,4.3497,4.3497,4.3497,4.3497,4.3497,4.3497,4.3497,4.3497,4.3497,4.3497,4.3497,4.3497,4.3497,4.3497,0.0,0.0,0.0,0.0,0.0,0.0,0.0,0.0,0.0,0.0,-1.468,-1.6276,-1.8704,-2.3787,-2.8767,-3.2288,-3.484,-3.6738,-3.7676,-3.4466,-3.2049,-3.1943,-2.8761,-2.6876,-2.7657,-2.6252,-2.5594,-2.6465,-2.4767,-2.3672,-2.3514,-2.2553,-2.1593,-2.0644,-2.0566,-2.0566,-2.0566,-2.0566,-2.0566,-2.0566,-2.0566,-2.0566,-2.0576,-2.0947,-2.0524,-1.9598,-1.9598,-1.9203,-1.8566,-1.8566,-1.7969,-1.6992,-1.646,-1.5689,-1.4396,-1.1802,-1.0783,-1.0173,-0.6848,-0.4003,-0.1421,0.0977,0.3471,0.58,0.8185,1.0322,1.2409,1.467,1.7675,2.0564,2.2648,2.5098,2.7359,2.9083,3.2022,3.522,3.8324,3.9411,4.0367,4.2255,4.2939,4.3595,4.4881,4.5432,4.5742,4.587,4.5852,4.5819,4.5808,4.5414,4.5014,4.4631,4.4233,4.3849,4.3513,4.3497,4.3497,4.3497,4.3497,4.3497,4.3497,4.3497,4.3497,4.3497,4.3497,4.3497,4.3497,4.3497,4.3497,4.3497,4.3497,4.3497,0.0,0.0,0.0,0.0,0.0,0.0,0.0,0.0,0.0,0.0,-1.5803,-1.7135,-1.8352,-2.2463,-2.6767,-3.0073,-3.1367,-3.2766,-3.5122,-3.3231,-3.1346,-3.0554,-2.8905,-2.7719,-2.7683,-2.6824,-2.6383,-2.6465,-2.5441,-2.4409,-2.3526,-2.2553,-2.1593,-2.0644,-2.0566,-2.0566,-2.0566,-2.0566,-2.0566,-2.0566,-2.0566,-2.0566,-2.0566,-2.0625,-2.0566,-2.041,-2.041,-2.0361,-2.0241,-2.0241,-1.9678,-1.8619,-1.7506,-1.6507,-1.5264,-1.293,-1.1466,-1.0255,-0.7709,-0.461,-0.1421,0.0977,0.3471,0.58,0.8185,0.9836,1.1278,1.3549,1.6555,1.95,2.1569,2.4067,2.6577,2.8943,3.0308,3.1903,3.5123,3.7898,3.99,4.0192,4.1841,4.3595,4.4881,4.5266,4.5471,4.5763,4.5855,4.5867,4.5801,4.5491,4.5111,4.4638,4.4233,4.3849,4.3513,4.3497,4.3497,4.3497,4.3497,4.3497,4.3497,4.3497,4.3497,4.3497,4.3497,4.3497,4.3497,4.3497,4.3497,4.3497,4.3497,4.3497,0.0,0.0,0.0,0.0,0.0,0.0,0.0,0.0,0.0,-1.7416,-1.9083,-2.012,-1.9424,-2.3094,-2.7301,-3.0463,-3.201,-3.3433,-3.5295,-3.3416,-3.1422,-3.0348,-2.9012,-2.7931,-2.7336,-2.6619,-2.6194,-2.6194,-2.5627,-2.49,-2.3908,-2.3223,-2.2403,-2.1451,-2.0857,-2.0566,-2.0566,-2.0566,-2.0566,-2.0566,-2.0566,-2.0566,-2.0566,-2.0566,-2.0566,-2.0566,-2.0566,-2.0566,-2.0557,-1.9923,-1.9441,-1.8798,-1.709,-1.6108,-1.5448,-1.3165,-1.1552,-1.0346,-0.869,-0.5769,-0.2492,-0.08,0.1868,0.473,0.6413,0.8177,1.0086,1.2348,1.4896,1.7658,2.0361,2.2777,2.5008,2.687,2.8613,3.0286,3.1833,3.4818,3.7794,3.9846,4.1864,4.3472,4.4336,4.489,4.5263,4.5493,4.5709,4.582,4.5799,4.5673,4.5391,4.4924,4.4535,4.4194,4.3804,4.3597,4.3497,4.3497,4.3497,4.3497,4.3497,4.3497,4.3497,4.3497,4.3497,4.3497,4.3497,4.3497,4.3497,4.3497,4.3497,4.3497,0.0,0.0,0.0,0.0,0.0,0.0,0.0,0.0,0.0,0.0,-2.1395,-2.2376,-2.128,-2.4613,-2.8499,-3.1331,-3.2754,-3.3952,-3.5218,-3.3185,-3.1245,-3.0378,-2.8955,-2.784,-2.7388,-2.6445,-2.5906,-2.5906,-2.5588,-2.4987,-2.4017,-2.3452,-2.271,-2.1691,-2.0747,-2.0293,-2.04,-2.0508,-2.0566,-2.0566,-2.0566,-2.0566,-2.0566,-2.0566,-2.0566,-2.0566,-2.0566,-2.0566,-2.0566,-1.9756,-1.9283,-1.8798,-1.6846,-1.5944,-1.5448,-1.3165,-1.1552,-1.0438,-0.9323,-0.676,-0.3837,-0.2312,0.0444,0.3388,0.491,0.7037,0.9314,1.1246,1.3419,1.5904,1.9136,2.1556,2.3553,2.525,2.7406,2.9497,3.0916,3.3417,3.6471,3.9746,4.1718,4.3048,4.3693,4.4363,4.4935,4.5244,4.5526,4.5726,4.5792,4.5821,4.5636,4.5142,4.48,4.4447,4.4028,4.3693,4.3497,4.3497,4.3497,4.3497,4.3497,4.3497,4.3497,4.3497,4.3497,4.3497,4.3497,4.3497,4.3497,4.3497,4.3497,4.3497,0.0,0.0,0.0,0.0,0.0,0.0,0.0,0.0,0.0,0.0,-2.1126,-2.2429,-2.3992,-2.6872,-2.9765,-3.1914,-3.2075,-3.2341,-3.3539,-3.1632,-3.0201,-3.0352,-2.8613,-2.758,-2.8211,-2.6808,-2.5906,-2.5906,-2.5243,-2.4378,-2.3392,-2.2514,-2.164,-2.0676,-1.9845,-1.9541,-1.9941,-2.0361,-2.0566,-2.0566,-2.0566,-2.0566,-2.0566,-2.0566,-2.0566,-2.0566,-2.0566,-2.0566,-2.0566,-2.0566,-1.9923,-1.8877,-1.7658,-1.6601,-1.5448,-1.3165,-1.1552,-1.0438,-0.9323,-0.7302,-0.4907,-0.2578,-0.0089,0.2311,0.4727,0.7037,0.9148,1.0351,1.2292,1.4781,1.8073,2.0409,2.2606,2.5148,2.6993,2.9386,3.3966,3.5655,3.701,3.9394,4.0937,4.2154,4.3082,4.3706,4.4334,4.517,4.5356,4.5518,4.5763,4.5864,4.5692,4.5163,4.48,4.4447,4.4028,4.3693,4.3497,4.3497,4.3497,4.3497,4.3497,4.3497,4.3497,4.3497,4.3497,4.3497,4.3497,4.3497,4.3497,4.3497,4.3497,4.3497,0.0,0.0,0.0,0.0,0.0,0.0,0.0,0.0,-1.9598,-1.9896,-2.2174,-2.4477,-2.5579,-2.7703,-3.0048,-3.2433,-3.3067,-3.3356,-3.3567,-3.195,-3.0482,-2.983,-2.8431,-2.7565,-2.7815,-2.6469,-2.5575,-2.5575,-2.4783,-2.4154,-2.3747,-2.2622,-2.1829,-2.1494,-2.0042,-1.9365,-1.9512,-1.9941,-2.0146,-2.0146,-2.043,-2.0566,-2.0566,-2.0566,-2.0566,-2.0566,-2.0566,-2.0566,-2.0566,-1.9844,-1.9362,-1.8798,-1.7001,-1.6026,-1.5448,-1.3165,-1.1552,-1.0438,-0.9323,-0.739,-0.509,-0.3476,-0.08,0.2133,0.3744,0.5883,0.8189,1.0091,1.1685,1.3593,1.6928,1.939,2.1725,2.4989,2.6821,2.8549,3.1459,3.4366,3.6951,3.8698,4.0543,4.2044,4.2755,4.3483,4.4195,4.4759,4.5163,4.5502,4.577,4.587,4.5739,4.5283,4.4843,4.4553,4.4392,4.3836,4.3597,4.3804,4.3631,4.3497,4.3497,4.3497,4.3597,4.3836,4.3631,4.3497,4.3497,4.3497,4.3497,4.3497,4.3497,4.3497,-0.8567,0.0,0.0,0.0,0.0,0.0,0.0,0.0,-1.8995,-1.9681,-2.2408,-2.4932,-2.568,-2.7767,-3.0165,-3.2474,-3.2991,-3.3023,-3.2818,-3.1557,-3.0364,-2.9426,-2.8309,-2.766,-2.7894,-2.6625,-2.5673,-2.5398,-2.459,-2.3997,-2.3703,-2.258,-2.1688,-2.1081,-1.9737,-1.9072,-1.9072,-1.9492,-1.9707,-1.9707,-2.0137,-2.0352,-2.0352,-2.0498,-2.0566,-2.0566,-2.0566,-2.0566,-2.0566,-1.9835,-1.9116,-1.831,-1.6838,-1.5786,-1.488,-1.2577,-1.1466,-1.0864,-0.8969,-0.757,-0.6239,-0.4281,-0.169,0.0977,0.3031,0.4996,0.7041,0.9396,1.0838,1.2421,1.5875,1.8858,2.17,2.4631,2.5922,2.7102,2.9176,3.2351,3.5384,3.7479,3.9396,4.0969,4.1919,4.2923,4.368,4.4071,4.4717,4.5286,4.5579,4.5774,4.5765,4.5499,4.4941,4.465,4.4776,4.3974,4.3646,4.3986,4.3679,4.3497,4.3497,4.3497,4.3579,4.3836,4.3612,4.3497,4.3497,4.3497,4.3497,4.3497,4.3497,4.3497,0.0,0.0,0.0,0.0,0.0,0.0,0.0,0.0,-1.713,-1.93,-2.1609,-2.3469,-2.4195,-2.715,-3.0105,-3.197,-3.1632,-3.1167,-3.1192,-3.0451,-2.9721,-2.9244,-2.8232,-2.7799,-2.8384,-2.7282,-2.6162,-2.5508,-2.4738,-2.4002,-2.3198,-2.2384,-2.1101,-1.9365,-1.8863,-1.8613,-1.8553,-1.9053,-1.9268,-1.9277,-1.9697,-1.9893,-1.9912,-2.0332,-2.0527,-2.0527,-2.0537,-2.0547,-2.0547,-2.0557,-1.9274,-1.7342,-1.7342,-1.5959,-1.3822,-1.1477,-1.13,-1.1724,-0.8356,-0.7929,-0.8269,-0.4812,-0.2849,-0.1155,0.2494,0.4374,0.5888,0.8273,0.9753,1.1359,1.4759,1.8795,2.237,2.3882,2.422,2.4935,2.7481,2.972,3.2305,3.5676,3.7383,3.8852,4.0517,4.1835,4.2792,4.3135,4.4044,4.4824,4.5259,4.5601,4.58,4.5796,4.5088,4.4732,4.5074,4.4136,4.3646,4.4016,4.3693,4.3513,4.3513,4.3532,4.3513,4.3513,4.3513,4.3513,4.3513,4.3479,4.3497,4.3497,4.3497,4.3497,-0.8219,0.0,0.0,0.0,0.0,0.0,0.0,0.0,0.0,-1.8528,-2.0527,-2.223,-2.3022,-2.5184,-2.7422,-2.914,-3.1023,-3.2002,-3.1287,-3.0486,-2.9572,-2.8506,-2.7415,-2.7011,-2.7628,-2.6535,-2.5873,0.0,-2.5508,-2.4794,-2.4002,-2.2665,-2.1101,-1.9365,-1.9158,-1.8768,-1.8184,-1.8603,-1.8818,-1.8818,-1.9258,-1.9463,-1.9463,-1.959,-1.9639,-1.9658,-1.9961,-2.0088,-2.0117,-2.0439,-1.9274,-1.7342,-1.7342,-1.5959,-1.3913,-1.2425,-1.1466,-1.0778,-0.9056,-0.8017,-0.7309,-0.5531,-0.3474,-0.1244,0.1422,0.374,0.5888,0.8273,0.9753,1.1536,1.5718,1.8858,2.1171,2.2326,2.3196,2.3988,2.5136,2.642,2.8646,3.3028,3.5525,3.7399,3.8853,4.0259,4.1653,4.2993,4.3726,4.4429,4.5254,4.5664,4.5777,4.5537,4.5017,4.4779,4.5096,4.4346,4.4016,4.4419,4.4076,4.3849,4.3849,4.3612,4.3744,4.4299,4.3986,4.3849,4.3849,4.3631,4.3497,4.3497,4.3497,4.3497,0.0,0.0,0.0,0.0,0.0,0.0,-1.4684,-1.5417,0.0,0.0,-2.0382,-2.1817,-2.2784,-2.45,-2.6218,-2.7526,-2.9323,-3.0565,-3.0579,-2.9991,-2.9265,-2.8476,-2.7203,-2.6754,-2.7628,-2.6378,-2.5687,-2.5988,-2.5381,-2.4623,-2.3813,-2.2616,-2.1302,-1.9879,-1.9497,-1.8844,-1.8008,-1.8252,-1.8379,-1.8379,-1.8809,-1.9014,-1.9023,-1.9209,-1.9287,-1.9297,-1.9541,-1.9648,-1.9668,-1.9922,-1.9214,-1.7908,-1.7009,-1.5869,-1.4559,-1.2923,-1.2163,-1.174,-0.9671,-0.8711,-0.8177,-0.6062,-0.4099,-0.2045,0.0888,0.3115,0.5174,0.7482,0.9643,1.2105,1.5666,1.7857,1.9358,2.0488,2.1171,2.1928,2.3123,2.3779,2.5648,3.0459,3.3306,3.5412,3.6942,3.889,4.07,4.1926,4.2993,4.3981,4.4974,4.5433,4.5625,4.5577,4.5198,4.5034,4.5303,4.4663,4.4401,4.4781,4.429,4.4076,4.4233,4.3758,4.3758,4.4318,4.3986,4.3804,4.3804,4.3758,4.3646,4.3497,4.3497,4.3497,-1.1644,-1.1823,0.0,0.0,-1.2657,0.0,-1.6277,-1.5915,-1.5683,0.0,-2.0248,-2.1263,-2.2417,-2.403,-2.5424,-2.6201,-2.6909,-2.7861,-2.9332,-2.9138,-2.8807,-2.8774,-2.7417,-2.6914,-2.8015,-2.6643,-2.5604,-2.5513,-2.4812,-2.4081,-2.3285,-2.2469,-2.162,-2.0655,-1.9944,-1.911,-1.8008,-1.8076,-1.8076,-1.8018,-1.8389,-1.8494,-1.8584,-1.8975,-1.915,-1.915,-1.9189,-1.9219,-1.9219,-1.9122,-1.9071,-1.8726,-1.6619,-1.5749,-1.5448,-1.3256,-1.3112,-1.3476,-1.0361,-0.9749,-0.9913,-0.6766,-0.4907,-0.312,0.0355,0.2313,0.3924,0.6599,0.962,1.2584,1.492,1.6347,1.7415,1.855,1.8877,1.9502,2.1268,2.1876,2.3279,2.757,3.0513,3.2861,3.4758,3.7371,3.948,4.0302,4.1855,4.3352,4.4412,4.4978,4.5417,4.5729,4.549,4.5401,4.5599,4.5036,4.4806,4.5074,4.4463,4.4261,4.458,4.3962,4.3758,4.4016,4.3679,4.3513,4.3548,4.3836,4.3804,4.3497,4.3497,4.3497,-1.4692,-1.5412,-1.6358,-1.4285,0.0,0.0,-1.4929,-1.4738,-1.5066,0.0,-1.6805,-1.711,-1.8203,-1.9926,-2.1552,-2.2554,-2.4426,-2.6411,-2.8319,-2.8477,-2.8472,-2.8612,-2.7549,-2.7228,-2.8233,-2.6961,-2.6241,-2.6639,-2.5304,-2.4353,-2.4164,-2.3454,-2.2256,-2.0643,-2.1101,-2.0268,-1.8008,-1.8721,-1.8721,-1.8008,-1.8096,-1.8135,-1.8135,-1.8223,-1.8262,-1.8281,-1.8623,-1.876,-1.8718,-1.8248,-1.8206,-1.8315,-1.7046,-1.6186,-1.5538,-1.4223,-1.3294,-1.2589,-1.1901,-1.0611,-0.9148,-0.8448,-0.6766,-0.455,-0.1866,0.0444,0.3021,0.7372,0.9653,1.1445,1.373,1.517,1.6273,1.7334,1.831,1.9116,1.9502,2.0884,2.2285,2.3205,2.6043,2.9227,3.2208,3.4227,3.6315,3.877,4.0534,4.2065,4.349,4.4626,4.535,4.5476,4.5428,4.549,4.5731,4.5389,4.515,4.5096,4.4966,4.4806,4.4624,4.4447,4.428,4.4016,4.3679,4.3612,4.3893,4.3693,4.3563,4.3497,4.3497,4.3497,-1.7061,-1.7449,-1.8159,-1.6761,0.0,0.0,0.0,-1.5735,-1.5889,-1.747,-1.7209,-1.7086,-1.836,-1.9617,-2.068,-2.1401,-2.3461,-2.5409,-2.6548,-2.7303,-2.7765,-2.7794,-2.6799,-2.6506,-2.7548,-2.6351,-2.5522,-2.5648,-2.4896,-2.4126,-2.3447,-2.3347,-2.2533,-2.0823,-2.1549,-2.1037,-1.9299,-1.9299,-1.911,-1.8654,-1.8202,-1.8008,-1.8008,-1.8008,-1.8008,-1.8018,-1.8232,-1.832,-1.827,-1.7981,-1.8087,-1.8239,-1.6365,-1.5764,-1.5777,-1.4365,-1.3432,-1.2931,-1.2457,-1.1209,-0.9666,-0.9065,-0.7302,-0.4907,-0.249,0.071,0.436,0.7906,0.9323,1.0265,1.2559,1.3581,1.4427,1.6101,1.6919,1.7658,1.8798,1.9806,2.0807,2.18,2.3796,2.6429,2.9654,3.2271,3.4914,3.7799,3.9251,4.0789,4.3008,4.4063,4.4801,4.5297,4.5523,4.5685,4.5796,4.5655,4.5481,4.5362,4.5201,4.5011,4.4849,4.4682,4.4419,4.4016,4.3679,4.3563,4.3758,4.3563,4.3497,4.3497,4.3497,4.3497,0.0,0.0,-1.9612,0.0,0.0,-1.7662,0.0,0.0,0.0,-1.8419,-1.8037,0.0,0.0,0.0,0.0,0.0,0.0,0.0,0.0,-2.5123,0.0,-2.6877,-2.6148,-2.5998,-2.6923,-2.5432,-2.4328,-2.4104,-2.3833,-2.3291,-2.2442,-2.2897,-2.2562,-2.1224,-2.168,-2.1448,-2.0333,-2.0009,-1.9562,-1.9044,-1.8529,-1.8134,-1.8008,-1.8008,-1.8008,-1.8008,-1.8008,-1.8008,-1.8008,-1.8008,-1.8213,-1.8264,-1.5922,-1.5647,-1.6269,-1.4482,-1.379,-1.3662,-1.2853,-1.1662,-1.0383,-0.9483,-0.7295,-0.4639,-0.222,0.1599,0.5531,0.7921,0.8715,0.9405,1.1466,1.2157,1.2832,1.4866,1.5538,1.6191,1.798,1.855,1.9256,2.1028,2.2232,2.3986,2.7511,3.053,3.3442,3.6254,3.7633,3.9336,4.2157,4.3237,4.4113,4.5079,4.5547,4.5781,4.5813,4.5809,4.5751,4.5651,4.5342,4.518,4.5096,4.4776,4.4447,4.4117,4.3772,4.3563,4.3497,4.3497,4.3497,4.3497,4.3497,4.3497,0.0,0.0,0.0,0.0,-1.9907,0.0,0.0,0.0,-1.6901,-1.6181,0.0,0.0,0.0,0.0,0.0,0.0,0.0,0.0,-1.9316,-2.0866,-2.3217,-2.6362,-2.6772,-2.6969,-2.7395,-2.4766,-2.3083,-2.3239,-2.2121,-2.1739,-2.2427,-2.2623,-2.2432,-2.1927,-2.216,-2.1329,-1.9497,-2.091,-2.0462,-1.8134,-1.8854,-1.8721,-1.8008,-1.8008,-1.8008,-1.8008,-1.8008,-1.8008,-1.8008,-1.8008,-1.8037,-1.7978,-1.709,-1.7093,-1.7252,-1.5227,-1.4472,-1.4366,-1.3655,-1.2005,-1.0268,-1.0373,-0.7442,-0.3387,-0.0974,0.1686,0.4281,0.6599,0.8101,0.9235,1.0438,1.1552,1.2589,1.3984,1.4977,1.5779,1.6026,1.6846,1.7819,1.9107,2.0071,2.1987,2.5889,2.8009,3.0058,3.26,3.511,3.7498,3.9809,4.1938,4.3674,4.4643,4.5124,4.5509,4.5859,4.5824,4.5784,4.5777,4.5613,4.5419,4.5096,4.4776,4.458,4.4527,4.4146,4.3804,4.3497,4.3497,4.3497,4.3497,4.3497,4.3497,0.0,0.0,0.0,0.0,0.0,0.0,-1.8365,0.0,-1.7732,0.0,0.0,0.0,0.0,0.0,0.0,0.0,-1.819,0.0,0.0,0.0,-2.1366,0.0,0.0,0.0,-2.5631,-2.4351,-2.356,-2.3885,-2.2167,-2.1497,-2.2365,-2.2526,-2.23,-2.1789,-2.2485,-2.2301,-2.1023,-2.1077,-2.0846,-2.0268,-1.911,-1.8586,-1.8721,-1.8202,-1.8008,-1.8008,-1.8008,-1.8008,-1.8008,-1.8008,-1.8008,-1.7959,-1.771,-1.7017,-1.6088,-1.4818,-1.399,-1.3509,-1.3439,-1.2004,-0.9981,-0.8905,-0.6313,-0.3299,-0.1597,0.1155,0.4101,0.6404,0.7998,0.9323,1.1128,1.1901,1.2753,1.4629,1.5379,1.6026,1.7334,1.798,1.863,1.9678,2.1181,2.2722,2.4399,2.6144,2.8266,3.1224,3.3361,3.5407,3.7494,3.9868,4.1838,4.3111,4.4017,4.4828,4.5542,4.5762,4.5841,4.5803,4.549,4.5243,4.5096,4.4776,4.4501,4.428,4.4106,4.3836,4.3497,4.3497,4.3497,4.3497,4.3497,4.3497,-2.3508,0.0,0.0,0.0,0.0,0.0,0.0,0.0,0.0,0.0,0.0,0.0,0.0,0.0,0.0,-1.7577,0.0,-1.8,0.0,-1.769,0.0,0.0,0.0,0.0,0.0,-2.2952,-2.2671,-2.3333,-2.1508,-2.0812,-2.1889,-2.2265,-2.2267,-2.1843,-2.2498,-2.2622,-2.2201,-2.1437,-2.1225,-2.1491,-1.9879,-1.9177,-1.9299,-1.8654,-1.8202,-1.8008,-1.8008,-1.8008,-1.8008,-1.8008,-1.8008,-1.8008,-1.8008,-1.6862,-1.5125,-1.4668,-1.3881,-1.3037,-1.305,-1.1849,-0.9897,-0.7781,-0.5531,-0.339,-0.2134,0.0711,0.4013,0.6042,0.7727,0.9323,1.1295,1.2072,1.2832,1.4789,1.5462,1.6108,1.7738,1.831,1.8877,1.9923,2.1486,2.2818,2.3368,2.5063,2.7217,2.9799,3.1455,3.3218,3.5286,3.7573,3.9657,4.1348,4.2516,4.3568,4.4592,4.5117,4.5399,4.5428,4.4878,4.4648,4.4859,4.4646,4.4411,4.4175,4.4146,4.3943,4.3497,4.3497,4.3497,4.3497,4.3497,4.3497,0.0,0.0,0.0,-2.1794,0.0,0.0,0.0,0.0,-1.9759,0.0,0.0,0.0,0.0,-2.0319,-1.9285,-1.7755,-1.7692,0.0,0.0,0.0,0.0,0.0,0.0,0.0,0.0,-1.9963,-1.9158,0.0,-1.9318,-1.9158,-2.0655,-2.1809,-2.2438,-2.2466,-2.1943,-2.1781,-2.2018,-2.2156,-2.1741,-2.0655,-2.1428,-2.091,-1.9299,-1.9299,-1.8787,-1.8008,-1.8008,-1.8008,-1.8008,-1.8008,-1.8008,-1.8008,-1.8008,-1.6862,-1.5234,-1.518,-1.4545,-1.3594,-1.303,-1.1688,-0.9897,-0.7781,-0.5531,-0.339,-0.2134,0.0711,0.3837,0.509,0.7122,0.9148,1.0351,1.1466,1.2589,1.3822,1.4977,1.5696,1.5779,1.6601,1.7666,1.8798,1.9856,2.112,2.3136,2.5134,2.6782,2.7696,2.9053,3.083,3.3098,3.5205,3.7371,3.9626,4.0537,4.1509,4.2777,4.3596,4.4192,4.4521,4.3659,4.3511,4.428,4.4318,4.4401,4.458,4.458,4.4223,4.3497,4.3497,4.3497,4.3497,4.3497,4.3497,-2.4617,-2.4711,-2.4518,-2.316,-2.2554,-2.1854,0.0,0.0,0.0,0.0,0.0,0.0,0.0,-2.0788,-1.9631,-1.882,-1.7736,-1.6283,0.0,0.0,0.0,0.0,0.0,0.0,0.0,0.0,0.0,-2.0964,-1.9738,0.0,-2.1459,-2.2055,-2.204,-2.1405,-2.2317,-2.2326,-2.1154,-2.1788,-2.1959,-2.1729,-2.1265,-2.0719,-2.0139,-1.9562,-1.8854,-1.8008,-1.8008,-1.8008,-1.8008,-1.8008,-1.8008,-1.8008,-1.8008,-1.6862,-1.5234,-1.5234,-1.4163,-1.2553,-1.1159,-1.029,-0.9523,-0.7629,-0.6002,-0.4552,-0.3387,-0.0445,0.2846,0.48,0.7017,0.9323,1.1209,1.198,1.2747,1.4706,1.5951,1.7009,1.7738,1.87,1.9599,2.0001,2.1334,2.2669,2.3368,2.5205,2.6589,2.685,2.8222,2.9435,3.0211,3.3008,3.5368,3.6669,3.8743,4.056,4.1822,4.2957,4.3649,4.3762,4.3395,4.3166,4.3101,4.3139,4.3251,4.3409,4.3418,4.3446,4.3497,4.3497,4.3497,4.3497,4.3497,4.3497,-2.558,-2.5803,-2.5824,-2.4404,-2.4004,-2.3535,-2.1959,-2.1802,-2.1889,-2.1631,0.0,0.0,-2.3095,-2.2089,-2.079,-1.9594,-1.8183,-1.6502,0.0,-1.4162,0.0,0.0,0.0,0.0,0.0,0.0,-1.9051,-2.0778,-1.9601,0.0,0.0,-2.2114,-2.2105,-2.1341,-2.2316,-2.2366,-2.142,-2.1706,-2.1901,-2.202,-2.1451,-2.1024,-2.0711,-2.0373,-1.9562,-1.8462,-1.8462,-1.8269,-1.8008,-1.8008,-1.8008,-1.794,-1.7647,-1.6576,-1.5234,-1.5234,-1.3947,-1.2042,-1.0153,-0.9548,-0.9318,-0.7528,-0.6204,-0.5039,-0.3918,-0.1335,0.1688,0.3997,0.6392,0.869,1.06,1.1724,1.2662,1.4183,1.5598,1.7009,1.8149,1.9492,2.0672,2.1001,2.2713,2.4036,2.4036,2.5615,2.6905,2.6905,2.7788,2.8611,2.9254,3.1741,3.3909,3.5121,3.732,3.9471,4.1252,4.2041,4.2572,4.2918,4.2546,4.2281,4.224,4.2182,4.2268,4.2548,4.2445,4.2607,4.3057,4.3057,4.3222,4.3497,4.3497,4.3497]}]]